[[{"header":{"parameterUnit":"m.s-1","parameterCategory":1,"la1":30.6,"la2":29.2853,"lo1":-89.7004,"lo2":-87.6739,"dx":0.0162,"dy":0.0183,"nx":112,"ny":82,"refTime":"2023-01-16T06:00:00:Z","depth":0,"parameterNumber":2,"parameterNumberName":"U-component_of_WINDS"},"data":[0.0,0.0,0.0,0.0,0.0,0.0,0.0,0.0,0.0,0.0,0.0,0.0,0.0,0.0,0.0,0.0,0.0,0.0,0.0,0.0,0.0,0.0,0.0,0.0,0.0,0.0,0.0,0.0,0.0,0.0,0.0,0.0,0.0,0.0,0.0,0.0,0.0,0.0,0.0,0.0,0.0,0.0,0.0,0.0,0.0,0.0,0.0,0.0,0.0,0.0,0.0,0.0,0.0,0.0,0.0,0.0,0.0,0.0,0.0,0.0,0.0,0.0,0.0,0.0,0.0,0.0,0.0,0.0,0.0,0.0,0.0,0.0,0.0,0.0,0.0,0.0,0.0,0.0,0.0,0.0,0.0,0.0,0.0,0.0,0.0,0.0,0.0,0.0,0.0,0.0,0.0,-2.1484,-2.5826,-2.7931,-2.6536,-2.4673,-2.1952,-1.8181,0.0,0.0,0.0,0.0,0.0,0.0,0.0,0.0,0.0,0.0,0.0,0.0,0.0,0.0,0.0,0.0,0.0,0.0,0.0,0.0,0.0,0.0,0.0,0.0,0.0,0.0,0.0,0.0,0.0,0.0,0.0,0.0,0.0,0.0,0.0,0.0,0.0,0.0,0.0,0.0,0.0,0.0,0.0,0.0,0.0,0.0,0.0,0.0,0.0,0.0,0.0,0.0,0.0,0.0,0.0,0.0,0.0,0.0,0.0,0.0,0.0,0.0,0.0,0.0,0.0,0.0,0.0,0.0,0.0,0.0,0.0,0.0,0.0,0.0,0.0,0.0,0.0,0.0,0.0,0.0,0.0,0.0,0.0,0.0,0.0,0.0,0.0,0.0,0.0,0.0,0.0,0.0,0.0,0.0,0.0,0.0,0.0,0.0,0.0,0.0,0.0,0.0,0.0,0.0,-1.9273,-2.6324,-2.8668,-2.8807,-2.6566,-2.5421,-2.2636,-1.7569,0.0,0.0,0.0,0.0,0.0,0.0,0.0,0.0,0.0,0.0,0.0,0.0,0.0,0.0,0.0,0.0,0.0,0.0,0.0,0.0,0.0,0.0,0.0,0.0,0.0,0.0,0.0,0.0,0.0,0.0,0.0,0.0,0.0,0.0,0.0,0.0,0.0,0.0,0.0,0.0,0.0,0.0,0.0,0.0,0.0,0.0,0.0,0.0,0.0,0.0,0.0,0.0,0.0,0.0,0.0,0.0,0.0,0.0,0.0,0.0,0.0,0.0,0.0,0.0,0.0,0.0,0.0,0.0,0.0,0.0,0.0,0.0,0.0,0.0,0.0,0.0,0.0,0.0,0.0,0.0,0.0,0.0,0.0,0.0,0.0,0.0,0.0,0.0,0.0,0.0,0.0,0.0,0.0,0.0,0.0,0.0,0.0,0.0,0.0,0.0,0.0,0.0,0.0,-1.8988,-2.3424,-2.8233,-2.9502,-2.8938,-2.6232,-2.4851,-2.2131,-1.7395,-1.4159,0.0,0.0,0.0,0.0,0.0,0.0,0.0,0.0,0.0,0.0,0.0,0.0,0.0,0.0,0.0,0.0,0.0,0.0,0.0,0.0,0.0,0.0,0.0,0.0,0.0,0.0,0.0,0.0,0.0,0.0,0.0,0.0,0.0,0.0,0.0,0.0,0.0,0.0,0.0,0.0,0.0,0.0,0.0,0.0,0.0,0.0,0.0,0.0,0.0,0.0,0.0,0.0,0.0,0.0,0.0,0.0,0.0,0.0,0.0,0.0,0.0,0.0,0.0,0.0,0.0,0.0,0.0,0.0,0.0,0.0,0.0,0.0,0.0,0.0,0.0,0.0,0.0,0.0,0.0,0.0,0.0,0.0,0.0,0.0,0.0,0.0,0.0,0.0,0.0,0.0,0.0,0.0,0.0,0.0,0.0,0.0,0.0,0.0,0.0,0.0,0.0,0.0,-2.4528,-2.7245,-2.9014,-2.9593,-2.8679,-2.5799,-2.4344,-2.167,-1.7218,-1.4311,0.0,0.0,0.0,0.0,0.0,0.0,0.0,0.0,0.0,0.0,0.0,0.0,0.0,0.0,0.0,0.0,0.0,0.0,0.0,0.0,0.0,0.0,0.0,0.0,0.0,0.0,0.0,0.0,0.0,0.0,0.0,0.0,0.0,0.0,0.0,0.0,0.0,0.0,0.0,0.0,0.0,0.0,0.0,0.0,0.0,0.0,0.0,0.0,0.0,0.0,0.0,0.0,0.0,0.0,0.0,0.0,0.0,0.0,0.0,0.0,0.0,0.0,0.0,0.0,0.0,0.0,0.0,0.0,0.0,0.0,0.0,0.0,0.0,0.0,0.0,0.0,0.0,0.0,0.0,0.0,0.0,0.0,0.0,0.0,0.0,0.0,0.0,0.0,0.0,0.0,0.0,0.0,0.0,0.0,0.0,0.0,0.0,0.0,0.0,0.0,0.0,0.0,-2.6153,-2.8944,-2.9171,-2.9349,-2.825,-2.5374,-2.4614,-2.2082,-1.6783,-1.473,0.0,0.0,0.0,0.0,0.0,0.0,0.0,0.0,0.0,0.0,0.0,0.0,0.0,0.0,0.0,0.0,0.0,0.0,0.0,0.0,0.0,0.0,0.0,0.0,0.0,0.0,0.0,0.0,0.0,0.0,0.0,0.0,0.0,0.0,0.0,0.0,0.0,0.0,0.0,0.0,0.0,0.0,0.0,0.0,0.0,0.0,0.0,0.0,0.0,0.0,0.0,0.0,0.0,0.0,0.0,0.0,0.0,0.0,0.0,0.0,0.0,0.0,0.0,0.0,0.0,0.0,0.0,0.0,0.0,0.0,0.0,0.0,0.0,0.0,0.0,0.0,0.0,0.0,0.0,0.0,0.0,0.0,0.0,0.0,0.0,0.0,0.0,0.0,0.0,0.0,0.0,0.0,0.0,0.0,0.0,0.0,0.0,0.0,0.0,0.0,0.0,0.0,-2.617,-2.8699,0.0,-2.935,-2.8253,-2.5334,-2.4668,-2.213,-1.6858,0.0,0.0,0.0,0.0,0.0,0.0,0.0,0.0,0.0,0.0,0.0,0.0,0.0,0.0,0.0,0.0,0.0,0.0,0.0,0.0,0.0,0.0,0.0,0.0,0.0,0.0,0.0,0.0,0.0,0.0,0.0,0.0,0.0,0.0,0.0,0.0,0.0,0.0,0.0,0.0,0.0,0.0,0.0,0.0,0.0,0.0,0.0,0.0,0.0,0.0,0.0,0.0,0.0,0.0,0.0,0.0,0.0,0.0,0.0,0.0,0.0,0.0,0.0,0.0,0.0,0.0,0.0,0.0,0.0,0.0,0.0,0.0,0.0,0.0,0.0,0.0,0.0,0.0,0.0,0.0,0.0,0.0,0.0,0.0,0.0,0.0,0.0,0.0,0.0,0.0,0.0,0.0,0.0,0.0,0.0,0.0,0.0,0.0,0.0,0.0,0.0,0.0,-2.3161,-2.6881,-2.9196,0.0,-2.9396,-2.8253,-2.5334,-2.4805,-2.2383,-1.7088,0.0,0.0,0.0,0.0,0.0,0.0,0.0,0.0,0.0,0.0,0.0,0.0,0.0,0.0,0.0,0.0,0.0,0.0,0.0,0.0,0.0,0.0,0.0,0.0,0.0,0.0,0.0,0.0,0.0,0.0,0.0,0.0,0.0,0.0,0.0,0.0,0.0,0.0,0.0,0.0,0.0,0.0,0.0,0.0,0.0,0.0,0.0,0.0,0.0,0.0,0.0,0.0,0.0,0.0,0.0,0.0,0.0,0.0,0.0,0.0,0.0,0.0,0.0,0.0,0.0,0.0,0.0,0.0,0.0,0.0,0.0,0.0,0.0,0.0,0.0,0.0,0.0,0.0,0.0,0.0,0.0,0.0,0.0,0.0,0.0,0.0,0.0,0.0,0.0,0.0,0.0,0.0,0.0,0.0,0.0,0.0,0.0,0.0,0.0,0.0,0.0,0.0,-2.4467,-2.8674,-3.0887,-2.9579,-2.9418,-2.8253,-2.5382,-2.5125,-2.2821,0.0,0.0,0.0,0.0,0.0,0.0,0.0,0.0,0.0,0.0,0.0,0.0,0.0,0.0,0.0,0.0,0.0,0.0,0.0,0.0,0.0,0.0,0.0,0.0,0.0,0.0,0.0,0.0,0.0,0.0,0.0,0.0,0.0,0.0,0.0,0.0,0.0,0.0,0.0,0.0,0.0,0.0,0.0,0.0,0.0,0.0,0.0,0.0,0.0,0.0,0.0,0.0,0.0,0.0,0.0,0.0,0.0,0.0,0.0,0.0,0.0,0.0,0.0,0.0,0.0,0.0,0.0,0.0,0.0,0.0,0.0,0.0,0.0,0.0,0.0,0.0,0.0,0.0,0.0,0.0,0.0,0.0,0.0,0.0,0.0,0.0,0.0,0.0,0.0,0.0,0.0,0.0,0.0,0.0,0.0,0.0,0.0,0.0,0.0,0.0,0.0,0.0,0.0,-2.4613,-2.9659,-3.2472,-3.0817,-3.0664,-2.967,-2.7061,-2.6584,-2.3951,-1.8302,0.0,0.0,0.0,0.0,0.0,0.0,0.0,0.0,0.0,0.0,0.0,0.0,0.0,0.0,0.0,0.0,0.0,0.0,0.0,0.0,0.0,0.0,0.0,0.0,0.0,0.0,0.0,0.0,0.0,0.0,0.0,0.0,0.0,0.0,0.0,0.0,0.0,0.0,0.0,0.0,0.0,0.0,0.0,0.0,0.0,0.0,0.0,0.0,0.0,0.0,0.0,0.0,0.0,0.0,0.0,0.0,0.0,0.0,0.0,0.0,0.0,0.0,0.0,0.0,0.0,0.0,0.0,0.0,0.0,0.0,0.0,0.0,0.0,0.0,0.0,0.0,0.0,0.0,0.0,0.0,0.0,0.0,0.0,0.0,0.0,0.0,0.0,0.0,0.0,0.0,0.0,0.0,0.0,0.0,0.0,0.0,0.0,0.0,0.0,0.0,0.0,0.0,-2.5283,-3.0341,-3.3312,-3.1981,-3.1464,-3.0395,-2.8495,-2.7877,-2.5439,-2.0372,0.0,0.0,0.0,0.0,0.0,0.0,0.0,0.0,0.0,0.0,0.0,0.0,0.0,0.0,0.0,0.0,0.0,0.0,0.0,0.0,0.0,0.0,0.0,0.0,0.0,0.0,0.0,0.0,0.0,0.0,0.0,0.0,0.0,0.0,0.0,0.0,0.0,0.0,0.0,0.0,0.0,0.0,0.0,0.0,0.0,0.0,0.0,0.0,0.0,0.0,0.0,0.0,0.0,0.0,0.0,0.0,0.0,0.0,0.0,0.0,0.0,0.0,0.0,0.0,0.0,0.0,0.0,0.0,0.0,0.0,0.0,0.0,0.0,0.0,0.0,0.0,0.0,0.0,0.0,0.0,0.0,0.0,0.0,0.0,0.0,0.0,0.0,0.0,0.0,0.0,0.0,0.0,0.0,0.0,0.0,0.0,0.0,0.0,0.0,0.0,0.0,0.0,-2.627,-3.0985,-3.3936,-3.331,-3.2364,-3.1226,-2.9966,-2.9376,-2.7369,-2.3349,0.0,0.0,0.0,0.0,0.0,0.0,0.0,0.0,0.0,0.0,0.0,0.0,0.0,0.0,0.0,0.0,0.0,0.0,0.0,0.0,0.0,0.0,0.0,0.0,0.0,0.0,0.0,0.0,0.0,0.0,0.0,0.0,0.0,0.0,0.0,0.0,0.0,0.0,0.0,0.0,0.0,0.0,0.0,0.0,0.0,0.0,0.0,0.0,0.0,0.0,0.0,0.0,0.0,0.0,0.0,0.0,0.0,0.0,0.0,0.0,-2.0939,0.0,0.0,0.0,0.0,0.0,0.0,0.0,0.0,0.0,0.0,0.0,0.0,0.0,0.0,0.0,0.0,0.0,0.0,0.0,0.0,0.0,0.0,0.0,0.0,0.0,0.0,0.0,0.0,0.0,0.0,0.0,0.0,0.0,0.0,0.0,0.0,0.0,0.0,0.0,0.0,0.0,-2.6895,-3.2828,-3.6777,-3.6321,-3.6047,-3.5263,-3.3628,-3.3024,-3.0802,-2.6341,0.0,0.0,0.0,0.0,0.0,0.0,0.0,0.0,0.0,0.0,0.0,0.0,0.0,0.0,0.0,0.0,0.0,0.0,0.0,0.0,0.0,0.0,0.0,0.0,0.0,0.0,0.0,0.0,0.0,0.0,0.0,0.0,0.0,0.0,0.0,0.0,0.0,0.0,0.0,0.0,0.0,0.0,0.0,0.0,0.0,0.0,0.0,0.0,0.0,0.0,0.0,0.0,0.0,0.0,0.0,0.0,0.0,0.0,0.0,0.0,0.0,-2.2006,0.0,0.0,0.0,0.0,0.0,0.0,0.0,0.0,0.0,0.0,0.0,0.0,0.0,0.0,0.0,0.0,0.0,0.0,0.0,0.0,0.0,0.0,0.0,0.0,0.0,0.0,0.0,0.0,0.0,0.0,0.0,0.0,0.0,0.0,0.0,0.0,0.0,0.0,0.0,0.0,-2.8253,-3.4186,-3.8198,-3.8003,-3.7805,-3.7304,-3.6379,-3.5279,-3.3327,-3.0191,-2.723,0.0,0.0,0.0,0.0,0.0,0.0,0.0,0.0,0.0,0.0,0.0,0.0,0.0,0.0,0.0,0.0,0.0,0.0,0.0,0.0,0.0,0.0,0.0,0.0,0.0,0.0,0.0,0.0,0.0,0.0,0.0,0.0,0.0,0.0,0.0,0.0,0.0,0.0,0.0,0.0,0.0,0.0,0.0,0.0,0.0,0.0,0.0,0.0,0.0,0.0,0.0,0.0,0.0,-2.9047,-2.933,-3.0253,-3.0253,-3.048,-3.0713,-2.771,-2.5939,-2.5052,0.0,0.0,0.0,0.0,0.0,0.0,0.0,0.0,0.0,0.0,0.0,0.0,0.0,0.0,0.0,0.0,0.0,0.0,0.0,0.0,0.0,0.0,0.0,0.0,0.0,-2.9038,-2.8691,0.0,0.0,0.0,0.0,0.0,0.0,0.0,0.0,0.0,0.0,0.0,0.0,-3.0426,-3.5613,-3.9189,-3.9392,-3.9105,-3.8876,-3.8824,-3.7372,-3.5858,-3.4322,-3.0806,-2.7748,0.0,0.0,0.0,0.0,0.0,0.0,0.0,0.0,0.0,0.0,0.0,0.0,0.0,0.0,0.0,0.0,0.0,0.0,0.0,0.0,0.0,0.0,0.0,0.0,0.0,0.0,0.0,0.0,0.0,0.0,0.0,0.0,-2.8379,-2.9875,0.0,0.0,0.0,0.0,0.0,0.0,0.0,0.0,0.0,0.0,0.0,0.0,0.0,0.0,-3.154,-3.1814,-3.2044,-3.2191,-3.258,-3.2826,-3.2976,-3.2976,-3.3005,-3.3033,-3.2586,0.0,-2.8336,-2.6598,0.0,0.0,0.0,0.0,0.0,0.0,0.0,0.0,0.0,0.0,0.0,0.0,0.0,0.0,0.0,0.0,0.0,0.0,0.0,0.0,0.0,0.0,-3.3029,-3.3748,-3.4468,-3.4611,0.0,-2.7423,-2.2242,-2.118,-2.0716,0.0,0.0,0.0,0.0,0.0,0.0,0.0,-3.4226,-3.7953,-4.0628,-4.1799,-4.1891,-4.1655,-4.1216,-4.0506,-3.9587,-3.8306,-3.5873,-3.3074,-2.9883,-2.7996,0.0,0.0,0.0,0.0,0.0,0.0,0.0,0.0,0.0,0.0,0.0,0.0,0.0,0.0,0.0,0.0,0.0,0.0,0.0,0.0,0.0,0.0,0.0,0.0,0.0,0.0,0.0,0.0,0.0,-2.7136,-2.8677,-3.0376,-2.889,-2.81,0.0,0.0,0.0,0.0,0.0,0.0,0.0,0.0,0.0,-3.647,-3.6113,-3.6279,-3.7112,-3.6509,-3.5961,-3.5549,-3.5334,-3.5032,-3.4651,-3.5011,-3.519,-3.519,-3.519,-3.4241,-3.2513,-2.9909,-2.8074,-2.6805,0.0,0.0,0.0,0.0,-2.5646,-2.5771,-2.7882,-2.8653,0.0,0.0,0.0,0.0,0.0,0.0,0.0,0.0,0.0,0.0,0.0,0.0,0.0,-3.6021,-3.6551,-3.6547,-3.5589,-3.272,-2.9647,0.0,-2.6186,-2.4333,-2.0927,0.0,0.0,0.0,0.0,0.0,-3.7246,-4.0331,-4.2554,-4.3135,-4.299,-4.2803,-4.2559,-4.1767,-4.0916,-4.0063,-3.8449,-3.6699,-3.4939,-3.2331,-2.8995,0.0,0.0,0.0,0.0,0.0,0.0,0.0,0.0,0.0,0.0,0.0,0.0,0.0,0.0,0.0,0.0,0.0,0.0,0.0,0.0,0.0,0.0,0.0,0.0,0.0,0.0,0.0,0.0,-2.8933,-2.992,-3.138,-3.0873,-3.0491,0.0,0.0,0.0,0.0,0.0,0.0,-3.8406,-3.8464,-3.914,-4.062,-4.0121,-4.0358,-4.1474,-4.018,-3.9107,-3.8334,-3.7527,-3.6718,-3.5998,-3.6743,-3.7053,-3.7053,-3.7286,-3.7018,-3.6129,-3.3088,-3.1263,-3.0335,-2.9722,-2.9087,-2.8652,-2.9522,-2.9725,-2.9824,-3.157,-3.2343,-3.2407,-3.1749,0.0,-2.9248,-2.7574,0.0,0.0,0.0,0.0,-3.0805,-3.3152,-3.4629,-3.5848,-3.7315,-3.7793,-3.7739,-3.7009,-3.672,-3.5716,0.0,-3.1195,-2.9383,-2.6167,0.0,0.0,0.0,0.0,-3.842,-4.0464,-4.273,-4.4117,-4.408,-4.3823,-4.3606,-4.3329,-4.2508,-4.1867,-4.1481,-4.0332,-3.9424,-3.8891,-3.6123,-3.3367,-3.077,0.0,0.0,0.0,0.0,0.0,0.0,0.0,0.0,0.0,0.0,0.0,0.0,0.0,0.0,0.0,0.0,0.0,0.0,0.0,0.0,0.0,0.0,0.0,0.0,0.0,0.0,0.0,0.0,0.0,-3.4463,-3.488,0.0,0.0,0.0,0.0,-3.6754,-3.744,-3.8415,-3.9893,-3.9995,-4.0663,-4.2117,-4.2151,-4.2151,-4.2219,-4.1472,-4.0638,-3.9774,-3.8968,-3.8159,-3.7349,-3.819,-3.8582,-3.8646,-3.9468,-3.9422,-3.8539,-3.6223,-3.4498,-3.3365,-3.4083,-3.3939,-3.3377,-3.3411,-3.3813,-3.4347,-3.4331,-3.4739,-3.519,-3.4533,-3.2946,-3.1482,-3.1989,-3.1161,0.0,0.0,-3.4077,-3.4572,-3.6633,-3.7669,-3.8212,-3.8332,-3.8841,-3.9284,-3.9247,-3.871,-3.75,0.0,-3.5079,-3.4877,-3.2537,0.0,-3.5745,-3.6711,-3.8133,-4.0496,-4.4387,-4.5024,-4.502,-4.48,-4.4706,-4.432,-4.3369,-4.325,-4.318,-4.315,-4.2094,-4.1229,-4.0677,-3.9395,-3.6869,-3.301,-3.2261,0.0,0.0,0.0,0.0,0.0,0.0,0.0,0.0,0.0,0.0,0.0,0.0,0.0,0.0,0.0,0.0,0.0,0.0,0.0,0.0,0.0,0.0,0.0,0.0,0.0,0.0,0.0,0.0,-3.6055,-3.6636,0.0,0.0,-3.7196,-3.8428,-3.9587,-4.0796,-4.1914,-4.2929,-4.2997,-4.3234,-4.3768,-4.3267,-4.3031,-4.3031,-4.228,-4.151,-4.0707,-4.0442,-3.987,-3.9125,-3.9819,-4.0167,-4.0198,-4.0511,-4.0762,-4.086,-3.9566,-3.8215,-3.6931,-3.666,-3.6745,-3.6967,-3.6406,-3.6382,-3.6538,-3.6414,-3.6537,-3.6686,-3.6447,-3.5878,-3.5337,-3.5579,-3.5294,-3.5103,-3.6081,-3.6667,-3.7124,-3.7844,-3.8542,-3.917,-3.9589,-3.9858,-4.0157,-4.0576,-4.0487,-4.0033,-3.9132,-3.8186,-3.7198,-3.6066,-3.8435,-4.0254,-3.9462,-4.244,-4.5463,-4.7399,-4.7144,-4.6633,-4.6453,-4.544,-4.4396,-4.3369,-4.329,-4.329,-4.329,-4.29,-4.2621,-4.2425,-4.1624,-4.0195,-3.8073,-3.7005,-3.3155,0.0,0.0,0.0,0.0,0.0,0.0,0.0,0.0,0.0,0.0,0.0,0.0,0.0,0.0,0.0,0.0,0.0,0.0,0.0,0.0,0.0,0.0,0.0,0.0,0.0,0.0,-3.8026,-3.7238,-3.8643,-3.935,-3.8301,-4.0106,-4.1799,-4.2976,-4.4012,-4.4688,-4.4959,-4.4959,-4.4886,-4.4615,-4.4079,-4.3809,-4.3809,-4.3301,-4.2674,-4.1902,-4.1902,-4.1488,-4.0698,-4.1428,-4.1777,-4.1777,-4.2083,-4.2465,-4.289,-4.2385,-4.1766,-4.1063,-3.9711,-3.9519,-3.9909,-3.9029,-3.856,-3.831,-3.7966,-3.7849,-3.7883,-3.8185,-3.8253,-3.8315,-3.856,-3.8622,-3.8647,-3.8796,-3.9394,-3.9929,-3.9499,-3.9962,-4.0595,-4.071,-4.0726,-4.0846,-4.1294,-4.1602,-4.1752,-4.1752,-4.0457,-3.9506,-3.9808,-4.185,-4.3169,-4.2299,-4.5669,-4.8274,-4.8274,-4.8381,-4.82,-4.7478,-4.6422,-4.5342,-4.4365,-4.3366,-4.3084,-4.378,-4.3174,-4.296,-4.3299,-4.2598,-4.161,-4.0373,-3.8871,-3.5668,-3.0622,0.0,0.0,0.0,0.0,0.0,0.0,0.0,0.0,0.0,0.0,0.0,0.0,0.0,0.0,0.0,0.0,0.0,0.0,0.0,0.0,0.0,0.0,0.0,-3.7122,-3.8227,-3.895,-3.8305,-4.1175,-4.2747,-4.1645,-4.3965,-4.5901,-4.6727,-4.6786,-4.6481,-4.5771,-4.5737,-4.5399,-4.4682,-4.4649,-4.4615,-4.4615,-4.4615,-4.4184,-4.3353,-4.3353,-4.2925,-4.2109,-4.2956,-4.3353,-4.3413,-4.4241,-4.4649,-4.466,-4.4507,-4.496,-4.5515,-4.3186,-4.2268,-4.2209,-4.1302,-4.0574,-3.9842,-3.906,-3.8804,-3.8933,-3.9811,-4.0085,-4.0184,-4.0828,-4.1021,-4.1087,-4.1548,-4.2336,-4.2764,-4.1667,-4.2071,-4.252,-4.1648,-4.1452,-4.1452,-4.1482,-4.1991,-4.2479,-4.2479,-4.1978,-4.2095,-4.3852,-4.4189,-4.4594,-4.5673,-4.7699,0.0,-4.7124,-4.8781,-4.9446,-4.7737,-4.7539,-4.7174,-4.6215,-4.3497,-4.2718,-4.4725,-4.3029,-4.2345,-4.3358,-4.2487,-4.1243,-3.9697,-3.7865,-3.7033,-3.7246,0.0,0.0,0.0,0.0,0.0,0.0,0.0,0.0,0.0,0.0,0.0,0.0,0.0,0.0,0.0,0.0,0.0,0.0,0.0,0.0,0.0,0.0,-4.0762,-3.9395,-4.1891,-4.3739,-4.3465,-4.4818,-4.543,-4.4462,-4.5617,-4.6544,-4.6786,-4.6786,-4.6718,-4.6515,-4.6481,-4.6143,-4.5432,-4.5399,-4.5128,-4.4615,-4.4615,-4.4468,-4.427,-4.427,-4.4121,-4.3885,-4.4121,-4.427,-4.427,-4.4497,-4.5224,-4.6143,-4.5572,-4.6106,-4.7068,-4.4713,-4.4178,-4.4557,-4.3161,-4.2099,-4.1374,-4.1151,-4.1087,-4.1119,-4.1374,-4.1437,-4.1469,-4.1693,-4.1275,-4.0935,-4.1531,-4.1427,-4.1182,-4.1355,-4.1581,-4.1851,-4.2098,-4.2141,-4.2261,-4.2701,-4.3494,-4.412,-4.412,-4.4532,-4.5033,-4.5527,-4.6215,-4.7209,-4.8661,-4.9864,0.0,-5.0067,-5.0033,-4.9244,-4.7045,-4.6321,-4.5604,-4.4703,-4.3854,-4.4066,-4.5687,-4.5278,-4.5108,-4.5421,-4.5647,-4.5592,-4.5223,-4.1866,-3.9692,0.0,0.0,0.0,0.0,0.0,0.0,0.0,0.0,0.0,0.0,0.0,0.0,0.0,0.0,0.0,0.0,0.0,0.0,0.0,0.0,0.0,0.0,-4.0915,-4.2912,-4.2839,-4.473,-4.6132,-4.6052,-4.6754,-4.7046,-4.6553,-4.7255,-4.7699,-4.7699,-4.7699,-4.7597,-4.7293,-4.7259,-4.6786,-4.5737,-4.6007,-4.5805,-4.506,-4.506,-4.5196,-4.5529,-4.4919,-4.4784,-4.5026,-4.475,-4.4615,0.0,-4.4925,-4.5703,-4.6786,-4.6684,-4.7327,0.0,0.0,0.0,0.0,0.0,-4.3649,-4.2943,-4.3331,-4.3264,-4.3132,-4.3802,-4.3797,-4.36,-4.3926,-4.3453,-4.2945,-4.3512,-4.3629,-4.3513,-4.3454,-4.3682,-4.3884,-4.3495,-4.3601,-4.3789,-4.3738,-4.473,-4.5687,-4.5687,-4.678,0.0,-4.8132,-4.8158,-4.8464,-4.9468,-5.0777,-5.1217,-4.9999,-5.027,-4.991,-4.819,-4.7626,-4.7169,-4.6586,-4.544,0.0,0.0,0.0,-4.5666,-4.5958,-4.6039,0.0,0.0,0.0,-4.3459,-4.4165,0.0,0.0,0.0,-3.8427,-3.8279,0.0,0.0,0.0,0.0,0.0,0.0,0.0,0.0,0.0,0.0,0.0,0.0,0.0,0.0,0.0,0.0,-4.2954,-4.4979,-4.6519,-4.691,-4.7056,-4.7056,-4.7631,-4.8007,-4.8007,-4.8612,-4.9018,-4.9018,-4.9018,-4.8714,-4.8041,0.0,0.0,0.0,0.0,-4.6583,-4.5838,-4.5838,-4.6143,-4.6786,-4.5563,-4.5297,-4.594,-4.5331,-4.5055,-4.5021,-4.5669,-4.6312,-4.6955,-4.7631,-4.8311,-4.8883,-4.7564,-4.6989,-4.6832,-4.6065,-4.521,-4.4494,-4.5368,0.0,0.0,-4.6342,-4.6346,-4.594,-4.6583,-4.6287,-4.5782,-4.6347,-4.7032,-4.7387,-4.6465,-4.6799,-4.7036,-4.5374,-4.5428,-4.5657,-4.4819,-4.5979,-4.7223,-4.7223,-4.8723,-5.0185,-5.0947,-4.9986,-4.9194,-4.9468,-5.1183,-5.1454,-4.8615,-5.0035,-5.0947,-4.9965,0.0,0.0,-4.9965,-4.7546,-4.6572,-4.7803,-4.6208,-4.5571,-4.6302,-4.5604,-4.5824,-4.7149,-4.6604,-4.7825,-5.0975,-5.0283,-5.0789,-5.2171,-4.3143,-4.1764,0.0,0.0,0.0,0.0,0.0,0.0,0.0,0.0,0.0,0.0,0.0,0.0,0.0,0.0,0.0,-4.2248,-4.4964,-4.7045,-4.7375,-4.8084,-4.8578,-4.8578,-4.8714,-4.8781,-4.8781,-4.8917,-4.9018,-4.9018,-4.9018,-4.8951,-4.8815,-4.8781,0.0,-4.75,-4.7631,-4.7327,-4.6583,-4.6583,-4.665,-4.6786,0.0,0.0,-4.7466,-4.7936,-4.7834,-4.7293,-4.7398,-4.7564,-4.7699,-4.7838,-4.8311,-4.8984,-4.868,-4.8206,-4.7669,-4.7484,-4.6928,-4.627,-4.6484,-4.6477,-4.6406,-4.6722,-4.6684,-4.6616,-4.6752,-4.62,0.0,-4.632,-4.6094,-4.5822,-4.6121,-4.6314,-4.6384,-4.5996,-4.6466,-4.6939,-4.6755,-4.8027,-4.9224,-4.9224,-5.0157,-5.1159,-5.1899,-5.1798,-5.1831,-5.2537,-5.301,-5.2604,-5.0811,-5.1454,-5.1116,-4.8582,-4.8849,-4.9221,-4.9221,-4.8152,-4.8093,-4.9542,-4.9236,-4.9369,-5.0113,-5.0555,-5.1195,-5.2135,-5.1363,-5.1329,-5.2001,-5.1294,-5.1469,-5.2344,-5.0373,-5.1032,0.0,0.0,0.0,0.0,0.0,0.0,0.0,0.0,0.0,0.0,0.0,-3.7978,0.0,0.0,-4.2938,-4.4888,-4.6548,-4.777,-4.8225,-4.8702,-4.9018,-4.9018,-4.9018,-4.9018,-4.9018,-4.9018,-4.9018,-4.9018,-4.9018,-4.9018,-4.9018,-4.9018,-4.868,-4.7906,-4.8244,-4.8105,-4.7361,-4.7733,-4.8071,-4.8443,-4.8443,-4.8646,-4.9018,-4.9018,-4.8815,-4.8477,-4.8477,-4.8477,-4.8477,-4.8477,-4.868,-4.9052,-4.939,-4.9323,-4.9052,-4.9424,-4.9086,-4.8477,-4.8883,-4.8748,-4.8511,-4.8883,-4.8748,-4.8511,-4.8883,-4.8467,-4.7952,-4.8656,-4.853,-4.8265,-4.8595,-4.8693,-4.8592,-4.8113,-4.8527,-4.894,-4.8469,-4.9671,-5.0869,-5.0869,-5.1663,-5.2469,-5.2841,-5.2909,-5.3044,-5.345,-5.3518,-5.3078,-5.1928,-5.2063,-5.1758,-5.027,-5.0439,-5.0642,-5.0642,-4.9661,-4.9458,-5.0574,-5.0304,-5.0608,-5.1725,-5.2097,-5.2672,-5.3484,-5.3112,-5.2909,-5.2909,-5.2909,-5.3492,-5.4671,-5.5062,-5.5659,0.0,0.0,0.0,0.0,0.0,0.0,0.0,0.0,-3.7895,-3.9408,-3.9841,-4.0475,-4.2295,-4.3231,-4.4585,-4.7176,-4.777,-4.8161,-4.8892,-4.9018,-4.9018,-4.9018,-4.9018,-4.9018,-4.9018,-4.9018,-4.9018,-4.9018,-4.9018,-4.9018,-4.9018,-4.9018,-4.8748,-4.8108,-4.8714,-4.8714,-4.8108,-4.8849,-4.9492,-5.0101,-4.9796,-4.9965,-5.0507,-5.0067,-4.9796,-4.9627,-4.9357,-4.9221,-4.9187,-4.9052,-4.9086,-4.9289,-5.0033,-5.0405,-5.0574,-5.1048,-5.0845,-5.0405,-5.1014,-5.0907,-5.0655,-5.1235,-5.1123,-5.0837,-5.1298,-5.0997,-5.0626,-5.108,-5.1185,-5.1185,-5.1185,-5.1185,-5.0989,-5.0258,-5.0585,-5.0872,-5.0123,-5.1143,-5.2205,-5.2205,-5.2904,-5.3518,-5.3518,-5.3618,-5.3685,-5.3517,-5.3518,-5.3213,-5.2401,-5.2435,-5.2469,-5.2334,-5.2435,-5.2536,-5.2536,-5.1555,-5.1082,-5.142,-5.1014,-5.1217,-5.2266,-5.2469,-5.2909,-5.3687,-5.3721,-5.3788,-5.3923,-5.4532,-5.5606,-5.7133,-5.7777,-5.7938,0.0,0.0,0.0,-3.8898,-3.8654,-3.9131,0.0,0.0,-4.1748,-4.3691,-4.475,-4.5384,-4.5649,-4.6439,-4.7176,-4.7539,-4.8289,-4.8892,-4.9018,-4.9018,-4.9018,-4.9018,-4.9018,-4.9018,-4.9018,-4.9018,-4.9018,-4.9018,-4.9018,-4.9018,-4.9018,-4.9018,-4.8951,-4.8883,-4.8951,-4.8951,-4.8883,-4.9593,-4.9999,-5.0101,-5.1352,-5.1961,-5.2097,-5.2706,-5.2604,-5.186,-5.0541,-4.9965,-4.9932,-4.9255,-4.939,-5.0033,-5.0811,-5.1488,-5.1995,-5.142,-5.1151,-5.1116,-5.1183,-5.1589,-5.2156,-5.226,-5.266,-5.3007,-5.2433,-5.2226,-5.2011,-5.1407,-5.1185,-5.1185,-5.1185,-5.1185,-5.1185,-5.1088,-5.1595,-5.2101,-5.2001,-5.2674,-5.3314,-5.3314,-5.3416,-5.3518,-5.3518,-5.4042,-5.4264,-5.3584,-5.3518,-5.3213,-5.2401,-5.2909,-5.3078,-5.2367,-5.2942,-5.3382,-5.3382,-5.3822,-5.3551,-5.2266,-5.2773,-5.2875,-5.2334,-5.2976,-5.3721,-5.4465,-5.4465,-5.4803,-5.548,-5.5547,-5.6399,-5.7954,-5.806,-5.8796,-4.1878,0.0,0.0,0.0,-4.1351,-4.1698,-4.3085,-4.3174,-4.3299,-4.4533,-4.5561,-4.6349,-4.6902,-4.734,-4.777,0.0,-4.8767,-4.9018,-4.9018,-4.9018,-4.9018,-4.9018,-4.9018,-4.9018,-4.9018,-4.9018,-4.9018,-4.9018,-4.9018,-4.9018,-4.9018,-4.9018,-4.9018,-4.9018,-4.9018,-4.9221,-4.9627,-5.0371,-5.0947,-5.1386,-5.2469,-5.301,-5.301,-5.3348,-5.3078,-5.2266,-5.1657,-5.115,-5.071,-5.0405,-5.0473,-5.0811,-5.1555,-5.2029,-5.2334,-5.2503,-5.2536,-5.2536,-5.2536,-5.3053,-5.3667,-5.3667,-5.4168,-5.462,-5.3908,-5.3667,-5.3518,-5.2765,-5.2536,-5.2536,-5.2536,-5.2536,-5.2536,-5.2536,-5.2773,-5.301,-5.301,-5.3281,-5.3518,-5.3518,-5.3848,-5.4139,-5.4139,-5.4726,-5.5114,-5.4818,-5.4422,-5.3874,-5.3111,-5.3281,-5.3551,-5.3619,-5.4329,-5.4803,-5.4803,-5.4668,-5.4499,-5.4296,-5.4194,-5.4194,-5.4296,-5.46,-5.4938,-5.5243,-5.5243,-5.5412,-5.5681,-5.6577,-5.7649,-5.8828,-5.973,-6.0485,-4.2731,0.0,0.0,-4.2081,-4.2731,-4.3319,-4.3119,-4.3778,-4.4673,-4.543,-4.6346,-4.7172,-4.7868,-4.7966,0.0,-4.8892,-4.9018,-4.9018,-4.9018,-4.9018,-4.9018,-4.9018,-4.9018,-4.9018,-4.9018,-4.9018,-4.9018,-4.9018,-4.9018,-4.9018,-4.9018,-4.9018,-4.9018,-4.9018,-4.9187,-4.956,-5.0067,-5.1048,-5.1792,-5.23,-5.3112,-5.3518,-5.3518,-5.3518,-5.3179,-5.2638,-5.2401,-5.1995,-5.1488,-5.1252,-5.132,-5.1555,-5.2097,-5.2435,-5.2706,-5.3281,-5.3518,-5.3517,-5.3717,-5.4296,-5.4939,-5.5179,-5.5724,-5.6169,-5.5173,-5.4909,-5.4695,-5.375,-5.3518,-5.3518,-5.3518,-5.3518,-5.3518,-5.3518,-5.3518,-5.3518,-5.3518,-5.3518,-5.3551,-5.375,-5.4232,-5.4665,-5.4878,-5.5524,-5.5948,-5.5752,-5.5613,-5.5213,-5.4203,-5.4084,-5.4295,-5.4871,-5.5581,-5.6021,-5.6021,-5.5716,-5.5649,-5.5987,-5.5513,-5.5344,-5.5716,-5.5681,-5.5818,-5.6021,-5.6021,-5.6194,-5.6643,-5.7531,-5.8654,-5.9971,-6.0847,-6.1369,0.0,0.0,-4.0606,-4.1302,-4.2372,-4.3536,-4.4517,-4.5457,-4.6387,-4.734,-4.8257,-4.8923,-4.8923,-4.8954,-4.8987,-4.9018,-4.9018,-4.9018,-4.9018,-4.9018,-4.9018,-4.9018,-4.9018,-4.9018,0.0,-4.9018,-4.9018,-4.9018,-4.9018,-4.9018,-4.9018,-4.9018,-4.9018,-4.9018,-4.9695,-5.0067,-5.0101,-5.1522,-5.2266,-5.23,-5.3112,-5.3518,-5.3518,-5.3518,-5.3484,-5.3416,-5.2638,-5.23,-5.2198,-5.1488,-5.1623,-5.2266,-5.23,-5.2773,-5.3484,-5.3484,-5.3518,-5.3618,-5.4328,-5.5024,-5.5808,-5.6589,-5.7351,-5.7642,-5.6141,-5.5695,-5.535,-5.3913,-5.3518,-5.3518,-5.3518,-5.3518,-5.3518,-5.3518,-5.3518,-5.3518,-5.3518,-5.3518,-5.3717,-5.4419,-5.4572,-5.4818,-5.5552,-5.634,-5.6616,-5.5836,-5.7011,-5.7415,-5.5858,-5.5628,-5.5641,-5.5651,-5.6325,-5.6765,-5.6765,-5.7408,-5.7476,-5.6799,-5.6765,-5.6427,-5.5715,-5.5681,-5.6055,-5.6765,-5.6765,-5.7497,-5.8974,-5.8249,-5.912,-6.1504,-6.0782,-6.0861,0.0,0.0,-4.2521,-4.315,-4.3658,-4.4108,-4.4641,-4.5525,-4.6454,-4.7406,-4.8353,-4.9018,-4.9018,-4.9018,-4.9018,-4.9018,-4.9018,-4.9018,-4.9018,-4.9018,-4.9018,-4.9018,-4.9018,0.0,0.0,0.0,0.0,-4.9018,-4.9018,-4.9018,-4.9018,-4.9018,-4.9018,-4.9018,-4.9729,-5.0338,-5.0845,-5.1826,-5.257,-5.3112,-5.3382,-5.375,-5.42,-5.3717,-5.3783,-5.42,-5.3445,-5.3112,-5.3112,-5.3348,-5.3585,-5.389,-5.4352,-5.4716,-5.4952,-5.4965,-5.4969,-5.4939,-5.4665,-5.5408,-5.6563,-5.6835,-5.7401,-5.769,-5.6169,-5.5724,-5.5379,-5.3913,-5.3518,-5.3518,-5.3518,-5.3518,-5.3518,-5.3518,-5.3518,-5.3518,-5.3518,-5.3518,-5.3717,-5.4451,-5.4999,-5.5581,-5.6367,-5.7141,-5.7704,-5.7992,-5.7613,-5.7341,-5.7333,-5.7293,-5.7213,-5.7224,-5.7427,-5.7509,-5.7509,-5.7746,-5.778,-5.7543,-5.7509,-5.7408,-5.7171,-5.7171,-5.7273,-5.7509,-5.8047,-5.8599,-5.9111,-5.9924,-6.0769,-6.1632,-6.1875,-6.1846,0.0,-4.2671,-4.321,-4.4077,-4.4137,-4.4167,-4.5098,-4.5778,-4.6558,-4.7836,-4.8375,-4.8612,-4.8612,-4.8612,-4.8714,-4.8951,-4.9221,-4.939,-4.939,-4.939,-4.9289,-4.9052,-4.9018,0.0,0.0,0.0,0.0,-4.9018,-4.9018,-4.9018,-4.9018,-4.9018,-4.9018,-4.9018,-4.9965,-5.071,-5.1185,-5.2232,-5.2976,-5.3518,-5.3783,-5.4139,-5.4606,-5.4391,-5.4422,-5.4575,-5.4106,-5.3886,-5.3957,-5.4702,-5.5177,-5.5482,-5.5945,-5.6117,-5.6073,-5.5806,-5.5893,-5.6031,-5.5588,-5.6067,-5.6938,-5.7227,-5.7631,-5.769,-5.6169,-5.5724,-5.5379,-5.3913,-5.3518,-5.3518,-5.3518,-5.3518,-5.3585,-5.3822,-5.389,-5.3991,-5.4224,-5.429,-5.4615,-5.5624,-5.6234,-5.6895,-5.7964,-5.8697,-5.9472,-6.0469,-5.9627,-5.888,-5.9002,-5.891,-5.8749,-5.8449,-5.8393,-5.8244,-5.7918,-5.7881,-5.7881,-5.7881,-5.7881,-5.7881,-5.7881,-5.8173,-5.8317,-5.8386,-5.9145,-5.9841,-6.0442,-6.0941,-6.1634,-6.2485,-6.242,-6.2254,-4.2607,-4.25,-4.28,-4.4047,-4.3838,-4.3858,-4.5782,-4.6244,-4.6765,-4.8507,-4.8342,-4.7804,0.0,0.0,-4.8041,-4.8781,-4.9526,-5.0033,-5.0033,-5.0033,-4.9763,0.0,0.0,0.0,0.0,0.0,0.0,-4.9018,0.0,-4.9018,-4.9018,-4.9018,-4.9018,-4.9018,-5.0439,-5.1185,-5.1185,-5.2739,-5.3518,-5.3518,-5.4232,-5.4637,-5.4665,-5.5379,-5.532,-5.4634,-5.4703,-5.4714,-5.4737,-5.5598,-5.6397,-5.7016,-5.7005,-5.7043,-5.6936,-5.6156,-5.6349,-5.7036,-5.7072,-5.7036,-5.7065,-5.781,-5.8033,-5.7726,-5.6223,-5.5752,-5.5478,-5.4014,-5.3585,-5.3551,-5.3551,-5.3585,-5.3788,-5.4499,-5.4737,-5.494,-5.5623,-5.5816,-5.6278,-5.7801,-5.8182,-5.8729,-6.0188,-6.0885,-6.1644,-6.2899,-6.2721,-6.1974,-6.0719,-6.0512,-6.0146,-5.9306,-5.9246,-5.8909,-5.8063,-5.7954,-5.7954,-5.7881,-5.7881,-5.7952,-5.7988,-5.8737,-5.9248,-5.9351,-6.0164,-6.1313,-6.2795,-6.1307,-6.1795,-6.398,-6.2401,-6.2108,-4.3608,-4.3808,-4.4018,-4.4825,-4.4737,-4.4706,-4.5925,-4.673,-4.7276,-4.7353,-4.7192,-4.6752,0.0,0.0,0.0,-4.7327,-4.8443,0.0,-4.9289,-4.9289,0.0,0.0,0.0,-4.9018,-4.9018,-4.9018,0.0,0.0,-4.9018,-4.9018,-4.9018,-4.9018,-4.9018,-4.9018,-5.0439,-5.1185,-5.1185,-5.2739,-5.3518,-5.3518,-5.4232,-5.4909,-5.5437,-5.5638,-5.561,-5.5472,-5.6065,-5.6003,-5.5662,-5.7592,-5.8527,-5.8658,-5.8637,-5.8628,-5.8574,-5.8377,-5.8458,-5.8689,-5.9298,-5.8713,-5.786,-5.8624,-5.851,-5.7821,-5.6876,-5.6569,-5.6376,-5.541,-5.4733,-5.4329,-5.4329,-5.4766,-5.5255,-5.5428,-5.6387,-5.7158,-5.6675,-5.7087,-5.7694,-5.8016,-5.9358,-6.0544,-6.0921,-6.1422,-6.2033,-6.2954,-6.3013,-6.2888,-6.2826,-6.1886,-6.1212,-6.099,-6.0458,-5.9736,-5.8875,-5.8806,-5.8529,-5.7954,-5.7881,-5.8447,-5.9702,-5.9978,-6.066,-6.1841,-6.2688,-6.2983,-6.2795,-6.302,-6.3141,-6.3135,-6.2695,-6.2952,-4.4258,-4.4317,-4.4407,-4.4766,-4.4843,-4.4886,-4.5161,-4.5958,-4.6379,-4.5496,-4.5331,0.0,0.0,0.0,0.0,0.0,0.0,0.0,-4.9492,-4.9492,-4.9357,0.0,-4.9018,0.0,-4.9018,-4.9018,-4.9018,0.0,-4.9018,-4.9018,-4.9018,-4.9018,-4.9018,-4.9018,-5.0439,-5.1522,-5.2198,-5.3078,-5.3651,-5.3977,-5.4726,-5.5466,-5.6259,-5.658,-5.6733,-5.6795,0.0,-5.7397,-5.7482,-5.9141,-6.0003,-6.0311,-6.0276,-6.0248,-6.0191,-5.9871,-5.9735,-5.9832,-6.0639,-6.0089,-5.9061,-5.9148,-5.8914,-5.832,-5.7224,-5.7164,-5.727,-5.645,-5.621,-5.6173,-5.6173,-5.6488,-5.693,-5.7246,-5.7756,-5.8207,-5.8417,-5.8537,-5.8832,-5.9491,-6.1034,-6.2337,-6.2568,-6.2992,-6.3546,-6.4219,-6.4111,-6.404,-6.4238,-6.3214,-6.2266,-6.1651,-6.12,-6.061,-5.9736,-5.9671,-5.9615,-5.9529,-5.9495,-5.994,-6.0891,-6.128,-6.1725,-6.2254,-6.308,-6.3439,-6.3366,-6.3471,-6.3649,-6.3906,-6.3539,-6.3972,-4.4628,-4.4317,-4.4317,-4.4317,-4.4647,-4.4846,-4.4267,-4.4821,-4.5045,-4.3541,0.0,0.0,-4.117,0.0,-4.5432,-4.5534,0.0,-4.983,-4.9932,-4.9932,-4.9729,-4.9086,-4.9018,-4.9018,-4.9018,-4.9018,-4.9018,-4.9018,-4.9018,-4.9018,-4.9018,-4.9018,-4.9086,-4.9289,-5.0642,-5.2062,-5.3617,-5.3651,-5.4044,-5.4757,-5.5495,-5.6232,-5.6938,-5.7788,-5.8142,-5.8129,0.0,0.0,-5.9532,-6.0411,-6.1154,-6.1752,-6.1627,-6.1594,-6.152,-6.0823,-6.0566,-6.0676,-6.1484,-6.13,-6.0603,-5.9853,-5.9402,-5.8967,-5.7703,-5.7753,-5.8106,-5.7405,-5.7746,-5.8361,-5.8468,-5.8591,-5.8827,-5.9467,-5.9248,-5.9195,-6.0341,-6.0006,-5.9973,-6.1495,-6.2789,-6.385,-6.4313,-6.4871,-6.535,-6.5821,-6.5604,-6.5314,-6.5267,-6.4387,-6.3299,-6.2149,-6.2078,-6.1752,-6.096,-6.0869,-6.1122,-6.1734,-6.1663,-6.1694,-6.1925,-6.2485,-6.2599,-6.2095,-6.2793,-6.3466,-6.409,-6.3466,-6.3807,-6.5154,-6.453,-6.498,-4.4579,-4.4317,-4.4317,-4.4317,-4.5163,-4.5769,-4.508,-4.5304,0.0,0.0,0.0,-4.1136,-3.9648,0.0,0.0,-4.4654,0.0,0.0,0.0,0.0,-4.9154,0.0,0.0,0.0,0.0,0.0,0.0,0.0,0.0,-4.9018,-4.9018,-4.9018,-4.956,-5.0777,-5.1657,-5.2863,-5.4388,-5.4388,-5.4787,-5.5524,-5.6313,-5.6747,-5.6974,-5.8349,-5.8665,-5.8192,-6.0136,0.0,-6.0403,-6.1824,-6.2482,-6.2519,-6.1838,-6.1594,-6.1557,-6.1447,-6.1374,-6.152,-6.2328,-6.2511,-6.2328,-6.1945,-6.0654,-5.9241,-5.9434,-5.926,-5.8952,-5.8844,-5.8973,-5.9253,-5.9957,-6.0574,-6.1132,-6.124,-6.2187,-6.2756,-6.1615,-6.1274,-6.1446,-6.2413,-6.3519,-6.4275,-6.437,-6.5153,-6.5795,-6.5897,-6.6384,-6.6633,-6.6214,-6.5253,-6.451,-6.4267,-6.4499,-6.4312,-6.3466,-6.3379,-6.3149,-6.2612,-6.1982,-6.222,-6.3523,-6.3062,-6.3392,-6.4642,-6.4783,-6.4604,-6.409,-6.464,-6.4677,-6.431,-6.4861,-6.5829,-4.4057,-4.3768,-4.3768,-4.3768,-4.5315,-4.6067,-4.3381,0.0,0.0,0.0,0.0,-3.914,-3.8058,0.0,0.0,0.0,0.0,0.0,0.0,0.0,0.0,0.0,0.0,0.0,0.0,0.0,0.0,0.0,0.0,0.0,-4.9018,-4.9357,-5.0067,-5.1183,-5.1928,-5.303,-5.4572,-5.4606,-5.5208,-5.634,-5.6695,-5.7308,-5.8129,-5.8882,-5.9481,-5.9976,-6.1104,0.0,-6.2169,-6.2912,-6.3385,-6.3556,-6.2909,-6.2646,-6.26,-6.234,-6.2218,-6.2291,-6.2695,-6.299,-6.3331,-6.3871,-6.2316,-6.0226,-6.0534,-6.0707,-6.0848,-6.1011,-6.1715,-6.251,-6.2908,-6.3136,-6.3321,-6.3321,-6.3578,-6.3497,-6.2276,-6.2129,-6.2426,-6.3094,-6.3871,-6.4614,-6.532,-6.6039,-6.6667,-6.7128,-6.7513,-6.7678,-6.7458,-6.7113,-6.665,-6.5974,-6.6036,-6.5831,-6.5161,-6.5085,-6.4799,-6.4129,-6.3747,-6.3671,-6.403,-6.3665,-6.3643,-6.3991,-6.4457,-6.4494,-6.409,-6.4897,-6.5338,-6.5338,-6.6026,-6.7053,-4.3615,-4.329,-4.329,-4.329,-4.5315,-4.6223,-4.2031,-4.2737,0.0,0.0,0.0,-3.755,-3.711,0.0,0.0,0.0,0.0,0.0,0.0,0.0,0.0,0.0,0.0,0.0,0.0,0.0,0.0,0.0,0.0,0.0,-4.9221,-4.9932,-5.0676,-5.142,-5.2326,-5.3455,-5.4818,-5.4999,-5.5858,-5.7369,-5.7369,-5.8116,-5.9441,-5.9625,-6.0454,-6.1774,-6.1958,0.0,0.0,-6.3766,-6.4036,-6.4351,-6.3954,-6.3702,-6.3565,-6.3121,-6.2904,-6.278,-6.278,-6.3255,-6.4075,-6.5233,-6.3761,-6.1582,-6.1931,-6.2245,-6.2577,-6.3026,-6.4216,-6.5472,-6.5805,-6.5571,-6.5185,-6.5036,-6.4364,-6.3579,-6.2965,-6.2895,-6.3194,-6.3882,-6.4362,-6.5066,-6.6445,-6.7051,-6.7628,-6.8321,-6.8552,-6.8667,-6.8667,-6.9168,-6.912,-6.8144,-6.7638,-6.7248,-6.6805,-6.6687,-6.6425,-6.5999,-6.5709,-6.5264,-6.464,-6.4457,-6.4127,-6.3613,-6.4273,-6.4604,-6.4604,-6.5411,-6.6035,-6.6539,-6.7221,-6.8159,-4.378,-4.329,-4.329,-4.329,-4.5315,-4.6493,-4.3313,0.0,0.0,0.0,-3.7797,-3.71,-3.7686,-3.9174,0.0,0.0,0.0,0.0,0.0,0.0,0.0,0.0,0.0,0.0,0.0,0.0,0.0,0.0,0.0,0.0,-5.0028,-5.071,-5.1454,-5.2198,-5.3621,-5.4778,-5.561,-5.6313,-5.7453,-5.9003,-5.9003,-5.943,-6.0309,-6.1043,-6.1744,-6.2374,-6.3096,0.0,0.0,-6.4313,-6.437,-6.4407,-6.437,-6.4036,-6.3571,-6.3565,-6.3215,-6.278,-6.278,-6.3648,-6.4881,-6.5421,-6.4389,-6.3161,-6.4448,-6.3975,-6.3182,-6.403,-6.4915,-6.5913,-6.7457,-6.7213,-6.6442,-6.5706,-6.4897,-6.4313,-6.4238,-6.3838,-6.3904,-6.5158,-6.5445,-6.5916,-6.7262,-6.7918,-6.8321,-6.8385,-6.909,-6.959,-6.959,-7.0948,-7.1842,-7.1737,-7.0149,-6.9066,-6.9005,-6.8571,-6.8264,-6.8217,-6.7059,-6.6366,-6.6292,-6.5595,-6.5521,-6.6145,-6.6219,-6.6292,-6.6292,-6.7063,-6.7136,-6.6539,-6.7814,-6.8721,-4.4046,-4.3888,-4.4178,-4.5187,-4.636,-4.649,-4.3612,0.0,0.0,-3.8312,-3.7187,-3.7032,-3.7753,-3.9082,-4.0671,0.0,0.0,0.0,0.0,0.0,0.0,0.0,0.0,0.0,0.0,0.0,0.0,0.0,0.0,0.0,-5.2027,-5.1942,-5.1999,-5.2266,-5.3788,-5.4969,-5.5695,-5.6967,-5.8148,-5.9184,-5.9685,-6.0346,-6.1141,-6.1777,-6.2443,-6.3168,-6.3804,0.0,0.0,-6.4816,-6.5003,-6.5284,-6.4954,-6.4696,-6.4481,-6.4178,-6.3745,-6.3391,-6.4218,-6.4833,-6.557,-6.7085,-6.6995,-6.6231,-6.5985,-6.5482,-6.5148,-6.5672,-6.6427,-6.7313,-6.852,-6.8414,-6.787,-6.7414,-6.6788,-6.6336,-6.6336,-6.5937,-6.5837,-6.6628,-6.6792,-6.7402,-6.9268,-6.9764,-7.009,-7.0591,-7.0975,-7.1206,-7.1206,-7.1321,-7.1629,-7.2129,-7.1965,-7.1693,-7.1331,-7.063,-6.9738,-6.8544,-6.7553,-6.6839,-6.6502,-6.6182,-6.6402,-6.721,-6.721,-6.721,-6.721,-6.754,-6.754,-6.7237,-6.8111,-6.8795,-4.4339,-4.4258,-4.4369,-4.5773,-4.6523,-4.6234,0.0,0.0,0.0,-3.8043,-3.7047,-3.71,-3.8058,-3.9073,-4.0257,0.0,0.0,0.0,0.0,0.0,0.0,0.0,0.0,0.0,0.0,0.0,0.0,0.0,0.0,0.0,0.0,-5.3331,-5.3187,-5.2995,-5.4049,-5.4969,-5.5695,-5.729,-5.8573,-5.9551,-6.0382,-6.119,-6.1985,-6.2509,-6.3142,-6.3871,0.0,0.0,0.0,-6.5321,-6.5556,-6.5872,-6.5475,-6.5245,-6.5067,-6.4713,-6.4425,-6.4325,-6.5272,-6.605,-6.684,-6.8388,-6.9023,-6.8921,-6.7744,-6.6988,-6.6681,-6.7469,-6.8408,-6.9319,-6.9681,-6.9586,-6.9322,-6.8907,-6.8321,-6.786,-6.786,-6.7445,-6.7385,-6.8394,-6.8454,-6.9075,-7.1304,-7.1668,-7.1898,-7.2476,-7.2591,-7.2591,-7.2591,-7.2245,-7.2168,-7.2552,-7.3591,-7.3667,-7.2237,-7.1668,-7.0819,-6.9439,-6.8884,-6.8479,-6.8062,-6.7911,-6.8144,-6.8927,-6.8589,-6.8345,-6.8299,-6.8125,-6.7907,-6.7714,-6.8259,-6.8869,-4.4662,-4.4082,-4.3469,-4.4167,-4.5277,-4.5594,0.0,0.0,-4.1677,-3.9445,-3.7821,-3.7269,-3.87,-3.9005,-3.9478,-4.0967,0.0,0.0,0.0,0.0,0.0,0.0,0.0,0.0,0.0,0.0,0.0,0.0,0.0,0.0,0.0,-5.4835,-5.533,-5.4568,-5.4572,-5.4969,-5.5695,-5.729,-5.8863,-6.0419,-6.119,-6.1998,-6.2805,-6.334,-6.3855,0.0,0.0,0.0,0.0,-6.5897,-6.5897,-6.5897,-6.5897,-6.5569,-6.5099,-6.5099,-6.5314,-6.5596,-6.5596,-6.7027,-6.8869,-6.8908,-6.9804,-7.0706,-6.9898,-6.8475,-6.7436,-6.9192,-7.0846,-7.1962,-7.1115,-7.0885,-7.0667,-6.9898,-6.9,-6.8385,-6.8385,-6.7989,-6.8257,-7.0445,-7.0494,-7.0888,-7.3097,-7.3476,-7.3462,-7.35,-7.35,-7.35,-7.35,-7.4168,-7.4361,-7.3591,-7.4976,-7.4591,-7.1206,-7.122,-7.1391,-7.1391,-7.1597,-7.1731,-7.1731,-7.1214,-7.1205,-7.1744,-7.0645,-6.9948,-6.9679,-6.9173,-6.8495,-6.7714,-6.8259,-6.9085,-4.2443,-4.2308,-4.2234,-4.3111,-4.3674,-4.3746,-4.2675,0.0,-4.1068,-3.9343,-3.8633,-3.8454,-3.8903,-3.9005,-3.9817,-4.232,0.0,0.0,0.0,0.0,0.0,0.0,0.0,0.0,0.0,0.0,0.0,0.0,0.0,0.0,0.0,-5.5412,-5.5357,-5.4634,-5.5084,-5.5466,-5.5724,-5.7855,-5.9434,-6.0419,-6.1777,-6.2548,-6.283,-6.3745,0.0,0.0,0.0,0.0,0.0,-6.5897,-6.5897,-6.5936,-6.6513,-6.6602,-6.6546,-6.716,-6.7179,-6.7085,-6.8066,-6.8616,-6.9033,-6.9964,-7.0969,-7.1745,-7.1475,-7.0206,-6.9143,-7.039,-7.1865,-7.307,-7.294,-7.2328,-7.1706,-7.1475,-7.0744,-7.0129,-7.0129,-7.0431,-7.0964,-7.1654,-7.216,-7.2846,-7.4101,-7.386,-7.3707,-7.4245,-7.386,-7.3707,-7.4245,-7.4053,-7.4014,-7.4284,-7.4322,-7.4091,-7.3553,-7.359,-7.3482,-7.3122,-7.2619,-7.2452,-7.26,-7.2445,-7.246,-7.2612,-7.1734,-7.0761,-6.9703,-6.8964,-6.8306,-6.7741,-6.8614,-6.9231,0.0,-4.1399,-4.137,-4.2552,-4.2509,0.0,0.0,0.0,0.0,-3.958,-3.8971,-3.8667,-3.8937,-3.8928,-3.9477,-4.1433,-4.1486,0.0,0.0,0.0,0.0,0.0,0.0,0.0,0.0,0.0,0.0,0.0,0.0,0.0,0.0,-5.6197,-5.6243,-5.5495,-5.535,-5.5437,-5.5724,-5.7795,-5.9391,-6.0419,-6.2034,-6.2929,-6.3121,-6.3978,0.0,0.0,0.0,0.0,0.0,-6.6705,-6.6859,-6.6898,-6.7398,-6.759,-6.7667,-6.8205,-6.8416,-6.851,-6.9393,-6.9913,-7.0287,-7.1137,-7.2032,-7.2803,-7.2803,-7.207,-7.1309,-7.1616,-7.265,-7.3728,-7.3767,-7.3296,-7.2752,-7.2696,-7.2283,-7.1898,-7.1898,-7.2322,-7.2783,-7.3091,-7.3591,-7.4207,-7.5053,-7.4514,-7.413,-7.463,-7.4284,-7.4014,-7.4207,-7.4091,-7.3899,-7.3783,-7.386,-7.4053,-7.4245,-7.4553,-7.4566,-7.42,-7.3992,-7.3951,-7.4143,-7.3629,-7.3306,-7.3212,-7.1971,-7.0835,-6.9858,-6.9153,-6.8614,-6.8296,-6.921,-6.9607,0.0,0.0,0.0,0.0,0.0,0.0,0.0,0.0,0.0,0.0,-3.8971,-3.8261,-3.8937,-3.8859,-3.8825,-3.9238,-3.9658,0.0,0.0,0.0,0.0,0.0,0.0,0.0,0.0,0.0,0.0,0.0,0.0,0.0,0.0,-5.7152,-5.7679,-5.6912,-5.553,-5.5119,-5.5851,-5.7462,-5.9014,-6.0493,-6.2096,-6.3097,-6.3593,-6.4178,0.0,0.0,0.0,0.0,0.0,-6.7975,-6.8346,-6.8398,-6.8475,-6.8513,-6.85,-6.8552,-6.9129,-6.9898,-6.9898,-7.0937,-7.2297,-7.2325,-7.3032,-7.3935,-7.3974,-7.3974,-7.3752,-7.288,-7.3337,-7.4055,-7.3946,-7.3809,-7.3701,-7.3625,-7.3567,-7.3514,-7.3514,-7.3538,-7.3822,-7.4553,-7.4745,-7.5014,-7.5784,-7.5207,-7.463,-7.463,-7.4553,-7.4284,-7.3591,-7.4168,-7.4014,-7.2437,-7.3707,-7.4322,-7.3553,-7.4284,-7.4784,-7.4784,-7.5553,-7.6015,-7.6015,-7.4681,-7.3806,-7.35,-7.1501,-7.0346,-7.0112,-6.9569,-6.9313,-6.9313,-6.9847,-7.0112,0.0,0.0,0.0,0.0,0.0,0.0,0.0,0.0,0.0,0.0,0.0,0.0,0.0,0.0,0.0,0.0,0.0,0.0,0.0,0.0,0.0,0.0,0.0,0.0,0.0,0.0,0.0,0.0,0.0,0.0,0.0,-5.7446,-5.7679,-5.6912,-5.6563,-5.6743,-5.7505,-5.8565,-5.9822,-6.1337,-6.2757,-6.3476,-6.3615,-6.4536,0.0,0.0,0.0,0.0,-6.7128,-6.7321,-6.7782,-6.8475,-6.9129,-6.9398,-6.9475,-7.009,-7.086,-7.1591,-7.1591,-7.2322,-7.321,-7.3314,-7.4063,-7.5082,-7.5735,-7.5463,-7.4802,-7.4082,-7.4437,-7.5001,-7.5135,-7.4444,-7.3872,-7.4502,-7.4064,-7.3514,-7.3514,-7.3976,-7.4476,-7.4668,-7.5245,-7.5553,-7.5091,-7.4322,-7.3783,-7.3783,-7.3206,-7.2976,-7.3437,-7.3668,-7.363,-7.3245,-7.3553,-7.3707,-7.3514,-7.4861,-7.5707,-7.5707,-7.5899,-7.6015,-7.6015,-7.5042,-7.4181,-7.35,-7.1336,-7.0144,-7.0112,-6.9569,-6.9313,-6.9313,-6.9847,-7.0112,0.0,0.0,0.0,0.0,0.0,0.0,0.0,0.0,0.0,0.0,0.0,0.0,0.0,0.0,0.0,0.0,0.0,0.0,0.0,0.0,0.0,0.0,0.0,0.0,0.0,0.0,0.0,0.0,0.0,0.0,0.0,-5.7556,-5.7797,-5.7425,-5.7764,-5.7978,-5.8093,-5.8914,-6.0051,-6.1618,-6.2969,-6.3723,-6.4016,-6.5183,-6.5818,0.0,0.0,0.0,-6.8321,-6.8706,-6.9129,-6.959,-7.0052,-7.0475,-7.0898,-7.1321,-7.2052,-7.2783,-7.2783,-7.3162,-7.3765,-7.4722,-7.5237,-7.5652,-7.6939,-7.679,-7.617,-7.6099,-7.6135,-7.6088,-7.5709,-7.5107,-7.467,-7.5038,-7.4956,-7.4771,-7.4771,-7.5064,-7.5327,-7.5427,-7.58,-7.589,-7.5105,-7.4276,-7.3574,-7.3111,-7.2635,-7.2315,-7.2297,-7.2668,-7.2745,-7.236,-7.2668,-7.2899,-7.2899,-7.4091,-7.4861,-7.4861,-7.4861,-7.4861,-7.4861,-7.4014,-7.3168,-7.2322,-7.1083,-7.0478,-7.0478,-7.02,-7.0044,-7.0044,-7.033,-7.0478,0.0,0.0,0.0,0.0,0.0,0.0,0.0,0.0,0.0,0.0,0.0,0.0,0.0,0.0,0.0,0.0,0.0,0.0,0.0,0.0,0.0,0.0,0.0,0.0,0.0,0.0,0.0,0.0,0.0,0.0,0.0,-5.7629,-5.7997,-5.7997,-5.8804,-5.8945,-5.8466,-5.9253,-6.0373,-6.1802,-6.3096,-6.4012,-6.4634,-6.5939,-6.6801,0.0,0.0,0.0,-6.9744,-7.0437,-7.0783,-7.0898,-7.0898,-7.1437,-7.2206,-7.2206,-7.2822,-7.3707,-7.3878,-7.4045,-7.444,-7.5952,-7.6186,-7.6119,-7.7606,-7.7758,-7.7538,-7.8091,-7.7641,-7.6796,-7.5868,-7.5606,-7.5564,-7.5502,-7.5913,-7.6245,-7.6084,-7.5928,-7.5821,-7.5879,-7.5896,-7.5681,-7.502,-7.4279,-7.3488,-7.2473,-7.2326,-7.1977,-7.1056,-7.1555,-7.1706,-7.0975,-7.1552,-7.2014,-7.2014,-7.2783,-7.3322,-7.3322,-7.3437,-7.3437,-7.3322,-7.2591,-7.1783,-7.0937,-7.0898,-7.0898,-7.0898,-7.0898,-7.0898,-7.0898,-7.0898,-7.0898,0.0,0.0,0.0,0.0,0.0,0.0,0.0,0.0,0.0,0.0,0.0,0.0,0.0,0.0,0.0,0.0,0.0,0.0,0.0,0.0,0.0,0.0,0.0,0.0,0.0,0.0,0.0,0.0,0.0,0.0,0.0,0.0,-5.7997,-5.7997,-5.8804,-5.9467,-6.0054,-6.0823,-6.1715,-6.2622,-6.3734,-6.469,-6.5445,-6.6506,-6.7422,0.0,0.0,-6.9013,-6.9706,-6.9821,-7.0283,-7.0898,-7.0898,-7.1437,-7.2206,-7.2206,-7.3168,-7.4634,-7.5553,-7.6121,-7.6327,-7.5911,-7.6292,-7.699,-7.7264,-7.7812,-7.832,-7.8436,-7.7304,-7.6054,-7.5897,-7.5718,-7.5721,-7.6274,-7.6331,-7.6061,-7.5129,-7.4942,-7.4728,-7.4215,-7.4115,-7.3888,-7.3231,-7.2988,-7.2631,-7.1792,-7.1511,-7.1355,-7.1197,-7.112,-7.1052,-7.0898,-7.1014,-7.1091,-7.1091,-7.1898,-7.2399,-7.2399,-7.3091,-7.3168,-7.2437,-7.2283,-7.1783,-7.0937,-7.0898,-7.0898,-7.0898,-7.0898,-7.0898,-7.0898,-7.0898,-7.0898,-3.8531,-4.029,0.0,0.0,0.0,0.0,0.0,0.0,0.0,0.0,0.0,0.0,0.0,0.0,0.0,0.0,0.0,0.0,0.0,0.0,0.0,0.0,0.0,0.0,0.0,0.0,0.0,0.0,0.0,0.0,0.0,0.0,-5.7997,-5.7997,-5.9208,-6.0052,-6.0419,-6.163,-6.2573,-6.3262,-6.4019,-6.4972,-6.6091,-6.7266,-6.8282,-6.9129,0.0,-6.9975,-7.036,-7.036,-7.0821,-7.1591,-7.1591,-7.2399,-7.3591,-7.4091,-7.4794,-7.5669,-7.6264,-7.6359,-7.6227,-7.6421,-7.648,-7.668,-7.7617,-7.7851,-7.789,-7.8359,-7.793,-7.7187,-7.6719,-7.652,-7.6542,-7.6861,-7.6313,-7.5623,-7.5118,-7.4513,-7.4025,-7.3908,-7.3864,-7.3814,-7.3743,-7.3729,-7.3555,-7.311,-7.2457,-7.2043,-7.191,-7.1311,-7.0898,-7.0898,-7.1321,-7.1591,-7.1591,-7.2399,-7.2899,-7.2899,-7.2822,-7.2629,-7.2206,-7.1745,-7.1514,-7.1591,-7.1129,-7.1129,-7.1591,-7.1129,-7.0898,-7.0898,-7.0898,-7.1168,-3.8903,-4.029,0.0,0.0,0.0,0.0,0.0,0.0,0.0,0.0,0.0,0.0,0.0,0.0,0.0,0.0,0.0,0.0,0.0,0.0,0.0,0.0,0.0,0.0,0.0,0.0,0.0,0.0,0.0,0.0,0.0,0.0,-5.8107,-5.829,-5.9648,-6.0493,-6.0676,-6.2217,-6.3191,-6.3631,-6.4326,-6.5363,-6.6717,-6.8081,-6.9167,-7.0014,-7.0629,-7.0898,-7.0937,-7.1129,-7.1645,-7.2289,-7.244,-7.3399,-7.4822,-7.5668,-7.6147,-7.6429,-7.6762,-7.6487,-7.6139,-7.7185,-7.6914,-7.6445,-7.7773,-7.7734,-7.7344,-7.8008,-7.8203,-7.8047,-7.7383,-7.7187,-7.7187,-7.7145,-7.6197,-7.5252,-7.5012,-7.4022,-7.3305,-7.3659,-7.3703,-7.3926,-7.4488,-7.4609,-7.4568,-7.4384,-7.367,-7.3101,-7.2949,-7.2158,-7.162,-7.1583,-7.2187,-7.261,-7.2759,-7.3399,-7.386,-7.4091,-7.3091,-7.2514,-7.2514,-7.186,-7.1822,-7.2476,-7.186,-7.1745,-7.2206,-7.1514,-7.1091,-7.0898,-7.1091,-7.1552,-4.1914,-4.2625,-4.2557,-4.4073,0.0,0.0,0.0,0.0,0.0,0.0,0.0,0.0,0.0,0.0,0.0,0.0,0.0,0.0,0.0,0.0,0.0,0.0,0.0,0.0,0.0,0.0,0.0,0.0,0.0,0.0,0.0,0.0,0.0,-5.9074,-5.9942,-6.075,-6.152,-6.2886,-6.3587,-6.3631,-6.489,-6.6197,-6.7572,-6.8963,-7.0052,-7.0821,-7.086,-7.0898,-7.0975,-7.1783,-7.2263,-7.2534,-7.315,-7.3937,-7.4822,-7.5668,-7.6254,-7.6684,-7.7516,-7.748,-7.7226,-7.8125,-7.7812,-7.7148,-7.7265,-7.7265,-7.7226,-7.7265,-7.7305,-7.7265,-7.7226,-7.7187,-7.7147,-7.6987,-7.6097,-7.502,-7.4112,-7.3058,-7.2417,-7.2812,-7.2892,-7.3269,-7.441,-7.4609,-7.4609,-7.457,-7.4347,-7.418,-7.4172,-7.3943,-7.372,-7.3594,-7.365,-7.3914,-7.4466,-7.4591,-7.4976,-7.5784,-7.4322,-7.3399,-7.3399,-7.336,-7.336,-7.3399,-7.336,-7.2937,-7.2206,-7.2129,-7.1668,-7.0937,-7.1745,-7.2129,-4.2029,-4.3057,-4.3552,-4.3789,0.0,0.0,0.0,0.0,0.0,0.0,0.0,0.0,0.0,0.0,0.0,0.0,0.0,0.0,0.0,0.0,0.0,0.0,0.0,0.0,0.0,0.0,0.0,0.0,0.0,0.0,0.0,0.0,0.0,-5.9942,-6.075,-6.1777,-6.3135,-6.4452,-6.5319,-6.5581,-6.5915,-6.7082,-6.8935,-6.9446,-7.0129,-7.0898,-7.0898,-7.1206,-7.1745,-7.2052,-7.2932,-7.4126,-7.4931,-7.5425,-7.5811,-7.6673,-7.7165,-7.746,-7.7919,-7.8041,-7.7969,-7.7773,-7.7461,-7.7187,-7.7187,-7.7187,-7.7109,-7.6523,-7.6797,-7.707,-7.6523,-7.6797,-7.6913,-7.5734,-7.5492,-7.5211,-7.4299,-7.3706,-7.3407,-7.3665,-7.3739,-7.4102,-7.5194,-7.539,-7.5545,-7.5955,-7.5501,-7.507,-7.4951,-7.4379,-7.3961,-7.3923,-7.4315,-7.4827,-7.5466,-7.5515,-7.5668,-7.5976,-7.4899,-7.4245,-7.4245,-7.3783,-7.3745,-7.4245,-7.3745,-7.3591,-7.3745,-7.3245,-7.286,-7.2514,-7.286,-7.3283,-4.2717,-4.3712,-4.4604,0.0,0.0,0.0,0.0,0.0,0.0,0.0,0.0,0.0,0.0,0.0,0.0,0.0,0.0,0.0,0.0,0.0,0.0,0.0,0.0,0.0,0.0,0.0,0.0,0.0,0.0,0.0,0.0,0.0,0.0,0.0,-6.1961,-6.3062,-6.4457,-6.57,-6.6629,-6.7219,-6.7359,-6.8239,-6.9706,-6.9975,-7.0398,-7.0937,-7.1206,-7.1629,-7.2245,-7.2783,-7.3961,-7.5503,-7.6525,-7.6854,-7.6905,-7.7758,-7.8068,-7.8057,-7.8456,-7.8376,-7.8047,-7.7695,-7.7422,-7.7148,-7.6875,-7.6797,-7.668,-7.6055,-7.6328,-7.664,-7.6055,-7.6562,-7.6914,-7.5703,-7.5491,-7.5443,-7.4857,-7.4338,-7.4158,-7.4605,-7.4701,-7.5038,-7.6132,-7.6248,-7.6351,-7.6812,-7.6376,-7.5963,-7.583,-7.5357,-7.4962,-7.4813,-7.5187,-7.5562,-7.5967,-7.6015,-7.6015,-7.6015,-7.5438,-7.513,-7.513,-7.4591,-7.4553,-7.5091,-7.4591,-7.4437,-7.4707,-7.4168,-7.3745,-7.3514,-7.3783,-7.4168,-4.4426,-4.4905,0.0,0.0,0.0,0.0,0.0,0.0,0.0,0.0,0.0,0.0,0.0,0.0,0.0,0.0,0.0,0.0,0.0,0.0,0.0,0.0,0.0,0.0,0.0,0.0,0.0,0.0,0.0,0.0,0.0,0.0,0.0,0.0,-6.3649,-6.4494,-6.5338,-6.6303,-6.7257,-6.8127,-6.9192,-6.9706,-6.9744,-7.0552,-7.0898,-7.0975,-7.1822,-7.2206,-7.236,-7.4053,-7.535,-7.6426,-7.7724,-7.8101,-7.8037,-7.89,-7.877,-7.8327,-7.9108,-7.8415,-7.7344,-7.8203,-7.789,-7.7031,-7.6133,-7.5898,-7.5898,-7.5898,-7.5898,-7.5898,-7.5898,-7.6562,-7.7187,-7.7187,-7.639,-7.5602,-7.5602,-7.4772,-7.4359,-7.5428,-7.5602,-7.5977,-7.703,-7.7048,-7.6919,-7.6915,-7.6919,-7.6919,-7.6919,-7.7096,-7.7052,-7.6663,-7.6429,-7.6219,-7.6005,-7.6015,-7.6015,-7.6015,-7.6015,-7.6015,-7.6015,-7.6015,-7.6015,-7.6015,-7.6015,-7.5592,-7.4707,-7.4707,-7.4322,-7.3538,-7.4361,-7.4707,-4.3155,0.0,0.0,0.0,0.0,0.0,0.0,0.0,0.0,0.0,0.0,0.0,0.0,0.0,0.0,0.0,0.0,0.0,0.0,0.0,0.0,0.0,0.0,0.0,0.0,0.0,0.0,0.0,0.0,0.0,0.0,0.0,0.0,0.0,-6.453,-6.5789,-6.7518,-6.8222,-6.8868,-6.9541,-7.0209,-7.0552,-7.0552,-7.0783,-7.1245,-7.1822,-7.2091,-7.286,-7.4095,-7.6123,-7.7135,-7.754,-7.8623,-7.901,-7.8979,-7.9252,-7.9197,-7.904,-7.8813,-7.8474,-7.7969,-7.6992,-7.6484,-7.6133,-7.5234,-7.539,-7.5781,-7.5156,-7.5859,-7.668,-7.6055,-7.6562,-7.6875,-7.5664,-7.6053,-7.6557,-7.5932,-7.6041,-7.6349,-7.6673,-7.6713,-7.7027,-7.7969,-7.7905,-7.7901,-7.839,-7.8579,-7.8696,-7.8858,-7.8436,-7.795,-7.7566,-7.6918,-7.6361,-7.6034,-7.6015,-7.6015,-7.6015,-7.6015,-7.6015,-7.6015,-7.6015,-7.6015,-7.6015,-7.6015,-7.5861,-7.563,-7.563,-7.5476,-7.5245,-7.5515,-7.563,-4.6261,0.0,0.0,0.0,0.0,0.0,0.0,0.0,0.0,0.0,0.0,0.0,0.0,0.0,0.0,0.0,0.0,0.0,0.0,0.0,0.0,0.0,0.0,0.0,0.0,0.0,0.0,0.0,0.0,0.0,0.0,0.0,0.0,0.0,-6.5668,-6.6997,-6.8511,-6.9021,-6.9569,-7.0112,-7.0637,-7.1091,-7.1398,-7.1398,-7.1898,-7.2745,-7.3053,-7.4168,-7.5841,-7.7302,-7.8107,-7.8486,-7.958,-7.9816,-7.9543,-7.9894,-7.9621,-7.9001,-7.8631,-7.8047,-7.7305,-7.625,-7.5664,-7.5273,-7.4765,-7.4961,-7.5351,-7.5156,-7.5859,-7.664,-7.6445,-7.6797,-7.6953,-7.5898,-7.6445,-7.707,-7.6523,-7.6836,-7.7305,-7.7656,-7.7734,-7.7969,-7.8828,-7.8702,-7.8648,-7.9049,-7.9202,-7.9349,-7.9551,-7.9216,-7.8855,-7.8514,-7.7955,-7.7338,-7.6688,-7.6577,-7.6361,-7.6015,-7.6015,-7.6015,-7.6015,-7.6015,-7.6015,-7.6015,-7.6015,-7.6015,-7.6015,-7.6015,-7.6015,-7.6015,-7.6015,-7.6015,0.0,0.0,0.0,0.0,0.0,0.0,0.0,0.0,0.0,0.0,0.0,0.0,0.0,0.0,0.0,0.0,0.0,0.0,0.0,0.0,0.0,0.0,0.0,0.0,0.0,0.0,0.0,0.0,0.0,0.0,0.0,0.0,0.0,0.0,-6.688,-6.7982,-6.8581,-6.9064,-6.9645,0.0,-7.0782,-7.1514,-7.2399,-7.2283,-7.2706,-7.3654,-7.4553,-7.5837,-7.7362,-7.7893,-7.8582,-7.9371,-8.0528,-8.0508,-7.9883,-8.0547,-7.9805,-7.8476,-7.8398,-7.7305,-7.5898,-7.5898,-7.5312,-7.4609,-7.4609,-7.4648,-7.4883,-7.5664,-7.5976,-7.6211,-7.6992,-7.7187,-7.7226,-7.7305,-7.7305,-7.7305,-7.7305,-7.7383,-7.7656,-7.8476,-7.8594,-7.8867,-7.9687,-7.9478,-7.9221,-7.9283,-7.9338,-7.9416,-7.9591,-7.9752,-7.9722,-7.9551,-7.9277,-7.8707,-7.7705,-7.7434,-7.6943,-7.6053,-7.6015,-7.6015,-7.6015,-7.6015,-7.6015,-7.6015,-7.6015,-7.6015,-7.6015,-7.6015,-7.6015,-7.6015,-7.6015,-7.6015,0.0,0.0,0.0,0.0,0.0,0.0,0.0,0.0,0.0,0.0,0.0,0.0,0.0,0.0,0.0,0.0,0.0,0.0,0.0,0.0,0.0,0.0,0.0,0.0,0.0,0.0,0.0,0.0,0.0,0.0,0.0,0.0,0.0,-6.6219,-6.7173,-6.8173,-6.9127,-6.9251,-7.0117,0.0,-7.1871,-7.2706,-7.413,-7.2783,-7.3014,-7.4553,-7.6053,-7.7045,-7.7671,-7.9209,-8.0065,-8.0415,-8.0813,-8.0898,-8.0586,-7.9453,-7.8828,-7.8398,-7.7734,-7.6797,-7.5898,-7.5898,-7.5312,-7.4609,-7.4609,-7.5078,-7.5664,-7.5859,-7.6406,-7.6953,-7.7148,-7.7187,-7.7383,-7.8047,-7.8203,-7.8203,-7.8203,-7.8711,-7.9219,-7.9414,-7.9453,-7.9726,-8.0586,-8.0372,-8.0293,-8.0842,-8.1026,-8.1208,-8.139,-8.1002,-8.062,-8.0449,-7.9756,-7.8858,-7.7715,-7.7578,-7.7112,-7.6068,-7.6015,-7.6015,-7.6015,-7.6015,-7.6015,-7.6015,-7.6015,-7.6015,-7.6015,-7.6015,-7.6015,-7.6015,-7.6015,-7.6015,0.0,0.0,0.0,0.0,0.0,0.0,0.0,0.0,0.0,0.0,0.0,0.0,0.0,0.0,0.0,0.0,0.0,0.0,0.0,0.0,0.0,0.0,0.0,0.0,0.0,0.0,0.0,0.0,0.0,0.0,0.0,-6.4861,-6.5668,-6.6476,-6.755,-6.8487,-6.9292,-6.9986,-7.0934,-7.2206,-7.2629,-7.3476,-7.4668,-7.4245,-7.4707,-7.6015,-7.6899,-7.7857,-7.8884,-7.9964,-8.0512,-8.0715,-8.0932,-8.0508,-7.9687,-7.8828,-7.8515,-7.8398,-7.75,-7.6914,-7.6445,-7.6055,-7.5312,-7.4687,-7.5117,-7.5547,-7.5976,-7.6406,-7.7148,-7.7812,-7.7812,-7.8125,-7.8515,-7.8984,-7.8789,-7.8594,-7.8984,-7.9414,-7.9805,-8.0234,-8.0312,-8.0586,-8.1484,-8.1273,-8.11,-8.1375,-8.1572,-8.1718,-8.185,-8.1727,-8.1561,-8.1468,-8.0969,-8.0232,-7.9173,-7.8913,-7.8367,-7.7383,-7.7246,-7.7207,-7.7207,-7.6823,-7.6438,-7.6015,-7.6015,-7.6015,-7.6015,-7.6015,-7.6015,-7.6015,-7.6015,-7.6015,0.0,0.0,0.0,0.0,0.0,0.0,0.0,0.0,0.0,0.0,0.0,0.0,0.0,0.0,0.0,0.0,0.0,0.0,0.0,0.0,0.0,0.0,0.0,0.0,0.0,0.0,0.0,0.0,0.0,0.0,-6.4401,-6.4985,-6.5742,-6.6659,-6.7877,-6.8848,-6.9539,-7.078,-7.1816,-7.2629,-7.3514,-7.4361,-7.5168,-7.5899,-7.663,-7.7337,-7.7627,-7.8683,-8.0161,-8.0372,-8.0586,-8.0732,-8.0621,-7.9726,-7.8515,-7.8515,-7.8515,-7.8398,-7.7656,-7.7344,-7.707,-7.6367,-7.5547,-7.5,-7.5859,-7.6211,-7.6484,-7.7226,-7.8047,-7.8711,-7.8711,-7.9219,-7.9726,-7.9883,-7.9414,-7.9101,-7.9765,-8.0039,-8.0351,-8.1094,-8.1211,-8.1445,-8.2146,-8.1923,-8.1645,-8.1414,-8.1572,-8.1688,-8.1688,-8.2056,-8.2304,-8.2304,-8.2168,-8.1662,-8.0793,-8.0364,-7.977,-7.8862,-7.8615,-7.8477,-7.8477,-7.7861,-7.7169,-7.6438,-7.613,-7.6015,-7.6015,-7.6015,-7.6015,-7.6015,-7.6015,-7.6015,0.0,0.0,0.0,0.0,0.0,0.0,0.0,0.0,0.0,0.0,0.0,0.0,0.0,0.0,0.0,0.0,0.0,0.0,0.0,0.0,0.0,0.0,0.0,0.0,0.0,0.0,0.0,0.0,0.0,0.0,-6.5654,-6.5459,-6.5999,-6.7467,-6.8173,-6.911,-7.0427,-7.1084,-7.239,-7.4399,-7.5245,-7.613,-7.6938,-7.7053,-7.7169,-7.7391,-7.9018,-7.9978,-8.038,-8.0591,-8.0777,-8.0819,-7.9375,-7.8711,-7.8515,-7.8515,-7.8515,-7.8476,-7.8359,-7.7812,-7.7187,-7.707,-7.6445,-7.5898,-7.6758,-7.7539,-7.8164,-7.8281,-7.8906,-7.9531,-7.9531,-7.9609,-7.9883,-8.0664,-8.0742,-8.0703,-8.0781,-8.1406,-8.1992,-8.2109,-8.2148,-8.2107,-8.2062,-8.1855,-8.1645,-8.1414,-8.1572,-8.1688,-8.1688,-8.2056,-8.2304,-8.2304,-8.2265,-8.1826,-8.0797,-8.0494,-7.989,-7.8873,-7.8615,-7.8477,-7.8477,-7.84,-7.8299,-7.8169,-7.6746,-7.6015,-7.6015,-7.6015,-7.6015,-7.6015,-7.6015,-7.6015,0.0,0.0,0.0,0.0,0.0,0.0,0.0,0.0,0.0,0.0,0.0,0.0,0.0,0.0,0.0,0.0,0.0,0.0,0.0,0.0,0.0,0.0,0.0,0.0,0.0,0.0,0.0,0.0,0.0,-6.4912,-6.594,-6.5811,-6.6667,-6.879,-6.9415,-7.0345,-7.1712,-7.2745,-7.4006,-7.5438,-7.6322,-7.6938,-7.7323,-7.8284,-7.8707,-7.8723,-7.9172,-7.9747,-8.0372,-8.0105,-7.9814,-7.9531,-7.8789,-7.8515,-7.8437,-7.7969,-7.8359,-7.9023,-7.8086,-7.7851,-7.7851,-7.7344,-7.7265,-7.7422,-7.7812,-7.8515,-7.918,-7.918,-7.9765,-8.0429,-8.0429,-8.0781,-8.125,-8.164,-8.1719,-8.1719,-8.1719,-8.2031,-8.2304,-8.2304,-8.2304,-8.2265,-8.2175,-8.1992,-8.1812,-8.1609,-8.1718,-8.1837,-8.1695,-8.2056,-8.2304,-8.2304,-8.2304,-8.2064,-8.1496,-8.1247,-8.0889,-8.0306,-8.0081,-7.9939,-7.9939,-7.9477,-7.9246,-7.9246,-7.7592,-7.6746,-7.6746,-7.6245,-7.6015,-7.6015,-7.6015,-7.6015,0.0,0.0,0.0,0.0,0.0,0.0,0.0,0.0,0.0,0.0,0.0,0.0,0.0,0.0,0.0,0.0,0.0,0.0,0.0,0.0,0.0,0.0,0.0,0.0,0.0,0.0,0.0,0.0,0.0,-6.5486,-6.6362,-6.6491,-6.7606,-6.991,-7.0705,-7.1693,-7.2896,-7.4321,-7.5495,-7.6401,-7.7057,-7.7651,-7.8117,-7.9391,-7.9957,-7.9931,-7.9432,-7.9534,-8.0022,-7.9435,-7.8928,-7.8515,-7.8515,-7.8515,-7.8437,-7.8008,-7.8633,-7.9492,-7.8047,-7.7969,-7.8398,-7.7734,-7.7969,-7.8555,-7.875,-7.9375,-8.0039,-8.0039,-8.0664,-8.1328,-8.1328,-8.1797,-8.2304,-8.2304,-8.2304,-8.2304,-8.2304,-8.2304,-8.2304,-8.2304,-8.2304,-8.2304,-8.2304,-8.2125,-8.1914,-8.171,-8.1873,-8.1909,-8.1749,-8.2056,-8.2304,-8.2304,-8.2264,-8.2171,-8.1996,-8.1785,-8.1563,-8.1418,-8.12,-8.1093,-8.1093,-8.0477,-8.0131,-8.0131,-7.8707,-7.7746,-7.7284,-7.663,-7.6207,-7.6015,-7.6015,-7.6015,0.0,0.0,0.0,0.0,0.0,0.0,0.0,0.0,0.0,0.0,0.0,0.0,0.0,0.0,0.0,0.0,0.0,0.0,0.0,0.0,0.0,0.0,0.0,0.0,0.0,0.0,0.0,0.0,0.0,-6.5808,-6.7419,-6.7808,-6.8784,-7.0499,-7.1807,-7.2917,-7.383,-7.5241,-7.648,-7.7534,-7.7573,-7.8524,-8.0256,-8.0333,-8.0364,-8.0356,-8.0333,-7.9875,-7.9141,-7.8723,-7.8515,-7.8515,-7.8515,-7.8515,-7.8594,-7.9297,-7.9648,-7.957,-7.8711,-7.8476,-7.8476,-7.8437,-7.8476,-7.8633,-7.9414,-8.0234,-8.0937,-8.0937,-8.1562,-8.2226,-8.2226,-8.2265,-8.2304,-8.2304,-8.2304,-8.2304,-8.2304,-8.2304,-8.2304,-8.2304,-8.2304,-8.2304,-8.2304,-8.2125,-8.1914,-8.171,-8.1873,-8.1909,-8.1749,-8.2056,-8.2304,-8.2304,-8.2122,-8.1996,-8.1992,-8.1653,-8.143,-8.1407,-8.12,-8.1093,-8.1093,-8.1054,-8.1016,-8.1016,-8.0131,-7.89,-7.7284,-7.7246,-7.6823,-7.6015,-7.6015,-7.6015,0.0,0.0,0.0,0.0,0.0,0.0,0.0,0.0,0.0,0.0,0.0,0.0,0.0,0.0,0.0,0.0,0.0,0.0,0.0,0.0,0.0,0.0,0.0,0.0,0.0,0.0,0.0,0.0,0.0,0.0,-6.7523,-6.8227,-6.9583,-7.1806,-7.2902,-7.4006,-7.5241,-7.6442,-7.721,-7.7595,-7.8816,-7.9748,-8.0403,-8.0403,-8.0085,-7.9547,-7.911,-7.8759,-7.8462,-7.8505,-7.8515,-7.8555,-7.9062,-7.9258,-7.9258,-7.9023,-7.8945,-7.8906,-7.8594,-7.8515,-7.8594,-7.9101,-7.9648,-8.0156,-8.0469,-8.1133,-8.1836,-8.1836,-8.207,-8.2304,-8.2304,-8.2304,-8.2304,-8.2304,-8.2304,-8.2304,-8.2304,-8.2304,-8.2304,-8.2304,-8.2304,-8.2304,-8.2304,-8.2125,-8.1914,-8.171,-8.1746,-8.176,-8.1695,-8.1958,-8.2115,-8.2115,-8.2053,-8.1889,-8.1653,-8.1491,-8.1361,-8.12,-8.1131,-8.1093,-8.1093,-8.1093,-8.1093,-8.1093,-8.0785,-7.9785,-7.8054,-7.7553,-7.6861,-7.6015,-7.6015,-7.6015,0.0,0.0,0.0,0.0,0.0,0.0,0.0,0.0,0.0,0.0,0.0,0.0,0.0,0.0,0.0,0.0,0.0,0.0,0.0,0.0,0.0,0.0,0.0,0.0,0.0,0.0,0.0,0.0,0.0,0.0,-6.822,-6.9084,-7.0821,-7.3653,-7.432,-7.5063,-7.5976,-7.7046,-7.7803,-7.8166,-7.9757,-8.0686,-8.1041,-8.0724,-8.0139,-7.9286,-7.8849,-7.8465,-7.8132,-7.8393,-7.8672,-7.8945,-7.9492,-7.9883,-8.0039,-7.9219,-7.9101,-7.9297,-7.8984,-7.8906,-7.9023,-7.9883,-8.0547,-8.1054,-8.1367,-8.1836,-8.2304,-8.2304,-8.2304,-8.2383,-8.2656,-8.2734,-8.2656,-8.2383,-8.2304,-8.2304,-8.2304,-8.2304,-8.2304,-8.2304,-8.2304,-8.2265,-8.2219,-8.211,-8.1899,-8.1653,-8.1679,-8.1688,-8.1688,-8.1878,-8.1992,-8.1992,-8.1958,-8.1746,-8.1414,-8.1349,-8.1256,-8.1108,-8.1093,-8.1093,-8.1093,-8.1093,-8.1093,-8.1093,-8.1093,-8.04,-7.8938,-7.8092,-7.713,-7.6015,-7.6015,-7.6015,0.0,0.0,0.0,0.0,0.0,0.0,0.0,0.0,0.0,0.0,0.0,0.0,0.0,0.0,0.0,0.0,0.0,0.0,0.0,0.0,0.0,0.0,0.0,0.0,0.0,0.0,0.0,0.0,0.0,-6.7051,-6.959,-7.0514,-7.2552,-7.5899,-7.6015,-7.6015,-7.6029,-7.7097,-7.8176,-7.9258,-8.0276,-8.1263,-8.2226,-8.1367,-8.0508,-7.9687,-7.9687,-7.913,-7.8292,-7.8471,-7.9023,-7.9726,-7.9765,-8.0273,-8.0898,-8.0039,-8.0273,-8.0859,-8.0039,-7.9726,-7.9883,-8.0742,-8.1054,-8.1211,-8.2031,-8.2304,-8.2304,-8.2304,-8.2304,-8.2539,-8.3398,-8.3594,-8.3398,-8.25,-8.2304,-8.2304,-8.2304,-8.2304,-8.2304,-8.2304,-8.2304,-8.2222,-8.2046,-8.1984,-8.1855,-8.1458,-8.1563,-8.1711,-8.168,-8.1873,-8.1988,-8.1992,-8.1831,-8.1636,-8.1441,-8.12,-8.1093,-8.1093,-8.1093,-8.1093,-8.1093,-8.1093,-8.1093,-8.1093,-8.1093,-8.0669,-7.9823,-7.8938,-7.7669,-7.6053,-7.6053,-7.6053,-3.9674,0.0,0.0,0.0,0.0,0.0,0.0,0.0,0.0,0.0,0.0,0.0,0.0,0.0,0.0,0.0,0.0,0.0,0.0,0.0,0.0,0.0,0.0,0.0,0.0,0.0,0.0,0.0,-6.6436,-6.7628,-6.959,-7.2206,-7.4361,-7.5938,-7.6015,-7.6388,-7.7159,-7.8224,-7.9265,-8.0319,-8.1344,-8.1677,-8.1328,-8.0469,-7.9838,-7.9452,-7.9019,-7.9285,-8.0009,-8.0228,-8.0429,-8.0703,-8.1328,-8.1328,-8.0976,-8.0742,-8.039,-8.0117,-8.0508,-8.0625,-8.0781,-8.164,-8.1953,-8.1992,-8.2226,-8.2304,-8.2304,-8.2304,-8.2734,-8.3281,-8.3554,-8.3594,-8.3398,-8.25,-8.2304,-8.2304,-8.2304,-8.2304,-8.2304,-8.2304,-8.2175,-8.2062,-8.1996,-8.1778,-8.1514,-8.143,-8.1324,-8.1359,-8.164,-8.1732,-8.185,-8.1984,-8.1831,-8.1636,-8.1441,-8.12,-8.1093,-8.1093,-8.1093,-8.1093,-8.1093,-8.1093,-8.1093,-8.1093,-8.1093,-8.0669,-7.9823,-7.9554,-7.8861,-7.7784,-7.7207,-7.6938,0.0,0.0,0.0,0.0,0.0,0.0,0.0,-4.9627,0.0,0.0,0.0,0.0,0.0,0.0,0.0,0.0,0.0,0.0,0.0,0.0,0.0,0.0,0.0,0.0,0.0,0.0,0.0,-6.6359,-6.6919,-6.8313,-7.0732,-7.3382,-7.5206,-7.5976,-7.6015,-7.6519,-7.7595,-7.8673,-7.9688,-8.0712,-8.1438,-8.1484,-8.0976,-8.0117,-7.9599,-7.9416,-7.9485,-8.0183,-8.1258,-8.1478,-8.1523,-8.1562,-8.1719,-8.1679,-8.1484,-8.1133,-8.0898,-8.0859,-8.1367,-8.1523,-8.164,-8.2148,-8.2304,-8.2304,-8.2304,-8.2304,-8.2304,-8.2304,-8.3203,-8.414,-8.414,-8.4414,-8.4453,-8.3594,-8.3398,-8.3398,-8.3398,-8.3398,-8.3281,-8.289,-8.2765,-8.2726,-8.2908,-8.2707,-8.2516,-8.2329,-8.2207,-8.2182,-8.2245,-8.2225,-8.2182,-8.2019,-8.1889,-8.1695,-8.1403,-8.1311,-8.1196,-8.1108,-8.1093,-8.1093,-8.1093,-8.1093,-8.1093,-8.1093,-8.1093,-8.0862,-8.0323,-7.9977,-7.9361,-7.8477,-7.8015,-7.763,0.0,0.0,0.0,0.0,0.0,0.0,-5.2946,-5.1722,-5.0978,0.0,0.0,0.0,0.0,0.0,0.0,0.0,0.0,0.0,0.0,0.0,0.0,0.0,0.0,0.0,0.0,-6.659,-6.6474,-6.7167,-6.7592,-6.9198,-7.2346,-7.4087,-7.5256,-7.5856,-7.6068,-7.6648,-7.7765,-7.8807,-7.9811,-8.0726,-8.0892,-8.0937,-8.082,-8.0039,-7.9635,-7.9557,-8.0656,-8.1509,-8.214,-8.2337,-8.2422,-8.2344,-8.1484,-8.1601,-8.2226,-8.1445,-8.164,-8.2304,-8.2422,-8.2422,-8.2422,-8.2422,-8.2422,-8.2422,-8.2344,-8.2304,-8.2344,-8.2539,-8.3789,-8.5039,-8.5039,-8.5625,-8.5976,-8.5117,-8.4883,-8.4883,-8.4883,-8.4883,-8.4687,-8.4023,-8.3789,-8.3808,-8.4182,-8.4201,-8.4057,-8.3702,-8.3634,-8.3473,-8.3053,-8.3011,-8.2793,-8.2113,-8.2,-8.185,-8.1469,-8.143,-8.1311,-8.1124,-8.1093,-8.1093,-8.1093,-8.1093,-8.1093,-8.1093,-8.1093,-8.1093,-8.1093,-8.0323,-7.9554,-7.8784,-7.8669,-7.8207,0.0,0.0,0.0,0.0,0.0,0.0,-4.4987,-4.4997,-4.5937,0.0,0.0,0.0,0.0,0.0,0.0,0.0,0.0,0.0,0.0,0.0,0.0,0.0,0.0,0.0,0.0,-6.8013,-6.7975,-6.8129,-6.959,-7.1116,-7.2578,-7.4141,-7.5078,-7.5175,-7.6388,-7.7627,-7.887,-7.9727,-8.0446,-8.0935,-8.0976,-8.0625,-7.9961,-7.9765,-7.9887,-8.0273,-8.1502,-8.2347,-8.2825,-8.3183,-8.3359,-8.3242,-8.2383,-8.2148,-8.2265,-8.2109,-8.2148,-8.2383,-8.3086,-8.3359,-8.3359,-8.3359,-8.3359,-8.3203,-8.25,-8.2304,-8.2578,-8.3984,-8.5156,-8.5937,-8.5937,-8.6054,-8.5976,-8.5117,-8.4883,-8.4883,-8.4883,-8.4883,-8.5078,-8.5586,-8.4985,-8.443,-8.4507,-8.4224,-8.3906,-8.3863,-8.385,-8.3623,-8.3079,-8.313,-8.2975,-8.2299,-8.2113,-8.1894,-8.164,-8.1512,-8.1311,-8.1124,-8.1093,-8.1093,-8.1093,-8.1093,-8.1093,-8.1093,-8.1093,-8.1093,-8.1093,-8.0939,-8.0746,-8.0592,-7.9862,-7.9092,0.0,0.0,0.0,-4.8202,0.0,0.0,0.0,-4.7124,-4.7048,0.0,0.0,0.0,0.0,0.0,0.0,0.0,0.0,0.0,0.0,0.0,0.0,0.0,0.0,0.0,0.0,-6.8667,-6.8653,-6.9236,-7.0571,-7.1809,-7.2796,-7.4399,-7.5432,-7.5788,-7.7387,-7.8796,-7.9957,-7.9918,-8.0279,-8.0976,-8.0547,-8.0117,-7.9726,-8.0156,-8.0406,-8.0653,-8.2251,-8.3023,-8.3165,-8.3464,-8.3594,-8.3515,-8.2656,-8.2304,-8.2304,-8.2304,-8.2304,-8.2422,-8.3281,-8.3594,-8.3594,-8.3594,-8.3594,-8.3437,-8.2578,-8.2617,-8.332,-8.5078,-8.5859,-8.6289,-8.6758,-8.6836,-8.6758,-8.6289,-8.6088,-8.5995,-8.5995,-8.5995,-8.6112,-8.6542,-8.6307,-8.5986,-8.5867,-8.5548,-8.5359,-8.5359,-8.5269,-8.487,-8.3922,-8.3903,-8.351,-8.2421,-8.212,-8.2099,-8.2318,-8.1765,-8.1504,-8.1701,-8.1323,-8.1093,-8.1093,-8.1093,-8.1093,-8.1093,-8.1093,-8.1093,-8.1093,-8.1093,-8.1093,-8.1093,-8.0669,-7.9977,0.0,0.0,0.0,0.0,0.0,-4.9173,0.0,0.0,0.0,-5.2741,0.0,0.0,0.0,0.0,0.0,0.0,0.0,0.0,0.0,0.0,0.0,0.0,0.0,0.0,0.0,-6.8167,-6.8563,-7.0763,-7.0674,-7.1344,-7.3228,-7.4935,-7.6093,-7.6638,-7.844,-7.976,-8.0435,-7.9927,-8.0007,-8.0742,-8.0039,-7.9805,-7.9961,-8.0664,-8.1083,-8.1293,-8.2883,-8.3582,-8.3565,-8.3588,-8.3594,-8.3515,-8.2656,-8.2304,-8.2304,-8.2304,-8.2422,-8.2656,-8.3554,-8.3945,-8.4101,-8.4101,-8.3984,-8.3711,-8.3008,-8.3398,-8.4375,-8.5781,-8.6328,-8.6601,-8.7304,-8.75,-8.75,-8.7459,-8.7275,-8.71,-8.7034,-8.7087,-8.7104,-8.7104,-8.7327,-8.7419,-8.7222,-8.6968,-8.6817,-8.6817,-8.6641,-8.6117,-8.4925,-8.4724,-8.4109,-8.2695,-8.2354,-8.2445,-8.2972,-8.2153,-8.1814,-8.2278,-8.1554,-8.1093,-8.1093,-8.1093,-8.1093,-8.1093,-8.1093,-8.1093,-8.1093,-8.1093,-8.1093,-8.1093,-8.1093,-8.0631,0.0,0.0,0.0,0.0,-5.2866,0.0,0.0,0.0,-4.6778,-4.5778,0.0,0.0,0.0,0.0,0.0,0.0,0.0,0.0,0.0,0.0,0.0,0.0,0.0,0.0,0.0,0.0,-6.7415,-7.3129,-6.9493,-6.9151,-7.4138,-7.5902,-7.6794,-7.686,-7.9085,-8.0026,-7.9541,-8.0236,-8.0317,-7.9844,-7.9765,-8.0117,-8.0859,-8.0937,-8.1747,-8.3014,-8.343,-8.3934,-8.4423,-8.3822,-8.3594,-8.3515,-8.2656,-8.2304,-8.2304,-8.2304,-8.2773,-8.3594,-8.4453,-8.5273,-8.5898,-8.5898,-8.539,-8.4726,-8.4648,-8.5195,-8.5937,-8.6133,-8.6758,-8.7383,-8.7461,-8.75,-8.7459,-8.718,-8.7112,-8.7039,-8.6855,-8.698,-8.7104,-8.7104,-8.7327,-8.75,-8.746,-8.7078,-8.6817,-8.6817,-8.6791,-8.6441,-8.5518,-8.5094,-8.4492,-8.3554,-8.3289,-8.3108,-8.3011,-8.2658,-8.2419,-8.2317,-8.1554,-8.1093,-8.1093,-8.1093,-8.1093,-8.1093,-8.1093,-8.1093,-8.1093,-8.1093,-8.1093,-8.1093,-8.1093,-8.0631,0.0,0.0,0.0,0.0,0.0,0.0,0.0,0.0,-4.7394,0.0,0.0,0.0,0.0,0.0,0.0,0.0,0.0,0.0,0.0,0.0,0.0,0.0,0.0,0.0,0.0,0.0,0.0,0.0,0.0,-6.9549,-7.5078,-7.6947,-7.7838,-7.7838,-7.9731,-8.0356,-7.9597,-7.9947,-7.9994,-7.9726,-8.0195,-8.0898,-8.1758,-8.2265,-8.285,-8.3503,-8.41,-8.3943,-8.3268,-8.3514,-8.3281,-8.2812,-8.2422,-8.2304,-8.2344,-8.2851,-8.3281,-8.3789,-8.5195,-8.5898,-8.6211,-8.6211,-8.5625,-8.5,-8.5508,-8.5898,-8.6328,-8.6797,-8.7226,-8.75,-8.75,-8.7375,-8.723,-8.7116,-8.6936,-8.6729,-8.662,-8.68,-8.6943,-8.6943,-8.7222,-8.75,-8.75,-8.7126,-8.6857,-8.6968,-8.6855,-8.6545,-8.5753,-8.5674,-8.5312,-8.4453,-8.4025,-8.3785,-8.3704,-8.2929,-8.2391,-8.2301,-8.1554,-8.1093,-8.1093,-8.1093,-8.1093,-8.1093,-8.1093,-8.1093,-8.1093,-8.1093,-8.1093,-8.1093,-8.1093,-8.09,-5.9127,0.0,0.0,0.0,0.0,0.0,0.0,0.0,0.0,0.0,0.0,0.0,0.0,0.0,0.0,0.0,0.0,0.0,0.0,0.0,0.0,0.0,0.0,0.0,0.0,0.0,0.0,0.0,-6.8118,-6.8838,-7.5462,-7.7733,-7.8711,-7.8515,-8.0117,-8.0586,-7.9726,-7.9687,-7.9805,-8.0078,-8.0703,-8.1562,-8.2656,-8.3047,-8.3515,-8.3945,-8.4101,-8.3594,-8.2695,-8.3086,-8.3008,-8.2656,-8.2656,-8.2812,-8.3047,-8.3437,-8.3906,-8.4492,-8.5742,-8.6367,-8.6562,-8.6562,-8.6133,-8.5742,-8.6367,-8.6562,-8.6679,-8.7304,-8.75,-8.75,-8.75,-8.7284,-8.7096,-8.7024,-8.6765,-8.6494,-8.6389,-8.6627,-8.6817,-8.6817,-8.7194,-8.7461,-8.7416,-8.7063,-8.6872,-8.6997,-8.687,-8.6638,-8.6139,-8.6149,-8.5937,-8.5229,-8.4585,-8.4185,-8.4115,-8.2986,-8.2208,-8.1977,-8.14,-8.1093,-8.1093,-8.1093,-8.1093,-8.1093,-8.1093,-8.1093,-8.1093,-8.1093,-8.1093,-8.1093,-8.1093,-8.1093,0.0,0.0,0.0,-5.7362,0.0,0.0,0.0,0.0,-5.0818,0.0,0.0,0.0,0.0,0.0,0.0,0.0,0.0,0.0,0.0,0.0,0.0,0.0,0.0,0.0,0.0,0.0,0.0,-6.8045,-6.4351,-6.5714,-7.5095,-7.8195,-7.9297,-7.8515,-8.0117,-8.0586,-7.9726,-7.9687,-8.0117,-8.0976,-8.0976,-8.1914,-8.3515,-8.2695,-8.3242,-8.4765,-8.3086,-8.2812,-8.3515,-8.2695,-8.2812,-8.3554,-8.3554,-8.4062,-8.4726,-8.3906,-8.4687,-8.6133,-8.6172,-8.6758,-8.7461,-8.7461,-8.7422,-8.7422,-8.7461,-8.7461,-8.7461,-8.75,-8.75,-8.75,-8.75,-8.7284,-8.7034,-8.6872,-8.663,-8.6429,-8.6168,-8.6478,-8.6817,-8.6817,-8.7194,-8.7418,-8.7166,-8.6949,-8.6817,-8.6825,-8.6778,-8.6778,-8.6786,-8.6428,-8.6088,-8.5793,-8.4832,-8.4115,-8.3948,-8.2897,-8.1977,-8.1208,-8.1093,-8.1093,-8.1093,-8.1093,-8.1093,-8.1093,-8.1093,-8.1093,-8.1093,-8.1093,-8.1093,-8.1093,-8.1093,-8.1093,0.0,0.0,-6.8535,-6.1979,0.0,0.0,0.0,0.0,0.0,0.0,0.0,0.0,0.0,0.0,0.0,0.0,0.0,0.0,0.0,0.0,0.0,0.0,0.0,0.0,0.0,0.0,0.0,-6.7377,-6.7521,-7.0211,0.0,-7.9366,-7.9922,-7.8555,-7.957,-7.9726,-7.8906,-7.9414,-8.0156,-8.1015,-8.1562,-8.2461,-8.3594,-8.3281,-8.3476,-8.4023,-8.3437,-8.332,-8.3594,-8.3281,-8.3672,-8.4453,-8.4453,-8.5,-8.5703,-8.5429,-8.5703,-8.6289,-8.6875,-8.7265,-8.75,-8.75,-8.75,-8.75,-8.75,-8.75,-8.75,-8.75,-8.75,-8.75,-8.75,-8.7209,-8.6863,-8.6833,-8.6514,-8.6268,-8.6346,-8.6566,-8.6857,-8.698,-8.6803,-8.6601,-8.6516,-8.5732,-8.5443,-8.6433,-8.6594,-8.6436,-8.6013,-8.6439,-8.6555,-8.5856,-8.5377,-8.4746,-8.396,-8.2449,-8.14,-8.1131,-8.1093,-8.1093,-8.1093,-8.1093,-8.1093,-8.1093,-8.1093,-8.1093,-8.1093,-8.1093,-8.1093,-8.1093,-8.1093,-8.1093,-7.0039,-7.1387,0.0,-6.5423,-6.4474,0.0,-5.7312,0.0,0.0,0.0,0.0,0.0,0.0,0.0,0.0,0.0,0.0,0.0,0.0,0.0,0.0,0.0,0.0,0.0,0.0,0.0,-5.9188,-6.7139,-6.7673,-7.0385,0.0,0.0,-7.9765,-7.8086,-7.8828,-7.914,-7.8945,-7.9453,-8.0273,-8.1484,-8.2031,-8.2773,-8.3594,-8.3281,-8.332,-8.3594,-8.3594,-8.3594,-8.3633,-8.3945,-8.457,-8.5351,-8.5351,-8.5898,-8.6601,-8.6328,-8.6406,-8.6758,-8.7304,-8.75,-8.75,-8.75,-8.75,-8.75,-8.75,-8.75,-8.75,-8.75,-8.75,-8.75,-8.75,-8.7143,-8.6739,-8.6427,-8.6235,-8.6091,-8.6056,-8.6446,-8.6763,-8.6653,-8.6389,-8.6093,-8.5694,-8.4829,-8.4626,-8.5967,-8.6088,-8.589,-8.5529,-8.6434,-8.6736,-8.5788,-8.5577,-8.4903,-8.3451,-8.1952,-8.1208,-8.1516,-8.1516,-8.167,-8.1977,-8.1708,-8.1516,-8.1516,-8.1246,-8.1093,-8.1093,-8.1093,-8.1093,-8.1093,-8.1093,-8.1093]},{"header":{"parameterUnit":"m.s-1","parameterCategory":1,"la1":30.6,"la2":29.2853,"lo1":-89.7004,"lo2":-87.6739,"dx":0.0162,"dy":0.0183,"nx":112,"ny":82,"refTime":"2023-01-16T06:00:00:Z","depth":0,"parameterNumber":3,"parameterNumberName":"V-component_of_WINDS"},"data":[0.0,0.0,0.0,0.0,0.0,0.0,0.0,0.0,0.0,0.0,0.0,0.0,0.0,0.0,0.0,0.0,0.0,0.0,0.0,0.0,0.0,0.0,0.0,0.0,0.0,0.0,0.0,0.0,0.0,0.0,0.0,0.0,0.0,0.0,0.0,0.0,0.0,0.0,0.0,0.0,0.0,0.0,0.0,0.0,0.0,0.0,0.0,0.0,0.0,0.0,0.0,0.0,0.0,0.0,0.0,0.0,0.0,0.0,0.0,0.0,0.0,0.0,0.0,0.0,0.0,0.0,0.0,0.0,0.0,0.0,0.0,0.0,0.0,0.0,0.0,0.0,0.0,0.0,0.0,0.0,0.0,0.0,0.0,0.0,0.0,0.0,0.0,0.0,0.0,0.0,0.0,3.5579,4.0932,4.4591,4.5616,4.4741,4.1947,3.6766,0.0,0.0,0.0,0.0,0.0,0.0,0.0,0.0,0.0,0.0,0.0,0.0,0.0,0.0,0.0,0.0,0.0,0.0,0.0,0.0,0.0,0.0,0.0,0.0,0.0,0.0,0.0,0.0,0.0,0.0,0.0,0.0,0.0,0.0,0.0,0.0,0.0,0.0,0.0,0.0,0.0,0.0,0.0,0.0,0.0,0.0,0.0,0.0,0.0,0.0,0.0,0.0,0.0,0.0,0.0,0.0,0.0,0.0,0.0,0.0,0.0,0.0,0.0,0.0,0.0,0.0,0.0,0.0,0.0,0.0,0.0,0.0,0.0,0.0,0.0,0.0,0.0,0.0,0.0,0.0,0.0,0.0,0.0,0.0,0.0,0.0,0.0,0.0,0.0,0.0,0.0,0.0,0.0,0.0,0.0,0.0,0.0,0.0,0.0,0.0,0.0,0.0,0.0,0.0,3.0471,3.9397,4.2104,4.3938,4.5554,4.4366,4.1047,3.5238,0.0,0.0,0.0,0.0,0.0,0.0,0.0,0.0,0.0,0.0,0.0,0.0,0.0,0.0,0.0,0.0,0.0,0.0,0.0,0.0,0.0,0.0,0.0,0.0,0.0,0.0,0.0,0.0,0.0,0.0,0.0,0.0,0.0,0.0,0.0,0.0,0.0,0.0,0.0,0.0,0.0,0.0,0.0,0.0,0.0,0.0,0.0,0.0,0.0,0.0,0.0,0.0,0.0,0.0,0.0,0.0,0.0,0.0,0.0,0.0,0.0,0.0,0.0,0.0,0.0,0.0,0.0,0.0,0.0,0.0,0.0,0.0,0.0,0.0,0.0,0.0,0.0,0.0,0.0,0.0,0.0,0.0,0.0,0.0,0.0,0.0,0.0,0.0,0.0,0.0,0.0,0.0,0.0,0.0,0.0,0.0,0.0,0.0,0.0,0.0,0.0,0.0,0.0,2.9309,3.3144,4.0887,4.2527,4.3617,4.498,4.4374,4.1188,3.4888,3.2179,0.0,0.0,0.0,0.0,0.0,0.0,0.0,0.0,0.0,0.0,0.0,0.0,0.0,0.0,0.0,0.0,0.0,0.0,0.0,0.0,0.0,0.0,0.0,0.0,0.0,0.0,0.0,0.0,0.0,0.0,0.0,0.0,0.0,0.0,0.0,0.0,0.0,0.0,0.0,0.0,0.0,0.0,0.0,0.0,0.0,0.0,0.0,0.0,0.0,0.0,0.0,0.0,0.0,0.0,0.0,0.0,0.0,0.0,0.0,0.0,0.0,0.0,0.0,0.0,0.0,0.0,0.0,0.0,0.0,0.0,0.0,0.0,0.0,0.0,0.0,0.0,0.0,0.0,0.0,0.0,0.0,0.0,0.0,0.0,0.0,0.0,0.0,0.0,0.0,0.0,0.0,0.0,0.0,0.0,0.0,0.0,0.0,0.0,0.0,0.0,0.0,0.0,3.2922,3.6402,4.1533,4.2558,4.3226,4.4238,4.4031,4.108,3.4628,3.1769,0.0,0.0,0.0,0.0,0.0,0.0,0.0,0.0,0.0,0.0,0.0,0.0,0.0,0.0,0.0,0.0,0.0,0.0,0.0,0.0,0.0,0.0,0.0,0.0,0.0,0.0,0.0,0.0,0.0,0.0,0.0,0.0,0.0,0.0,0.0,0.0,0.0,0.0,0.0,0.0,0.0,0.0,0.0,0.0,0.0,0.0,0.0,0.0,0.0,0.0,0.0,0.0,0.0,0.0,0.0,0.0,0.0,0.0,0.0,0.0,0.0,0.0,0.0,0.0,0.0,0.0,0.0,0.0,0.0,0.0,0.0,0.0,0.0,0.0,0.0,0.0,0.0,0.0,0.0,0.0,0.0,0.0,0.0,0.0,0.0,0.0,0.0,0.0,0.0,0.0,0.0,0.0,0.0,0.0,0.0,0.0,0.0,0.0,0.0,0.0,0.0,0.0,3.355,3.8497,4.1757,4.211,4.248,4.34,4.2848,3.9836,3.3753,3.0539,0.0,0.0,0.0,0.0,0.0,0.0,0.0,0.0,0.0,0.0,0.0,0.0,0.0,0.0,0.0,0.0,0.0,0.0,0.0,0.0,0.0,0.0,0.0,0.0,0.0,0.0,0.0,0.0,0.0,0.0,0.0,0.0,0.0,0.0,0.0,0.0,0.0,0.0,0.0,0.0,0.0,0.0,0.0,0.0,0.0,0.0,0.0,0.0,0.0,0.0,0.0,0.0,0.0,0.0,0.0,0.0,0.0,0.0,0.0,0.0,0.0,0.0,0.0,0.0,0.0,0.0,0.0,0.0,0.0,0.0,0.0,0.0,0.0,0.0,0.0,0.0,0.0,0.0,0.0,0.0,0.0,0.0,0.0,0.0,0.0,0.0,0.0,0.0,0.0,0.0,0.0,0.0,0.0,0.0,0.0,0.0,0.0,0.0,0.0,0.0,0.0,0.0,3.2389,3.6815,0.0,4.2013,4.2384,4.3333,4.2726,3.972,3.3628,0.0,0.0,0.0,0.0,0.0,0.0,0.0,0.0,0.0,0.0,0.0,0.0,0.0,0.0,0.0,0.0,0.0,0.0,0.0,0.0,0.0,0.0,0.0,0.0,0.0,0.0,0.0,0.0,0.0,0.0,0.0,0.0,0.0,0.0,0.0,0.0,0.0,0.0,0.0,0.0,0.0,0.0,0.0,0.0,0.0,0.0,0.0,0.0,0.0,0.0,0.0,0.0,0.0,0.0,0.0,0.0,0.0,0.0,0.0,0.0,0.0,0.0,0.0,0.0,0.0,0.0,0.0,0.0,0.0,0.0,0.0,0.0,0.0,0.0,0.0,0.0,0.0,0.0,0.0,0.0,0.0,0.0,0.0,0.0,0.0,0.0,0.0,0.0,0.0,0.0,0.0,0.0,0.0,0.0,0.0,0.0,0.0,0.0,0.0,0.0,0.0,0.0,2.8794,3.2464,3.6622,0.0,4.1981,4.2384,4.3333,4.2963,4.0071,3.3994,0.0,0.0,0.0,0.0,0.0,0.0,0.0,0.0,0.0,0.0,0.0,0.0,0.0,0.0,0.0,0.0,0.0,0.0,0.0,0.0,0.0,0.0,0.0,0.0,0.0,0.0,0.0,0.0,0.0,0.0,0.0,0.0,0.0,0.0,0.0,0.0,0.0,0.0,0.0,0.0,0.0,0.0,0.0,0.0,0.0,0.0,0.0,0.0,0.0,0.0,0.0,0.0,0.0,0.0,0.0,0.0,0.0,0.0,0.0,0.0,0.0,0.0,0.0,0.0,0.0,0.0,0.0,0.0,0.0,0.0,0.0,0.0,0.0,0.0,0.0,0.0,0.0,0.0,0.0,0.0,0.0,0.0,0.0,0.0,0.0,0.0,0.0,0.0,0.0,0.0,0.0,0.0,0.0,0.0,0.0,0.0,0.0,0.0,0.0,0.0,0.0,0.0,2.9289,3.4173,3.8571,4.1661,4.2013,4.2384,4.3305,4.3409,4.0855,0.0,0.0,0.0,0.0,0.0,0.0,0.0,0.0,0.0,0.0,0.0,0.0,0.0,0.0,0.0,0.0,0.0,0.0,0.0,0.0,0.0,0.0,0.0,0.0,0.0,0.0,0.0,0.0,0.0,0.0,0.0,0.0,0.0,0.0,0.0,0.0,0.0,0.0,0.0,0.0,0.0,0.0,0.0,0.0,0.0,0.0,0.0,0.0,0.0,0.0,0.0,0.0,0.0,0.0,0.0,0.0,0.0,0.0,0.0,0.0,0.0,0.0,0.0,0.0,0.0,0.0,0.0,0.0,0.0,0.0,0.0,0.0,0.0,0.0,0.0,0.0,0.0,0.0,0.0,0.0,0.0,0.0,0.0,0.0,0.0,0.0,0.0,0.0,0.0,0.0,0.0,0.0,0.0,0.0,0.0,0.0,0.0,0.0,0.0,0.0,0.0,0.0,0.0,2.9268,3.3894,3.802,4.0803,4.1064,4.1692,4.3201,4.2854,4.0158,3.4421,0.0,0.0,0.0,0.0,0.0,0.0,0.0,0.0,0.0,0.0,0.0,0.0,0.0,0.0,0.0,0.0,0.0,0.0,0.0,0.0,0.0,0.0,0.0,0.0,0.0,0.0,0.0,0.0,0.0,0.0,0.0,0.0,0.0,0.0,0.0,0.0,0.0,0.0,0.0,0.0,0.0,0.0,0.0,0.0,0.0,0.0,0.0,0.0,0.0,0.0,0.0,0.0,0.0,0.0,0.0,0.0,0.0,0.0,0.0,0.0,0.0,0.0,0.0,0.0,0.0,0.0,0.0,0.0,0.0,0.0,0.0,0.0,0.0,0.0,0.0,0.0,0.0,0.0,0.0,0.0,0.0,0.0,0.0,0.0,0.0,0.0,0.0,0.0,0.0,0.0,0.0,0.0,0.0,0.0,0.0,0.0,0.0,0.0,0.0,0.0,0.0,0.0,2.864,3.355,3.7652,3.9847,4.0454,4.1264,4.2645,4.2118,3.9836,3.5464,0.0,0.0,0.0,0.0,0.0,0.0,0.0,0.0,0.0,0.0,0.0,0.0,0.0,0.0,0.0,0.0,0.0,0.0,0.0,0.0,0.0,0.0,0.0,0.0,0.0,0.0,0.0,0.0,0.0,0.0,0.0,0.0,0.0,0.0,0.0,0.0,0.0,0.0,0.0,0.0,0.0,0.0,0.0,0.0,0.0,0.0,0.0,0.0,0.0,0.0,0.0,0.0,0.0,0.0,0.0,0.0,0.0,0.0,0.0,0.0,0.0,0.0,0.0,0.0,0.0,0.0,0.0,0.0,0.0,0.0,0.0,0.0,0.0,0.0,0.0,0.0,0.0,0.0,0.0,0.0,0.0,0.0,0.0,0.0,0.0,0.0,0.0,0.0,0.0,0.0,0.0,0.0,0.0,0.0,0.0,0.0,0.0,0.0,0.0,0.0,0.0,0.0,2.7683,3.301,3.7197,3.8743,3.9788,4.0786,4.1817,4.1278,3.9822,3.7275,0.0,0.0,0.0,0.0,0.0,0.0,0.0,0.0,0.0,0.0,0.0,0.0,0.0,0.0,0.0,0.0,0.0,0.0,0.0,0.0,0.0,0.0,0.0,0.0,0.0,0.0,0.0,0.0,0.0,0.0,0.0,0.0,0.0,0.0,0.0,0.0,0.0,0.0,0.0,0.0,0.0,0.0,0.0,0.0,0.0,0.0,0.0,0.0,0.0,0.0,0.0,0.0,0.0,0.0,0.0,0.0,0.0,0.0,0.0,0.0,2.3929,0.0,0.0,0.0,0.0,0.0,0.0,0.0,0.0,0.0,0.0,0.0,0.0,0.0,0.0,0.0,0.0,0.0,0.0,0.0,0.0,0.0,0.0,0.0,0.0,0.0,0.0,0.0,0.0,0.0,0.0,0.0,0.0,0.0,0.0,0.0,0.0,0.0,0.0,0.0,0.0,0.0,2.7131,3.191,3.5749,3.7366,3.7738,3.8736,4.0975,4.051,3.9336,3.7444,0.0,0.0,0.0,0.0,0.0,0.0,0.0,0.0,0.0,0.0,0.0,0.0,0.0,0.0,0.0,0.0,0.0,0.0,0.0,0.0,0.0,0.0,0.0,0.0,0.0,0.0,0.0,0.0,0.0,0.0,0.0,0.0,0.0,0.0,0.0,0.0,0.0,0.0,0.0,0.0,0.0,0.0,0.0,0.0,0.0,0.0,0.0,0.0,0.0,0.0,0.0,0.0,0.0,0.0,0.0,0.0,0.0,0.0,0.0,0.0,0.0,2.4602,0.0,0.0,0.0,0.0,0.0,0.0,0.0,0.0,0.0,0.0,0.0,0.0,0.0,0.0,0.0,0.0,0.0,0.0,0.0,0.0,0.0,0.0,0.0,0.0,0.0,0.0,0.0,0.0,0.0,0.0,0.0,0.0,0.0,0.0,0.0,0.0,0.0,0.0,0.0,0.0,2.6578,3.167,3.5387,3.6222,3.6989,3.8043,3.9355,3.9353,3.8934,3.8126,3.5728,0.0,0.0,0.0,0.0,0.0,0.0,0.0,0.0,0.0,0.0,0.0,0.0,0.0,0.0,0.0,0.0,0.0,0.0,0.0,0.0,0.0,0.0,0.0,0.0,0.0,0.0,0.0,0.0,0.0,0.0,0.0,0.0,0.0,0.0,0.0,0.0,0.0,0.0,0.0,0.0,0.0,0.0,0.0,0.0,0.0,0.0,0.0,0.0,0.0,0.0,0.0,0.0,0.0,2.4754,2.5384,2.5385,2.5385,2.6263,2.7654,2.5671,2.5546,2.6631,0.0,0.0,0.0,0.0,0.0,0.0,0.0,0.0,0.0,0.0,0.0,0.0,0.0,0.0,0.0,0.0,0.0,0.0,0.0,0.0,0.0,0.0,0.0,0.0,0.0,2.7737,2.8816,0.0,0.0,0.0,0.0,0.0,0.0,0.0,0.0,0.0,0.0,0.0,0.0,2.6742,3.1785,3.5286,3.5469,3.6706,3.7624,3.7903,3.8196,3.8453,3.8793,3.6309,3.4729,0.0,0.0,0.0,0.0,0.0,0.0,0.0,0.0,0.0,0.0,0.0,0.0,0.0,0.0,0.0,0.0,0.0,0.0,0.0,0.0,0.0,0.0,0.0,0.0,0.0,0.0,0.0,0.0,0.0,0.0,0.0,0.0,2.3238,2.2924,0.0,0.0,0.0,0.0,0.0,0.0,0.0,0.0,0.0,0.0,0.0,0.0,0.0,0.0,2.1626,2.3595,2.4588,2.4589,2.6678,2.7666,2.767,2.767,2.7817,2.8026,2.7708,0.0,2.8398,2.7423,0.0,0.0,0.0,0.0,0.0,0.0,0.0,0.0,0.0,0.0,0.0,0.0,0.0,0.0,0.0,0.0,0.0,0.0,0.0,0.0,0.0,0.0,3.0332,3.0993,3.1653,3.2417,0.0,2.9601,2.6158,2.6627,2.5697,0.0,0.0,0.0,0.0,0.0,0.0,0.0,2.8975,3.2129,3.4471,3.5385,3.5699,3.645,3.7934,3.7608,3.7731,3.8811,3.8385,3.6975,3.4528,3.3365,0.0,0.0,0.0,0.0,0.0,0.0,0.0,0.0,0.0,0.0,0.0,0.0,0.0,0.0,0.0,0.0,0.0,0.0,0.0,0.0,0.0,0.0,0.0,0.0,0.0,0.0,0.0,0.0,0.0,2.2719,2.343,2.3361,2.3291,2.2653,0.0,0.0,0.0,0.0,0.0,0.0,0.0,0.0,0.0,2.2349,2.2184,2.2287,2.2798,2.4107,2.5122,2.5769,2.7358,2.8431,2.9076,2.9377,2.9528,2.9528,2.9528,2.9439,2.9274,2.7952,2.6992,2.6169,0.0,0.0,0.0,0.0,2.4444,2.4084,2.583,2.5913,0.0,0.0,0.0,0.0,0.0,0.0,0.0,0.0,0.0,0.0,0.0,0.0,0.0,3.1381,3.1843,3.2263,3.326,3.146,2.9518,0.0,2.7655,2.5698,2.2838,0.0,0.0,0.0,0.0,0.0,2.7813,3.1368,3.3849,3.4311,3.536,3.6315,3.7078,3.7443,3.774,3.7853,3.8449,3.8086,3.6419,3.3995,3.1711,0.0,0.0,0.0,0.0,0.0,0.0,0.0,0.0,0.0,0.0,0.0,0.0,0.0,0.0,0.0,0.0,0.0,0.0,0.0,0.0,0.0,0.0,0.0,0.0,0.0,0.0,0.0,0.0,2.4224,2.45,2.4297,2.5001,2.4417,0.0,0.0,0.0,0.0,0.0,0.0,2.2229,2.2207,2.2598,2.3393,2.3164,2.3301,2.3945,2.4743,2.5701,2.6842,2.7959,2.9076,3.0206,3.0288,3.0341,3.0341,2.9992,2.9577,2.9062,2.8323,2.8211,2.8412,2.7176,2.6248,2.5798,2.6816,2.6356,2.5528,2.7748,2.7991,2.7253,2.664,0.0,2.5537,2.4719,0.0,0.0,0.0,0.0,2.7374,2.9202,2.9707,3.008,3.1311,3.1712,3.2019,3.2743,3.2774,3.2371,0.0,3.0059,2.7884,2.4348,0.0,0.0,0.0,0.0,2.6098,2.7745,3.0903,3.3169,3.3671,3.5015,3.6026,3.6358,3.7196,3.7449,3.6942,3.8023,3.8406,3.7721,3.5189,3.3586,3.2997,0.0,0.0,0.0,0.0,0.0,0.0,0.0,0.0,0.0,0.0,0.0,0.0,0.0,0.0,0.0,0.0,0.0,0.0,0.0,0.0,0.0,0.0,0.0,0.0,0.0,0.0,0.0,0.0,0.0,2.6504,2.8246,0.0,0.0,0.0,0.0,2.3078,2.233,2.2291,2.309,2.3149,2.3477,2.4316,2.4336,2.4336,2.4375,2.5476,2.6644,2.785,2.8966,3.015,3.127,3.0174,2.9672,2.9587,2.8348,2.7603,2.7363,2.9007,2.9076,2.7996,2.6929,2.616,2.5611,2.5695,2.6004,2.6655,2.83,2.9214,2.9528,2.8913,2.7706,2.6533,2.6961,2.7267,0.0,0.0,2.9688,3.0722,3.1149,3.1678,3.2064,3.2164,3.2591,3.3036,3.3079,3.2626,3.2598,0.0,3.3288,3.161,2.866,0.0,2.6753,2.6428,2.6515,2.7767,3.0864,3.1453,3.2336,3.4144,3.4459,3.5017,3.631,3.6452,3.6474,3.6449,3.7488,3.7862,3.7192,3.8043,3.6548,3.2227,3.1428,0.0,0.0,0.0,0.0,0.0,0.0,0.0,0.0,0.0,0.0,0.0,0.0,0.0,0.0,0.0,0.0,0.0,0.0,0.0,0.0,0.0,0.0,0.0,0.0,0.0,0.0,0.0,0.0,2.6135,2.6863,0.0,0.0,2.4271,2.4305,2.3611,2.3791,2.4199,2.4785,2.4824,2.4961,2.5206,2.498,2.4844,2.4844,2.4967,2.5562,2.6752,2.7151,2.7917,2.9017,2.8996,2.8982,2.8939,2.8498,2.8344,2.8478,2.8879,2.8407,2.7515,2.7877,2.7439,2.6674,2.7434,2.7854,2.8291,2.995,3.0658,3.0783,3.0583,3.0105,2.9717,2.9854,3.0011,3.0114,3.041,3.1109,3.1777,3.1896,3.234,3.2867,3.3219,3.3445,3.3696,3.4048,3.3972,3.3965,3.4469,3.3415,3.163,2.914,2.8831,2.8186,2.5873,2.6584,2.786,2.926,3.0179,3.1455,3.3288,3.4009,3.4921,3.631,3.6405,3.6405,3.6405,3.6803,3.6887,3.6636,3.6664,3.6271,3.5349,3.4432,3.1739,0.0,0.0,0.0,0.0,0.0,0.0,0.0,0.0,0.0,0.0,0.0,0.0,0.0,0.0,0.0,0.0,0.0,0.0,0.0,0.0,0.0,0.0,0.0,0.0,0.0,0.0,2.6257,2.5954,2.6808,2.6605,2.4577,2.5305,2.5615,2.4938,2.541,2.5801,2.5957,2.5957,2.5849,2.5693,2.5449,2.5293,2.5293,2.5,2.5451,2.663,2.663,2.72,2.8299,2.8273,2.8245,2.8245,2.7788,2.7775,2.8053,2.8321,2.7841,2.6922,2.7871,2.7736,2.7173,2.8422,2.8729,2.8803,3.0267,3.0787,3.0745,3.0306,3.0157,3.0205,3.0398,3.0447,3.0604,3.1417,3.1547,3.169,3.2778,3.3015,3.3168,3.4009,3.4173,3.4274,3.465,3.4831,3.4956,3.4956,3.3947,3.2278,2.993,2.992,2.9186,2.5921,2.6834,2.7871,2.7871,2.8999,3.0412,3.1949,3.2656,3.3552,3.4896,3.4961,3.5122,3.569,3.5197,3.5335,3.6332,3.5037,3.476,3.5719,3.5231,3.2541,2.7754,0.0,0.0,0.0,0.0,0.0,0.0,0.0,0.0,0.0,0.0,0.0,0.0,0.0,0.0,0.0,0.0,0.0,0.0,0.0,0.0,0.0,0.0,0.0,2.7783,2.733,2.6707,2.6265,2.8365,2.8833,2.6086,2.7606,2.8266,2.7114,2.7012,2.6836,2.6426,2.6406,2.6211,2.5732,2.5713,2.5693,2.5693,2.5693,2.6352,2.7552,2.7552,2.8143,2.9212,2.8096,2.7552,2.7458,2.6255,2.5713,2.5849,2.7475,2.7484,2.6477,2.6789,2.6928,2.702,2.8319,2.841,2.8092,2.9234,2.9574,2.9404,2.8136,2.7744,2.7876,2.8455,2.8656,2.9172,3.1451,3.1113,3.0857,3.3892,3.3766,3.3071,3.4409,3.4705,3.4705,3.4731,3.5157,3.5487,3.5487,3.499,3.386,3.1351,3.0942,2.9867,2.6903,2.7539,0.0,2.7207,2.8164,2.9272,3.0193,3.0286,3.0781,3.2135,3.2039,3.2557,3.4242,3.2794,3.3232,3.6141,3.3494,3.2295,3.3089,3.3426,3.2122,2.91,0.0,0.0,0.0,0.0,0.0,0.0,0.0,0.0,0.0,0.0,0.0,0.0,0.0,0.0,0.0,0.0,0.0,0.0,0.0,0.0,0.0,0.0,2.8344,2.7777,2.701,2.6935,2.7957,2.7937,2.7839,2.7918,2.7681,2.7348,2.7012,2.7012,2.6973,2.6855,2.6836,2.6641,2.623,2.6211,2.6055,2.5693,2.5693,2.5868,2.6207,2.6207,2.638,2.6696,2.638,2.6207,2.6207,2.582,2.6044,2.6641,2.6844,2.7091,2.7381,2.7737,2.7338,2.6641,2.7563,2.8396,2.9038,2.9353,2.9442,2.9398,2.9038,2.8947,2.897,2.9126,2.9782,3.0707,3.1796,3.244,3.3126,3.4395,3.4429,3.4346,3.509,3.5282,3.5382,3.583,3.5299,3.4703,3.4703,3.3786,3.2718,3.2027,3.1026,2.9859,2.8449,2.8789,0.0,2.8906,2.8887,2.9152,2.9827,2.9581,2.9899,3.1229,3.1281,3.1723,3.2814,3.2446,3.2548,3.338,3.2937,3.2746,3.2856,3.0697,2.8772,0.0,0.0,0.0,0.0,0.0,0.0,0.0,0.0,0.0,0.0,0.0,0.0,0.0,0.0,0.0,0.0,0.0,0.0,0.0,0.0,0.0,0.0,3.0275,2.9562,2.8556,2.7411,2.6971,2.7945,2.7609,2.7574,2.8249,2.7835,2.7539,2.7539,2.7539,2.748,2.7305,2.7285,2.7012,2.6406,2.6562,2.6445,2.6016,2.6016,2.6094,2.622,2.5869,2.5791,2.5996,2.5771,2.5693,0.0,2.5937,2.6387,2.7012,2.6953,2.7324,0.0,0.0,0.0,0.0,0.0,2.889,2.9929,2.9365,2.9045,2.882,2.8514,2.8307,2.8179,2.8322,2.8761,2.9446,3.0751,3.1192,3.1687,3.3268,3.3291,3.3219,3.4675,3.5229,3.5618,3.6538,3.5819,3.4978,3.4978,3.3368,0.0,3.2236,3.1274,3.0063,2.8849,2.9316,2.957,2.8867,2.9023,2.9253,2.9315,2.9114,2.926,3.0037,3.0005,0.0,0.0,0.0,3.0513,3.0708,3.1494,0.0,0.0,0.0,2.9175,2.8887,0.0,0.0,0.0,2.4012,2.283,0.0,0.0,0.0,0.0,0.0,0.0,0.0,0.0,0.0,0.0,0.0,0.0,0.0,0.0,0.0,0.0,3.0994,3.0553,2.9707,2.8186,2.7168,2.7168,2.75,2.7787,2.7787,2.8066,2.8301,2.8301,2.8301,2.8125,2.7806,0.0,0.0,0.0,0.0,2.6894,2.6465,2.6465,2.6641,2.7012,2.6239,2.6152,2.6523,2.6172,2.5947,2.5927,2.6367,2.6738,2.7109,2.75,2.7963,2.8223,2.7461,2.7129,2.7243,2.8298,2.943,3.0295,2.9042,0.0,0.0,2.723,2.6758,2.6523,2.6894,2.6859,2.7103,2.9102,2.8962,2.8755,3.1563,3.1418,3.1133,3.3575,3.4544,3.5272,3.6456,3.6004,3.5343,3.5343,3.3175,3.1511,3.1913,3.1387,3.0368,2.8849,2.9551,2.9707,2.8139,2.8961,2.9414,2.8848,0.0,0.0,2.8848,2.8568,2.889,3.0089,2.8734,2.8131,2.8583,2.9828,3.0908,3.1877,3.1287,3.1355,3.2163,3.1649,2.9917,2.7014,2.2699,2.1626,0.0,0.0,0.0,0.0,0.0,0.0,0.0,0.0,0.0,0.0,0.0,0.0,0.0,0.0,0.0,3.2272,3.1265,3.0333,3.0181,2.8963,2.8047,2.8047,2.8125,2.8164,2.8164,2.8242,2.8301,2.8301,2.8301,2.8262,2.8184,2.8164,0.0,2.7493,2.75,2.7324,2.6894,2.6894,2.6934,2.7012,0.0,0.0,2.7474,2.7676,2.7617,2.7305,2.7434,2.7461,2.7539,2.7689,2.7963,2.8281,2.8105,2.7832,2.7591,2.7831,2.785,2.7733,2.745,2.7309,2.7199,2.7043,2.6953,2.6914,2.6992,2.7623,0.0,2.9438,3.022,3.098,3.1995,3.2129,3.2028,3.2582,3.3067,3.3481,3.3737,3.3085,3.2427,3.2427,3.1114,3.0135,3.0495,3.0435,3.0379,3.0409,3.0605,3.0371,2.9336,2.9707,2.9512,2.8119,2.8203,2.8418,2.8418,2.8081,2.8259,2.911,2.8858,2.8863,2.9372,2.9928,3.0534,3.1094,3.0634,3.0462,3.0631,3.0214,2.8971,2.7104,2.6153,2.4753,0.0,0.0,0.0,0.0,0.0,0.0,0.0,0.0,0.0,0.0,0.0,3.1307,0.0,0.0,3.2137,3.1577,3.0809,3.0068,2.9408,2.8688,2.8301,2.8301,2.8301,2.8301,2.8301,2.8301,2.8301,2.8301,2.8301,2.8301,2.8301,2.8301,2.8105,2.7728,2.7924,2.7773,2.7344,2.7559,2.7754,2.7969,2.7969,2.8086,2.8301,2.8301,2.8184,2.7988,2.7988,2.7988,2.7988,2.7988,2.8105,2.832,2.8516,2.8476,2.832,2.8535,2.834,2.7988,2.8223,2.8144,2.8008,2.8223,2.8144,2.8008,2.8223,2.8549,2.8955,2.9525,3.0105,3.0601,3.0884,3.0946,3.1106,3.177,3.2348,3.2855,3.3546,3.2955,3.2329,3.2329,3.1196,3.0293,3.0508,3.0547,3.0625,3.0859,3.0898,3.0644,2.998,3.0059,2.9883,2.9023,2.9121,2.9238,2.9238,2.8672,2.8555,2.9199,2.9043,2.9219,2.9863,3.0078,3.041,3.0879,3.0664,3.0547,3.0547,3.0547,2.9271,2.6739,2.7005,2.5659,0.0,0.0,0.0,0.0,0.0,0.0,0.0,0.0,2.9474,3.0582,3.1549,3.2196,3.2017,3.2136,3.1802,3.049,3.0068,2.9513,2.8441,2.8301,2.8301,2.8301,2.8301,2.8301,2.8301,2.8301,2.8301,2.8301,2.8301,2.8301,2.8301,2.8301,2.8144,2.7845,2.8125,2.8125,2.7845,2.8203,2.8574,2.8926,2.875,2.8848,2.916,2.8906,2.875,2.8652,2.8496,2.8418,2.8398,2.832,2.834,2.8457,2.8887,2.9101,2.9199,2.9473,2.9355,2.9101,2.9453,2.9169,2.8586,2.8988,2.863,2.8179,2.8876,2.8853,2.8716,2.9417,2.9626,2.9626,2.9626,2.9626,2.9885,3.0949,3.1609,3.2253,3.3333,3.3133,3.2701,3.2701,3.171,3.0898,3.0898,3.0645,3.0528,3.082,3.0898,3.0723,3.0254,3.0273,3.0293,3.0215,3.0273,3.0332,3.0332,2.9766,2.9492,2.9687,2.9453,2.957,3.0176,3.0293,3.0547,3.0996,3.1016,3.1055,3.1133,3.1484,2.9878,2.6566,2.6942,2.5644,0.0,0.0,0.0,2.8003,2.893,3.0367,0.0,0.0,3.1962,3.3601,3.3038,3.2297,3.2261,3.1323,3.049,3.0359,2.9303,2.8441,2.8301,2.8301,2.8301,2.8301,2.8301,2.8301,2.8301,2.8301,2.8301,2.8301,2.8301,2.8301,2.8301,2.8301,2.8262,2.8223,2.8262,2.8262,2.8223,2.8633,2.8867,2.8926,2.9648,3.0,3.0078,3.043,3.0371,2.9941,2.918,2.8848,2.8828,2.8437,2.8516,2.8887,2.9336,2.9726,3.0019,2.9687,2.9607,2.9512,2.9551,2.8596,2.7296,2.735,2.6399,2.5425,2.6932,2.7332,2.7655,2.9159,2.9626,2.9626,2.9626,2.9626,2.9626,2.9793,3.0165,3.046,3.0631,3.095,3.117,3.117,3.0995,3.0898,3.0898,2.9648,2.9157,3.0704,3.0898,3.0723,3.0254,3.0547,3.0644,3.0234,3.0566,3.082,3.082,3.1074,3.0918,3.0176,3.0469,3.0527,3.0215,3.0586,3.1016,3.1445,3.1445,3.1641,3.2031,3.207,3.0384,2.7024,2.7074,2.5337,3.0148,0.0,0.0,0.0,3.304,3.3917,3.4811,3.3883,3.3149,3.4171,3.3254,3.2079,3.1265,3.0669,3.0068,0.0,2.8654,2.8301,2.8301,2.8301,2.8301,2.8301,2.8301,2.8301,2.8301,2.8301,2.8301,2.8301,2.8301,2.8301,2.8301,2.8301,2.8301,2.8301,2.8301,2.8418,2.8652,2.9082,2.9414,2.9668,3.0293,3.0605,3.0605,3.0801,3.0644,3.0176,2.9824,2.9531,2.9277,2.9101,2.9141,2.9336,2.9766,3.0039,3.0215,3.0312,3.0332,3.0332,3.0332,2.9257,2.7863,2.7863,2.6786,2.5761,2.7393,2.7863,2.8232,2.9853,3.0332,3.0332,3.0332,3.0332,3.0332,3.0332,3.0469,3.0605,3.0605,3.0762,3.0898,3.0898,3.0079,2.9471,2.9471,2.811,2.7254,2.7931,2.8861,2.971,3.0509,3.0762,3.0918,3.0957,3.1367,3.1641,3.1641,3.1562,3.1465,3.1348,3.1289,3.1289,3.1348,3.1523,3.1719,3.1894,3.1894,3.1992,3.2229,3.1442,2.9771,2.7276,2.6516,2.4745,3.2347,0.0,0.0,3.5232,3.5855,3.6188,3.5387,3.4126,3.3208,3.3235,3.2151,3.0927,2.9911,2.9755,0.0,2.8441,2.8301,2.8301,2.8301,2.8301,2.8301,2.8301,2.8301,2.8301,2.8301,2.8301,2.8301,2.8301,2.8301,2.8301,2.8301,2.8301,2.8301,2.8301,2.8398,2.8613,2.8906,2.9473,2.9902,3.0195,3.0664,3.0898,3.0898,3.0898,3.0703,3.0391,3.0254,3.0019,2.9726,2.9665,2.9704,2.9766,3.0078,3.0273,3.043,3.0762,3.0898,3.082,3.0392,2.9098,2.7692,2.7211,2.5984,2.5008,2.7134,2.7751,2.817,3.0333,3.0898,3.0898,3.0898,3.0898,3.0898,3.0898,3.0898,3.0898,3.0898,3.0898,3.0762,3.0333,2.9216,2.823,2.7811,2.6409,2.5497,2.5924,2.6675,2.7754,2.9353,3.0057,3.0719,3.16,3.209,3.2344,3.2344,3.2168,3.2129,3.2324,3.2051,3.1953,3.2168,3.2229,3.2226,3.2344,3.2344,3.2199,3.1803,3.0751,2.9084,2.6936,2.5906,2.4329,0.0,0.0,3.4073,3.458,3.5554,3.6048,3.4703,3.333,3.1955,3.0669,2.9355,2.8388,2.8388,2.8335,2.8354,2.8301,2.8301,2.8301,2.8301,2.8301,2.8301,2.8301,2.8301,2.8301,0.0,2.8301,2.8301,2.8301,2.8301,2.8301,2.8301,2.8301,2.8301,2.8301,2.8691,2.8906,2.8926,2.9746,3.0176,3.0195,3.0664,3.0898,3.0898,3.0898,3.0879,3.084,3.0391,3.0195,3.0137,2.9726,2.9805,3.0176,3.0195,3.0469,3.0879,3.0879,3.0898,3.0645,2.9039,2.7434,2.5802,2.424,2.2591,2.1839,2.5069,2.6045,2.6772,2.9962,3.0898,3.0898,3.0898,3.0898,3.0898,3.0898,3.0898,3.0898,3.0898,3.0898,3.0392,2.8783,2.8408,2.7931,2.6349,2.4717,2.4178,2.5741,2.4937,2.4593,2.5973,2.7887,2.9897,3.1968,3.2519,3.2773,3.2773,3.3144,3.3184,3.2793,3.2773,3.2578,3.2248,3.2229,3.2363,3.2773,3.2773,3.2118,3.0864,3.0565,2.8755,2.5554,2.5255,2.4127,0.0,0.0,3.568,3.6207,3.6634,3.6522,3.4799,3.3304,3.1927,3.0566,2.9197,2.8301,2.8301,2.8301,2.8301,2.8301,2.8301,2.8301,2.8301,2.8301,2.8301,2.8301,2.8301,0.0,0.0,0.0,0.0,2.8301,2.8301,2.8301,2.8301,2.8301,2.8301,2.8301,2.8711,2.9062,2.9355,2.9922,3.0351,3.0664,3.082,3.0333,2.9275,3.0392,3.0274,2.9275,3.0238,3.0664,3.0664,3.0801,3.0937,3.0957,2.9896,2.9554,2.9527,2.8157,2.7632,2.7692,2.823,2.6651,2.4301,2.376,2.2466,2.1713,2.5008,2.5984,2.6712,2.9962,3.0898,3.0898,3.0898,3.0898,3.0898,3.0898,3.0898,3.0898,3.0898,3.0898,3.0392,2.8724,2.7572,2.6288,2.4655,2.3014,2.2223,2.299,2.4529,2.583,2.6507,2.8487,3.0101,3.0828,3.2243,3.3203,3.3203,3.334,3.3359,3.3223,3.3203,3.3144,3.3008,3.3008,3.3066,3.3203,3.2093,3.124,3.0771,2.8342,2.6581,2.545,2.4217,2.32,0.0,3.5805,3.6257,3.6985,3.7036,3.6327,3.4139,3.2955,3.1774,2.9964,2.878,2.8066,2.8066,2.8066,2.8125,2.8262,2.8418,2.8516,2.8516,2.8516,2.8457,2.832,2.8301,0.0,0.0,0.0,0.0,2.8301,2.8301,2.8301,2.8301,2.8301,2.8301,2.8301,2.8848,2.9277,2.9626,3.0156,3.0586,3.0898,3.0274,2.9471,2.8426,2.892,2.8861,2.8486,2.953,3.041,3.1074,3.0713,3.0664,3.0596,2.8814,2.8132,2.7957,2.6543,2.5619,2.5314,2.6365,2.533,2.3512,2.2904,2.1978,2.1713,2.5008,2.5984,2.6712,2.9962,3.0898,3.0898,3.0898,3.0898,3.0937,3.1074,3.1113,3.0937,3.0367,3.0249,2.9576,2.728,2.5999,2.4812,2.3272,2.1582,2.0333,1.994,2.222,2.4539,2.6038,2.747,2.8892,3.0265,3.1623,3.2702,3.3355,3.3418,3.3418,3.3418,3.3418,3.3418,3.3418,3.2829,3.2492,3.2447,3.0789,2.9591,2.9072,2.6577,2.5137,2.4692,2.3338,2.2659,3.4656,3.5583,3.5834,3.696,3.6784,3.5595,3.2883,3.223,3.1469,2.8787,2.791,2.7669,0.0,0.0,2.7806,2.8164,2.8594,2.8887,2.8887,2.8887,2.873,0.0,0.0,0.0,0.0,0.0,0.0,2.8301,0.0,2.8301,2.8301,2.8301,2.8301,2.8301,2.9121,2.9626,2.9626,3.0449,3.0898,3.0898,2.9216,2.8367,2.823,2.6712,2.6832,2.8289,2.8325,2.9476,3.1206,2.9562,2.9046,2.9208,2.7114,2.6297,2.6248,2.5888,2.4794,2.3479,2.3494,2.3479,2.3201,2.1614,2.1122,2.1727,2.4885,2.5924,2.6685,2.9941,3.0859,3.0918,3.0918,3.0859,3.0898,3.1307,3.1285,3.0847,2.9265,2.8979,2.7983,2.4684,2.3877,2.3356,2.2055,2.0298,1.8553,1.7001,1.8356,2.0736,2.4378,2.4988,2.6543,3.0136,3.0595,3.1405,3.3102,3.3292,3.3292,3.3418,3.3418,3.3374,3.3311,3.1726,3.0761,3.0732,2.902,2.7379,2.601,2.5316,2.442,2.3287,2.2712,2.2605,3.6268,3.6759,3.6935,3.7613,3.6308,3.4459,3.2682,3.152,3.0118,2.7823,2.7246,2.6992,0.0,0.0,0.0,2.7324,2.7969,0.0,2.8457,2.8457,0.0,0.0,0.0,2.8301,2.8301,2.8301,0.0,0.0,2.8301,2.8301,2.8301,2.8301,2.8301,2.8301,2.9121,2.9626,2.9626,3.0449,3.0898,3.0898,2.9216,2.7751,2.6591,2.6167,2.6227,2.6608,2.6817,2.7922,2.9441,2.8323,2.7916,2.7822,2.5801,2.5037,2.4863,2.329,2.244,2.2162,2.2318,2.2098,2.1705,2.1555,2.1296,2.1475,2.3559,2.526,2.689,2.8998,3.0417,3.1367,3.1367,3.0357,2.9457,2.9549,2.8808,2.7878,2.7261,2.7306,2.675,2.4477,2.2046,2.0331,1.9941,1.834,1.7058,1.6795,1.7179,1.8479,2.1021,2.3756,2.5747,2.6757,2.8032,2.954,3.1304,3.1433,3.2027,3.3292,3.3418,3.2899,3.1828,3.1306,3.0575,2.9497,2.7747,2.6573,2.601,2.4507,2.3529,2.2979,2.2819,2.2913,3.6646,3.7186,3.7262,3.7563,3.5991,3.3901,3.2139,3.0708,2.9051,2.6665,2.6172,0.0,0.0,0.0,0.0,0.0,0.0,0.0,2.8574,2.8574,2.8496,0.0,2.8301,0.0,2.8301,2.8301,2.8301,0.0,2.8301,2.8301,2.8301,2.8301,2.8301,2.8301,2.9121,2.9746,3.0137,3.0644,3.0509,2.9766,2.811,2.653,2.4901,2.4163,2.4301,2.5138,0.0,2.6461,2.8191,2.6874,2.648,2.6459,2.443,2.3657,2.3483,2.2236,2.1815,2.1777,2.2071,2.1871,2.1496,2.1601,2.1443,2.1588,2.312,2.4486,2.5798,2.7456,2.864,2.9476,2.9476,2.8782,2.8075,2.823,2.7626,2.6757,2.6009,2.5833,2.5352,2.3659,2.1314,1.9356,1.8459,1.6805,1.5256,1.4605,1.5244,1.619,1.7438,2.0845,2.3746,2.5301,2.6373,2.7701,2.954,2.967,3.013,3.1237,3.1302,3.0954,3.0111,2.9311,2.8456,2.7474,2.5727,2.4829,2.4801,2.3652,2.3166,2.326,2.3126,2.2732,3.6381,3.7186,3.7186,3.7186,3.5673,3.3564,3.1576,2.9808,2.7943,2.552,0.0,0.0,2.3769,0.0,2.623,2.6289,0.0,2.8769,2.8828,2.8828,2.8711,2.834,2.8301,2.8301,2.8301,2.8301,2.8301,2.8301,2.8301,2.8301,2.8301,2.8301,2.834,2.8457,2.9238,2.9982,3.0567,3.0587,2.9726,2.8051,2.647,2.4962,2.3512,2.1894,2.2173,2.4004,0.0,0.0,2.7052,2.5333,2.4863,2.4949,2.3118,2.2418,2.2392,2.2138,2.2044,2.2084,2.2378,2.2311,2.2058,2.1489,2.1474,2.1754,2.2657,2.348,2.4366,2.5784,2.6545,2.6982,2.7031,2.6856,2.6809,2.7101,2.6923,2.6278,2.4994,2.4473,2.3927,2.2687,2.1009,1.9217,1.7458,1.5425,1.3444,1.1828,1.2975,1.4181,1.4395,1.778,2.1333,2.4481,2.5081,2.5974,2.7781,2.798,2.8178,2.8623,2.859,2.8523,2.8302,2.6846,2.5769,2.5246,2.379,2.31,2.3327,2.31,2.3303,2.3714,2.3487,2.2454,3.6748,3.7186,3.7186,3.7186,3.489,3.2497,3.1712,2.9141,0.0,0.0,0.0,2.375,2.2891,0.0,0.0,2.5781,0.0,0.0,0.0,0.0,2.8379,0.0,0.0,0.0,0.0,0.0,0.0,0.0,0.0,2.8301,2.8301,2.8301,2.8613,2.9316,2.9824,2.968,2.8842,2.8842,2.7991,2.6409,2.4778,2.3869,2.3527,2.2179,2.2446,2.3955,2.3084,0.0,2.5252,2.3809,2.3284,2.3297,2.266,2.2418,2.2405,2.2365,2.2338,2.2392,2.2686,2.2752,2.2455,2.0576,2.0737,2.1343,1.9958,2.1862,2.457,2.4827,2.6103,2.7473,2.772,2.6732,2.5635,2.568,2.481,2.3776,2.3037,2.2833,2.2821,2.2794,2.0027,1.7599,1.7248,1.4369,1.1972,1.1619,1.2004,1.2801,1.4452,1.802,2.065,2.127,2.2999,2.4848,2.6532,2.674,2.7376,2.8865,2.8738,2.8028,2.68,2.6283,2.5371,2.4088,2.3819,2.3514,2.3327,2.3527,2.3541,2.3407,2.3607,2.2747,3.6399,3.6807,3.6807,3.6807,3.4693,3.2482,3.1736,0.0,0.0,0.0,0.0,2.2598,2.1973,0.0,0.0,0.0,0.0,0.0,0.0,0.0,0.0,0.0,0.0,0.0,0.0,0.0,0.0,0.0,0.0,0.0,2.8301,2.8496,2.8906,2.9551,2.998,2.9622,2.8408,2.8426,2.7151,2.4717,2.3993,2.3227,2.2532,2.1869,2.2165,2.3173,2.2618,0.0,2.2321,2.1739,2.0825,2.0039,2.0897,2.1189,2.1326,2.2306,2.2645,2.2672,2.2819,2.2229,2.1113,1.9147,1.9424,2.0298,1.9232,2.046,2.2297,2.342,2.4622,2.5574,2.5736,2.4315,2.2812,2.2812,2.2203,2.1477,2.1064,2.1849,2.2413,2.1571,1.9147,1.6936,1.6059,1.3586,1.1755,1.1837,1.1904,1.2314,1.3265,1.5958,1.8093,1.8918,1.9953,2.139,2.3235,2.3448,2.4227,2.6154,2.6161,2.5725,2.4819,2.4678,2.4192,2.337,2.346,2.3474,2.3327,2.3621,2.3781,2.3781,2.2896,2.1545,3.5953,3.6405,3.6405,3.6405,3.4693,3.2667,3.1458,2.8287,0.0,0.0,0.0,2.168,2.1426,0.0,0.0,0.0,0.0,0.0,0.0,0.0,0.0,0.0,0.0,0.0,0.0,0.0,0.0,0.0,0.0,0.0,2.8418,2.8828,2.9258,2.9687,2.9756,2.9175,2.7931,2.7572,2.5973,2.3179,2.3179,2.2673,2.1708,2.1775,2.178,2.18,2.1865,0.0,0.0,1.9495,1.8589,1.7318,1.8868,1.9704,2.0271,2.1734,2.2585,2.2928,2.2928,2.1703,1.9819,1.8091,1.8133,1.8754,1.8271,1.8586,1.9506,2.1165,2.2033,2.2464,2.2578,2.1305,1.9929,1.9884,1.9678,1.9438,1.9175,2.0816,2.176,1.9912,1.8304,1.6751,1.5035,1.3109,1.1925,1.2047,1.2088,1.2108,1.2108,1.368,1.5244,1.6517,1.7414,1.8571,2.0106,2.0627,2.1583,2.3209,2.3673,2.3754,2.3527,2.346,2.334,2.3153,2.3394,2.3514,2.3514,2.3808,2.4035,2.4136,2.2166,2.0352,3.569,3.6405,3.6405,3.6405,3.4693,3.2555,3.0895,0.0,0.0,0.0,2.1877,2.1366,2.1758,2.2617,0.0,0.0,0.0,0.0,0.0,0.0,0.0,0.0,0.0,0.0,0.0,0.0,0.0,0.0,0.0,0.0,2.8739,2.9277,2.9707,3.0137,2.9114,2.7836,2.6227,2.4778,2.3285,2.1767,2.1767,2.1851,2.1951,2.2218,2.1411,1.9891,2.0197,0.0,0.0,1.7458,1.7398,1.7258,1.7398,1.8589,2.012,2.0271,2.1459,2.2928,2.2928,2.1761,1.9991,1.8143,1.7328,1.6776,1.5176,1.5803,1.7151,1.7457,1.7774,1.8124,1.8549,1.8403,1.8114,1.7991,1.7693,1.7458,1.7438,1.8985,1.9843,1.807,1.7612,1.6894,1.5143,1.3356,1.2047,1.2135,1.2182,1.2271,1.2271,1.267,1.2991,1.3134,1.6357,1.8587,1.8813,2.0474,2.1605,2.1754,2.3254,2.4155,2.4128,2.3875,2.3848,2.4075,2.4102,2.4128,2.4128,2.4409,2.4436,2.4136,2.2362,2.0519,3.6228,3.6908,3.6743,3.6186,3.454,3.2628,3.0608,0.0,0.0,2.3305,2.2069,2.1327,2.1797,2.2621,2.354,0.0,0.0,0.0,0.0,0.0,0.0,0.0,0.0,0.0,0.0,0.0,0.0,0.0,0.0,0.0,2.6438,2.7618,2.8823,3.0176,2.9053,2.7632,2.6045,2.4549,2.3125,2.1614,2.1724,2.1964,2.2178,2.1196,2.044,1.9841,1.8824,0.0,0.0,1.5486,1.4858,1.3951,1.507,1.5981,1.6826,1.7949,1.9565,2.1057,2.0017,1.9204,1.8338,1.6571,1.5083,1.4002,1.4402,1.5042,1.5942,1.7213,1.7721,1.8036,1.836,1.7375,1.5981,1.4637,1.5113,1.5849,1.5849,1.7283,1.8104,1.6304,1.5958,1.5406,1.3778,1.2851,1.2359,1.2447,1.2515,1.2556,1.2556,1.2576,1.263,1.2718,1.4233,1.573,1.6961,1.7692,1.9094,2.1365,2.2031,2.2933,2.4123,2.4088,2.4168,2.4462,2.4462,2.4462,2.4462,2.4583,2.4583,2.4389,2.246,2.0542,3.5745,3.6646,3.6819,3.6328,3.4583,3.2448,0.0,0.0,0.0,2.337,2.215,2.1366,2.1973,2.2559,2.3242,0.0,0.0,0.0,0.0,0.0,0.0,0.0,0.0,0.0,0.0,0.0,0.0,0.0,0.0,0.0,0.0,2.5652,2.7173,2.9603,2.8814,2.7632,2.6045,2.4688,2.322,2.1748,2.1977,2.2271,2.2484,2.0612,1.9531,1.9147,0.0,0.0,0.0,1.3587,1.2817,1.1763,1.3024,1.3943,1.4574,1.591,1.764,1.913,1.7948,1.7158,1.6588,1.5475,1.3808,1.2463,1.3629,1.401,1.4326,1.5809,1.6423,1.6642,1.6809,1.5666,1.4104,1.2538,1.3126,1.4038,1.4038,1.5571,1.6333,1.4538,1.4628,1.4525,1.2894,1.2637,1.2678,1.2779,1.28,1.28,1.28,1.2739,1.2725,1.2793,1.2976,1.3653,1.4861,1.5479,1.692,1.9584,2.0241,2.1181,2.2608,2.3301,2.3464,2.2979,2.4204,2.4539,2.3851,2.4459,2.4716,2.4562,2.2509,2.0155,3.3808,3.5379,3.6556,3.7061,3.4742,3.2,0.0,0.0,2.4062,2.2773,2.1836,2.1463,2.2344,2.2519,2.2793,2.3652,0.0,0.0,0.0,0.0,0.0,0.0,0.0,0.0,0.0,0.0,0.0,0.0,0.0,0.0,0.0,2.3772,2.4779,2.8331,2.8408,2.7632,2.6045,2.4688,2.3335,2.1991,2.2271,2.2565,2.2859,2.0963,1.9066,0.0,0.0,0.0,0.0,1.1619,1.1619,1.1619,1.1619,1.2745,1.4432,1.4432,1.5756,1.75,1.75,1.6479,1.511,1.5119,1.3885,1.2467,1.2325,1.2074,1.1891,1.2278,1.2572,1.277,1.262,1.2579,1.2461,1.2325,1.2244,1.2135,1.2135,1.3601,1.4431,1.2818,1.4022,1.4825,1.33,1.2956,1.3036,1.3043,1.3043,1.3043,1.3043,1.3078,1.3112,1.2976,1.322,1.3152,1.2556,1.4571,1.5827,1.5827,1.7851,1.9053,1.9053,2.1179,2.1346,1.9308,2.3381,2.4341,2.2053,2.4072,2.493,2.4562,2.2509,1.9403,3.2274,3.4032,3.5048,3.4216,3.2391,3.0348,2.838,0.0,2.3711,2.2715,2.2305,2.2146,2.2461,2.2519,2.2988,2.4434,0.0,0.0,0.0,0.0,0.0,0.0,0.0,0.0,0.0,0.0,0.0,0.0,0.0,0.0,0.0,2.2599,2.4719,2.8289,2.7314,2.653,2.5984,2.4856,2.3487,2.1991,2.2485,2.2766,2.2791,1.9565,0.0,0.0,0.0,0.0,0.0,1.1619,1.1619,1.1626,1.1728,1.2119,1.2634,1.2751,1.405,1.5565,1.439,1.4428,1.491,1.3679,1.2993,1.2651,1.2603,1.2379,1.1881,1.052,1.1463,1.2556,1.0901,1.1536,1.2644,1.2603,1.2474,1.2366,1.2366,1.2895,1.3233,1.2715,1.3211,1.3583,1.3233,1.3024,1.2996,1.3091,1.3024,1.2996,1.3091,1.3057,1.3051,1.3098,1.3105,1.3064,1.2969,1.3639,1.4616,1.596,1.6599,1.7645,1.9283,2.0006,2.0095,1.9541,2.0654,2.1465,2.1977,2.2491,2.3353,2.4488,2.1141,1.8874,0.0,3.1839,3.3203,3.2065,3.0743,0.0,0.0,0.0,0.0,2.2852,2.25,2.2324,2.248,2.2024,2.2165,2.3861,2.3532,0.0,0.0,0.0,0.0,0.0,0.0,0.0,0.0,0.0,0.0,0.0,0.0,0.0,0.0,2.1572,2.3657,2.647,2.6772,2.6591,2.5984,2.5581,2.4222,2.1991,2.2579,2.2516,2.1734,1.8648,0.0,0.0,0.0,0.0,0.0,1.1762,1.1789,1.1796,1.1884,1.1918,1.1932,1.2026,1.2835,1.3783,1.2705,1.3115,1.4061,1.2944,1.2135,1.1531,1.1531,1.1415,1.0975,0.9667,0.9887,1.0362,0.9793,1.0627,1.1848,1.2655,1.2745,1.2678,1.2678,1.2752,1.2834,1.2888,1.2976,1.3085,1.3234,1.3139,1.3071,1.3159,1.3098,1.3051,1.3085,1.3064,1.303,1.301,1.3024,1.3057,1.3091,1.3146,1.3736,1.5012,1.5054,1.5635,1.7117,1.7932,1.7938,1.7155,1.8445,1.9229,1.9538,2.0156,2.1141,2.2273,1.895,1.7436,0.0,0.0,0.0,0.0,0.0,0.0,0.0,0.0,0.0,0.0,2.25,2.209,2.248,2.1264,2.0752,2.2427,2.1757,0.0,0.0,0.0,0.0,0.0,0.0,0.0,0.0,0.0,0.0,0.0,0.0,0.0,0.0,2.0802,2.1853,2.3574,2.6486,2.7331,2.5896,2.6414,2.5126,2.2017,2.2524,2.1803,2.0051,1.7949,0.0,0.0,0.0,0.0,0.0,1.1986,1.2128,1.206,1.2074,1.2081,1.2155,1.2088,1.2189,1.2325,1.2325,1.2508,1.2667,1.2509,1.1078,0.9406,0.9411,0.9411,0.9301,0.9029,0.7789,0.6886,0.867,0.9471,1.0276,1.2321,1.2889,1.2963,1.2963,1.305,1.3017,1.3146,1.318,1.3227,1.3363,1.3261,1.3159,1.3159,1.3146,1.3098,1.2976,1.3078,1.3051,1.2773,1.2996,1.3105,1.2969,1.3098,1.3186,1.3186,1.3322,1.3403,1.3403,1.5194,1.5184,1.3043,1.6754,1.7702,1.5463,1.7588,1.8572,1.8572,1.6447,1.5463,0.0,0.0,0.0,0.0,0.0,0.0,0.0,0.0,0.0,0.0,0.0,0.0,0.0,0.0,0.0,0.0,0.0,0.0,0.0,0.0,0.0,0.0,0.0,0.0,0.0,0.0,0.0,0.0,0.0,0.0,0.0,2.0909,2.1853,2.3574,2.4301,2.4673,2.4483,2.4784,2.4094,2.2325,2.1227,2.0548,1.9982,1.6615,0.0,0.0,0.0,0.0,1.1837,1.187,1.1952,1.2074,1.2189,1.2237,1.225,1.2359,1.2494,1.2623,1.2623,1.2752,1.2662,1.1039,0.9012,0.723,0.7376,0.7349,0.6873,0.5099,0.5613,0.6397,0.5172,0.7332,0.9889,1.0471,1.1813,1.2963,1.2963,1.3044,1.3132,1.3166,1.3268,1.3322,1.3241,1.3105,1.301,1.301,1.2908,1.2868,1.2949,1.299,1.2983,1.2915,1.2969,1.2996,1.2963,1.32,1.3349,1.3349,1.3383,1.3403,1.3403,1.3739,1.3665,1.3043,1.5163,1.6033,1.5463,1.7588,1.8572,1.8572,1.6447,1.5463,0.0,0.0,0.0,0.0,0.0,0.0,0.0,0.0,0.0,0.0,0.0,0.0,0.0,0.0,0.0,0.0,0.0,0.0,0.0,0.0,0.0,0.0,0.0,0.0,0.0,0.0,0.0,0.0,0.0,0.0,0.0,2.0949,2.1538,2.2404,2.2609,2.3131,2.3989,2.4253,2.3731,2.2351,2.084,1.9634,1.8659,1.5799,1.4065,0.0,0.0,0.0,1.2047,1.2115,1.2189,1.2271,1.2352,1.2427,1.2501,1.2576,1.2705,1.2834,1.2834,1.2243,1.1189,0.9092,0.6831,0.5041,0.5127,0.436,0.3492,0.3323,0.3407,0.3572,0.3306,0.5005,0.7026,0.8052,1.0035,1.1592,1.1592,1.2477,1.3028,1.1946,1.1836,1.1511,1.0388,1.0109,1.034,1.1334,1.1342,1.1615,1.2667,1.2813,1.2827,1.2759,1.2813,1.2854,1.2854,1.3064,1.32,1.32,1.32,1.32,1.32,1.3051,1.2901,1.2752,1.3656,1.4099,1.4099,1.5242,1.5769,1.5769,1.4629,1.4099,0.0,0.0,0.0,0.0,0.0,0.0,0.0,0.0,0.0,0.0,0.0,0.0,0.0,0.0,0.0,0.0,0.0,0.0,0.0,0.0,0.0,0.0,0.0,0.0,0.0,0.0,0.0,0.0,0.0,0.0,0.0,2.0975,2.1109,2.1109,2.1403,2.2259,2.3696,2.394,2.3553,2.2418,2.0577,1.8809,1.7168,1.5147,1.3363,0.0,0.0,0.0,1.2298,1.242,1.2481,1.2501,1.2501,1.2596,1.2732,1.2732,1.284,1.2996,1.2695,1.0901,0.8481,0.6728,0.466,0.2824,0.2795,0.1527,0.0423,0.2301,0.1525,0.0419,0.2152,0.2971,0.3878,0.6025,0.8314,1.0122,1.0439,1.2026,1.2688,1.0495,1.0076,0.9293,0.7058,0.658,0.7076,0.8818,0.9361,1.0196,1.1811,1.2376,1.2644,1.2515,1.2617,1.2698,1.2698,1.2834,1.2929,1.2929,1.2949,1.2949,1.2929,1.28,1.2657,1.2508,1.2501,1.2501,1.2501,1.2501,1.2501,1.2501,1.2501,1.2501,0.0,0.0,0.0,0.0,0.0,0.0,0.0,0.0,0.0,0.0,0.0,0.0,0.0,0.0,0.0,0.0,0.0,0.0,0.0,0.0,0.0,0.0,0.0,0.0,0.0,0.0,0.0,0.0,0.0,0.0,0.0,0.0,2.1109,2.1109,2.1403,2.1865,2.2304,2.259,2.2768,2.2792,1.9333,1.7561,1.7307,1.3833,1.2192,0.0,0.0,1.2169,1.2291,1.2311,1.2393,1.2501,1.2501,1.2596,1.2732,1.2732,1.2901,1.2908,1.1123,0.7833,0.4251,0.3978,0.2331,0.0504,0.0506,0.0255,0.0085,0.0428,0.0253,0.0083,0.0414,0.19,0.3886,0.617,0.8444,1.0605,1.232,1.2962,1.2589,1.0265,0.984,0.9154,0.689,0.6546,0.6594,0.6755,0.8306,0.9553,0.9848,1.1423,1.2528,1.2501,1.2522,1.2535,1.2535,1.2678,1.2766,1.2766,1.2888,1.2901,1.2773,1.2745,1.2657,1.2508,1.2501,1.2501,1.2501,1.2501,1.2501,1.2501,1.2501,1.2501,2.2246,2.3262,0.0,0.0,0.0,0.0,0.0,0.0,0.0,0.0,0.0,0.0,0.0,0.0,0.0,0.0,0.0,0.0,0.0,0.0,0.0,0.0,0.0,0.0,0.0,0.0,0.0,0.0,0.0,0.0,0.0,0.0,2.1109,2.1109,2.155,2.1857,2.1991,2.2432,2.2235,2.1321,1.8508,1.6803,1.5867,1.3228,1.204,1.2189,0.0,1.2338,1.2406,1.2406,1.2488,1.2623,1.2623,1.2766,1.2976,1.3064,1.2432,1.114,0.9026,0.6093,0.3078,0.1918,0.0834,0.0,0.0,0.0,0.0,0.0,0.0,0.0,0.0,0.0751,0.1754,0.2852,0.5671,0.8449,0.939,1.1469,1.2056,0.8666,0.8008,0.6945,0.3542,0.2977,0.3372,0.4392,0.6339,0.8129,0.9228,1.1215,1.2501,1.2501,1.2576,1.2623,1.2623,1.2766,1.2854,1.2854,1.284,1.2807,1.2732,1.2651,1.261,1.2623,1.2542,1.2542,1.2623,1.2542,1.2501,1.2501,1.2501,1.2549,2.2461,2.3262,0.0,0.0,0.0,0.0,0.0,0.0,0.0,0.0,0.0,0.0,0.0,0.0,0.0,0.0,0.0,0.0,0.0,0.0,0.0,0.0,0.0,0.0,0.0,0.0,0.0,0.0,0.0,0.0,0.0,0.0,2.1149,2.1216,2.171,2.2017,2.2084,2.2185,2.1527,2.0063,1.8142,1.6373,1.4714,1.2926,1.2196,1.2345,1.2454,1.2501,1.2508,1.2542,1.2311,1.2016,1.2529,1.2942,1.3193,1.3342,1.1635,0.8961,0.7307,0.4846,0.2243,0.0589,0.0,0.0,0.0,0.0,0.0,0.0,0.0,0.0,0.0,0.0,0.0168,0.0673,0.3743,0.6666,0.714,1.0238,1.161,0.7336,0.6448,0.5088,0.0731,0.0,0.0569,0.211,0.4183,0.6154,0.7748,0.974,1.1263,1.1738,1.1918,1.2232,1.2748,1.2942,1.3024,1.3064,1.2888,1.2786,1.2786,1.2671,1.2664,1.2779,1.2671,1.2651,1.2732,1.261,1.2535,1.2501,1.2535,1.2617,2.4199,2.4609,2.457,2.5382,0.0,0.0,0.0,0.0,0.0,0.0,0.0,0.0,0.0,0.0,0.0,0.0,0.0,0.0,0.0,0.0,0.0,0.0,0.0,0.0,0.0,0.0,0.0,0.0,0.0,0.0,0.0,0.0,0.0,2.1574,2.1817,2.2111,2.2392,2.0965,2.0201,2.0063,1.8301,1.6581,1.4826,1.3093,1.2352,1.2488,1.2494,1.2501,1.2515,1.2657,1.1445,0.9871,1.2077,1.3037,1.3193,1.3342,1.0632,0.6878,0.6782,0.3891,0.0253,0.0085,0.0,0.0,0.0,0.0,0.0,0.0,0.0,0.0,0.0,0.0,0.0505,0.2604,0.4821,0.7058,0.8936,1.1163,1.147,0.7171,0.6297,0.4963,0.0731,0.0,0.0081,0.0163,0.2028,0.3401,0.3563,0.5414,0.7504,0.9607,0.9778,1.0717,1.2963,1.3152,1.322,1.3363,1.3105,1.2942,1.2942,1.2935,1.2935,1.2942,1.2935,1.2861,1.2732,1.2718,1.2637,1.2508,1.2651,1.2718,2.2465,2.3439,2.4079,2.5091,0.0,0.0,0.0,0.0,0.0,0.0,0.0,0.0,0.0,0.0,0.0,0.0,0.0,0.0,0.0,0.0,0.0,0.0,0.0,0.0,0.0,0.0,0.0,0.0,0.0,0.0,0.0,0.0,0.0,2.1817,2.2111,2.2485,2.2979,2.1331,1.9892,1.8728,1.674,1.4872,1.3244,1.2636,1.2366,1.2501,1.2501,1.2556,1.2651,1.2705,1.147,0.9759,1.0781,1.1188,1.1245,1.1288,0.9389,0.6522,0.5107,0.264,0.0,0.0,0.0,0.0,0.0,0.0,0.0,0.0,0.0,0.0,0.0,0.0,0.0252,0.1074,0.2884,0.46,0.5358,0.7259,0.7877,0.4909,0.4349,0.3397,0.0492,0.0,0.0494,0.1823,0.2637,0.3606,0.4995,0.5854,0.6633,0.7444,0.8878,1.0683,1.3137,1.3315,1.3342,1.3397,1.3207,1.3091,1.3091,1.301,1.3003,1.3091,1.3003,1.2976,1.3003,1.2915,1.2847,1.2786,1.2847,1.2922,2.1824,2.2876,2.3779,0.0,0.0,0.0,0.0,0.0,0.0,0.0,0.0,0.0,0.0,0.0,0.0,0.0,0.0,0.0,0.0,0.0,0.0,0.0,0.0,0.0,0.0,0.0,0.0,0.0,0.0,0.0,0.0,0.0,0.0,0.0,2.2552,2.2953,2.346,2.1031,1.9184,1.7933,1.5242,1.3342,1.2291,1.2338,1.2413,1.2508,1.2556,1.263,1.2739,1.2834,1.1714,0.9773,0.8465,0.8332,0.8932,0.9031,0.7603,0.5373,0.394,0.1881,0.0,0.0,0.0,0.0,0.0,0.0,0.0,0.0,0.0,0.0,0.0,0.0,0.0,0.0,0.1565,0.3129,0.3105,0.4791,0.5674,0.3502,0.3098,0.2456,0.0332,0.0582,0.1583,0.3102,0.3251,0.3732,0.5303,0.4774,0.4831,0.6299,0.8483,1.0788,1.3224,1.3403,1.3403,1.3403,1.3302,1.3247,1.3247,1.3152,1.3146,1.3241,1.3152,1.3125,1.3173,1.3078,1.3003,1.2963,1.301,1.3078,2.2942,2.3376,0.0,0.0,0.0,0.0,0.0,0.0,0.0,0.0,0.0,0.0,0.0,0.0,0.0,0.0,0.0,0.0,0.0,0.0,0.0,0.0,0.0,0.0,0.0,0.0,0.0,0.0,0.0,0.0,0.0,0.0,0.0,0.0,2.3166,2.3474,2.3781,1.9876,1.7943,1.8016,1.4156,1.2291,1.2298,1.244,1.2501,1.2515,1.2664,1.2732,1.2759,1.3057,1.1934,0.9638,0.5094,0.4691,0.6656,0.6643,0.5249,0.3334,0.3367,0.1882,0.0,0.0,0.0,0.0,0.0,0.0,0.0,0.0,0.0,0.0,0.0,0.0,0.0,0.0,0.1583,0.3053,0.3053,0.4737,0.5607,0.3458,0.3053,0.2404,0.0336,0.1849,0.3358,0.3442,0.3358,0.3358,0.3358,0.143,0.1681,0.6202,0.8624,1.0882,1.3231,1.3403,1.3403,1.3403,1.3403,1.3403,1.3403,1.3403,1.3403,1.3403,1.3403,1.3329,1.3173,1.3173,1.3105,1.305,1.3112,1.3173,1.8989,0.0,0.0,0.0,0.0,0.0,0.0,0.0,0.0,0.0,0.0,0.0,0.0,0.0,0.0,0.0,0.0,0.0,0.0,0.0,0.0,0.0,0.0,0.0,0.0,0.0,0.0,0.0,0.0,0.0,0.0,0.0,0.0,0.0,2.3487,2.3216,2.2264,1.9723,1.765,1.6215,1.3647,1.244,1.244,1.2481,1.2562,1.2664,1.2712,1.2847,1.2815,0.9853,0.8277,0.7381,0.4465,0.3795,0.4398,0.4414,0.3977,0.3106,0.1548,0.0599,0.0,0.0,0.0,0.0,0.0,0.0,0.0,0.0,0.0,0.0,0.0,0.0,0.0,0.0,0.0498,0.0919,0.0911,0.141,0.1666,0.1004,0.0921,0.0756,0.0085,0.1955,0.4083,0.5653,0.4548,0.292,0.1204,0.0428,0.1701,0.619,0.7322,0.9207,1.3065,1.3403,1.3403,1.3403,1.3403,1.3403,1.3403,1.3403,1.3403,1.3403,1.3403,1.3376,1.3336,1.3336,1.3308,1.3268,1.3315,1.3336,1.8867,0.0,0.0,0.0,0.0,0.0,0.0,0.0,0.0,0.0,0.0,0.0,0.0,0.0,0.0,0.0,0.0,0.0,0.0,0.0,0.0,0.0,0.0,0.0,0.0,0.0,0.0,0.0,0.0,0.0,0.0,0.0,0.0,0.0,2.3901,2.3314,2.1601,1.9629,1.7588,1.5463,1.3491,1.2535,1.2589,1.2589,1.2678,1.2827,1.2881,1.3078,1.3032,0.8551,0.6748,0.6436,0.3301,0.209,0.2083,0.2092,0.2085,0.1896,0.0515,0.0,0.0,0.0,0.0,0.0,0.0,0.0,0.0,0.0,0.0,0.0,0.0,0.0,0.0,0.0,0.0,0.0,0.0,0.0,0.0,0.0,0.0,0.0,0.0,0.2748,0.5327,0.6742,0.5799,0.4072,0.1736,0.0605,0.1376,0.4974,0.6221,0.8214,1.1718,1.29,1.3464,1.3403,1.3403,1.3403,1.3403,1.3403,1.3403,1.3403,1.3403,1.3403,1.3403,1.3403,1.3403,1.3403,1.3403,1.3403,0.0,0.0,0.0,0.0,0.0,0.0,0.0,0.0,0.0,0.0,0.0,0.0,0.0,0.0,0.0,0.0,0.0,0.0,0.0,0.0,0.0,0.0,0.0,0.0,0.0,0.0,0.0,0.0,0.0,0.0,0.0,0.0,0.0,0.0,2.4342,2.3574,2.1377,1.9478,1.7445,0.0,1.3358,1.261,1.2766,1.2745,1.282,1.307,1.3146,1.3287,1.2946,0.8531,0.6702,0.6159,0.1757,0.0,0.0,0.0,0.0,0.0,0.0,0.0,0.0,0.0,0.0,0.0,0.0,0.0,0.0,0.0,0.0,0.0,0.0,0.0,0.0,0.0,0.0,0.0,0.0,0.0,0.0,0.0,0.0,0.0,0.0,0.3818,0.7018,0.7198,0.7028,0.6076,0.391,0.1479,0.087,0.3039,0.5283,0.7492,0.9799,1.2005,1.3308,1.341,1.3403,1.3403,1.3403,1.3403,1.3403,1.3403,1.3403,1.3403,1.3403,1.3403,1.3403,1.3403,1.3403,1.3403,0.0,0.0,0.0,0.0,0.0,0.0,0.0,0.0,0.0,0.0,0.0,0.0,0.0,0.0,0.0,0.0,0.0,0.0,0.0,0.0,0.0,0.0,0.0,0.0,0.0,0.0,0.0,0.0,0.0,0.0,0.0,0.0,0.0,2.4102,2.4449,2.2893,1.9252,1.8799,1.6834,0.0,1.2834,1.282,1.3071,1.2834,1.2874,1.3146,1.341,1.2461,1.0657,0.7976,0.5774,0.3863,0.1058,0.0,0.0,0.0,0.0,0.0,0.0,0.0,0.0,0.0,0.0,0.0,0.0,0.0,0.0,0.0,0.0,0.0,0.0,0.0,0.0,0.0,0.0,0.0,0.0,0.0,0.0,0.0,0.0,0.0,0.0,0.3948,0.7731,0.9568,0.8248,0.6213,0.3909,0.1502,0.0879,0.3073,0.3744,0.5687,0.9714,1.0472,1.1524,1.3327,1.3403,1.3403,1.3403,1.3403,1.3403,1.3403,1.3403,1.3403,1.3403,1.3403,1.3403,1.3403,1.3403,1.3403,0.0,0.0,0.0,0.0,0.0,0.0,0.0,0.0,0.0,0.0,0.0,0.0,0.0,0.0,0.0,0.0,0.0,0.0,0.0,0.0,0.0,0.0,0.0,0.0,0.0,0.0,0.0,0.0,0.0,0.0,0.0,2.3607,2.3901,2.4195,2.3507,2.1676,1.8648,1.7693,1.5726,1.2732,1.2807,1.2956,1.3166,1.3091,1.3173,1.3403,1.3559,1.2331,1.0123,0.7876,0.5542,0.3259,0.0883,0.0,0.0,0.0,0.0,0.0,0.0,0.0,0.0,0.0,0.0,0.0,0.0,0.0,0.0,0.0,0.0,0.0,0.0,0.0,0.0,0.0,0.0,0.0,0.0,0.0,0.0,0.0,0.0,0.0,0.0,0.3904,0.7898,1.0352,0.8664,0.67,0.5454,0.2229,0.0445,0.16,0.2739,0.438,0.6666,0.8904,1.0752,1.1824,1.2927,1.3614,1.3614,1.3546,1.3478,1.3403,1.3403,1.3403,1.3403,1.3403,1.3403,1.3403,1.3403,1.3403,0.0,0.0,0.0,0.0,0.0,0.0,0.0,0.0,0.0,0.0,0.0,0.0,0.0,0.0,0.0,0.0,0.0,0.0,0.0,0.0,0.0,0.0,0.0,0.0,0.0,0.0,0.0,0.0,0.0,0.0,2.2806,2.3492,2.3928,2.4262,2.2547,2.0639,1.8633,1.6748,1.4774,1.2807,1.2963,1.3112,1.3254,1.3383,1.3512,1.355,1.3252,1.1847,0.9665,0.7297,0.5017,0.2819,0.0792,0.0,0.0,0.0,0.0,0.0,0.0,0.0,0.0,0.0,0.0,0.0,0.0,0.0,0.0,0.0,0.0,0.0,0.0,0.0,0.0,0.0,0.0,0.0,0.0,0.0,0.0,0.0,0.0,0.0089,0.0538,0.4204,0.7951,1.0357,0.8664,0.7057,0.7057,0.2955,0.0,0.0,0.1793,0.303,0.3263,0.7384,0.9971,1.0295,1.2539,1.3838,1.3838,1.3729,1.3607,1.3478,1.3424,1.3403,1.3403,1.3403,1.3403,1.3403,1.3403,1.3403,0.0,0.0,0.0,0.0,0.0,0.0,0.0,0.0,0.0,0.0,0.0,0.0,0.0,0.0,0.0,0.0,0.0,0.0,0.0,0.0,0.0,0.0,0.0,0.0,0.0,0.0,0.0,0.0,0.0,0.0,2.1174,2.2859,2.4022,2.4556,2.2645,2.0717,1.8789,1.682,1.4892,1.3119,1.3268,1.3424,1.3566,1.3587,1.3607,1.3472,1.1721,0.9554,0.7209,0.4929,0.2644,0.0441,0.0087,0.0,0.0,0.0,0.0,0.0,0.0,0.0,0.0,0.0,0.0,0.0,0.0,0.0,0.0,0.0,0.0,0.0,0.0,0.0,0.0,0.0,0.0,0.0,0.0,0.0,0.0,0.0,0.0,0.0627,0.2776,0.5365,0.7951,1.0357,0.8664,0.7057,0.7057,0.2955,0.0,0.0,0.0269,0.125,0.3175,0.5805,0.8221,1.0209,1.2539,1.3838,1.3838,1.3824,1.3718,1.3783,1.3532,1.3403,1.3403,1.3403,1.3403,1.3403,1.3403,1.3403,0.0,0.0,0.0,0.0,0.0,0.0,0.0,0.0,0.0,0.0,0.0,0.0,0.0,0.0,0.0,0.0,0.0,0.0,0.0,0.0,0.0,0.0,0.0,0.0,0.0,0.0,0.0,0.0,0.0,1.8078,2.0791,2.1701,2.2468,2.3017,2.1057,1.9096,1.7217,1.5297,1.3967,1.3302,1.3458,1.3566,1.3634,1.3804,1.3878,1.3792,1.1479,0.9174,0.6855,0.4549,0.2177,0.0,0.0,0.0,0.0,0.0,0.0,0.0,0.0,0.0,0.0,0.0,0.0,0.0,0.0,0.0,0.0,0.0,0.0,0.0,0.0,0.0,0.0,0.0,0.0,0.0,0.0,0.0,0.0,0.0,0.0,0.0359,0.1434,0.358,0.599,0.8308,0.67,0.5633,0.6968,0.2955,0.0,0.0,0.0,0.0985,0.3291,0.5681,0.8056,1.0394,1.2773,1.4095,1.4095,1.4014,1.3973,1.3973,1.3682,1.3532,1.3532,1.3444,1.3403,1.3403,1.3403,1.3403,0.0,0.0,0.0,0.0,0.0,0.0,0.0,0.0,0.0,0.0,0.0,0.0,0.0,0.0,0.0,0.0,0.0,0.0,0.0,0.0,0.0,0.0,0.0,0.0,0.0,0.0,0.0,0.0,0.0,1.5873,1.9264,1.9932,2.0428,2.1041,1.9111,1.746,1.6077,1.4194,1.2972,1.2528,1.2636,1.2386,1.1936,1.2131,1.2307,1.2213,1.0457,0.8623,0.6825,0.3902,0.1636,0.0,0.0,0.0,0.0,0.0,0.0,0.0,0.0,0.0,0.0,0.0,0.0,0.0,0.0,0.0,0.0,0.0,0.0,0.0,0.0,0.0,0.0,0.0,0.0,0.0,0.0,0.0,0.0,0.0,0.0,0.0,0.0,0.1971,0.4383,0.679,0.5097,0.4472,0.6793,0.2955,0.0,0.0,0.0538,0.1614,0.349,0.6347,0.8753,1.0629,1.2952,1.4299,1.4299,1.419,1.4129,1.4129,1.3878,1.3709,1.3627,1.3512,1.3437,1.3403,1.3403,1.3403,0.0,0.0,0.0,0.0,0.0,0.0,0.0,0.0,0.0,0.0,0.0,0.0,0.0,0.0,0.0,0.0,0.0,0.0,0.0,0.0,0.0,0.0,0.0,0.0,0.0,0.0,0.0,0.0,0.0,1.4665,1.5333,1.7221,1.8431,1.8973,1.7156,1.6165,1.6199,1.437,1.2284,1.0208,1.0213,0.9207,0.7286,0.7293,0.7384,0.7472,0.7293,0.7164,0.6576,0.2061,0.0086,0.0,0.0,0.0,0.0,0.0,0.0,0.0,0.0,0.0,0.0,0.0,0.0,0.0,0.0,0.0,0.0,0.0,0.0,0.0,0.0,0.0,0.0,0.0,0.0,0.0,0.0,0.0,0.0,0.0,0.0,0.0,0.0,0.1971,0.4383,0.679,0.5097,0.4472,0.6793,0.2955,0.0,0.0,0.2061,0.349,0.358,0.7862,1.054,1.0717,1.2952,1.4299,1.4299,1.4292,1.4285,1.4285,1.4129,1.3912,1.3627,1.362,1.3546,1.3403,1.3403,1.3403,0.0,0.0,0.0,0.0,0.0,0.0,0.0,0.0,0.0,0.0,0.0,0.0,0.0,0.0,0.0,0.0,0.0,0.0,0.0,0.0,0.0,0.0,0.0,0.0,0.0,0.0,0.0,0.0,0.0,0.0,1.5047,1.583,1.6545,1.6991,1.6412,1.5562,1.437,1.2278,1.0851,1.0043,0.8719,0.7679,0.6946,0.6946,0.7006,0.6872,0.5445,0.4817,0.4541,0.1285,0.0,0.0,0.0,0.0,0.0,0.0,0.0,0.0,0.0,0.0,0.0,0.0,0.0,0.0,0.0,0.0,0.0,0.0,0.0,0.0,0.0,0.0,0.0,0.0,0.0,0.0,0.0,0.0,0.0,0.0,0.0,0.0,0.0,0.1971,0.4383,0.679,0.6344,0.6165,0.6968,0.4295,0.233,0.233,0.3045,0.4829,0.7862,0.9735,1.1344,1.2952,1.385,1.4299,1.4299,1.4299,1.4299,1.4299,1.4245,1.4068,1.3763,1.3675,1.3553,1.3403,1.3403,1.3403,0.0,0.0,0.0,0.0,0.0,0.0,0.0,0.0,0.0,0.0,0.0,0.0,0.0,0.0,0.0,0.0,0.0,0.0,0.0,0.0,0.0,0.0,0.0,0.0,0.0,0.0,0.0,0.0,0.0,0.0,1.4034,1.4291,1.457,1.5152,1.5205,1.4676,1.3397,1.1171,0.9639,0.8906,0.6715,0.5288,0.4602,0.4672,0.4638,0.4502,0.3012,0.2826,0.3326,0.0941,0.0,0.0,0.0,0.0,0.0,0.0,0.0,0.0,0.0,0.0,0.0,0.0,0.0,0.0,0.0,0.0,0.0,0.0,0.0,0.0,0.0,0.0,0.0,0.0,0.0,0.0,0.0,0.0,0.0,0.0,0.0,0.0269,0.1076,0.2509,0.4651,0.7862,0.7595,0.7057,0.7057,0.5008,0.358,0.358,0.4295,0.6344,1.0357,1.1433,1.2597,1.421,1.4299,1.4299,1.4299,1.4299,1.4299,1.4299,1.4299,1.4177,1.3919,1.377,1.36,1.3403,1.3403,1.3403,0.0,0.0,0.0,0.0,0.0,0.0,0.0,0.0,0.0,0.0,0.0,0.0,0.0,0.0,0.0,0.0,0.0,0.0,0.0,0.0,0.0,0.0,0.0,0.0,0.0,0.0,0.0,0.0,0.0,1.1823,1.2271,1.2433,1.2793,1.3383,1.3403,1.3403,1.3321,1.1093,0.8821,0.6586,0.4295,0.2039,0.0,0.0,0.0,0.0087,0.0,0.1295,0.3247,0.0942,0.0,0.0,0.0,0.0,0.0,0.0,0.0,0.0,0.0,0.0,0.0,0.0,0.0,0.0,0.0,0.0,0.0,0.0,0.0,0.0,0.0,0.0,0.0,0.0,0.0,0.0,0.0,0.0,0.0,0.0,0.009,0.0807,0.3224,0.3759,0.5365,1.0002,0.8753,0.7239,0.7146,0.5097,0.3669,0.358,0.5722,0.804,1.0451,1.2952,1.4299,1.4299,1.4299,1.4299,1.4299,1.4299,1.4299,1.4299,1.4299,1.4224,1.4075,1.3919,1.3695,1.341,1.341,1.341,1.1003,0.0,0.0,0.0,0.0,0.0,0.0,0.0,0.0,0.0,0.0,0.0,0.0,0.0,0.0,0.0,0.0,0.0,0.0,0.0,0.0,0.0,0.0,0.0,0.0,0.0,0.0,0.0,1.1714,1.1925,1.2271,1.2732,1.3112,1.339,1.3403,1.2612,1.093,0.874,0.6499,0.4209,0.1952,0.0624,0.0,0.0,0.0958,0.2514,0.0776,0.1384,0.3318,0.0963,0.0,0.0,0.0,0.0,0.0,0.0,0.0,0.0,0.0,0.0,0.0,0.0,0.0,0.0,0.0,0.0,0.0,0.0,0.0,0.0,0.0,0.0,0.0,0.0,0.0,0.0,0.0,0.0,0.0,0.0,0.1434,0.2776,0.349,0.6436,0.9197,1.054,1.161,1.1072,0.7591,0.6522,0.5454,0.3759,0.5722,0.804,1.0451,1.2952,1.4299,1.4299,1.4299,1.4299,1.4299,1.4299,1.4299,1.4299,1.4299,1.4224,1.4075,1.4027,1.3905,1.3715,1.3614,1.3566,0.0,0.0,0.0,0.0,0.0,0.0,0.0,1.2316,0.0,0.0,0.0,0.0,0.0,0.0,0.0,0.0,0.0,0.0,0.0,0.0,0.0,0.0,0.0,0.0,0.0,0.0,0.0,1.1701,1.0973,1.0667,1.1124,1.1623,1.2332,1.3397,1.3403,1.2291,1.0043,0.7835,0.5572,0.3348,0.1066,0.0,0.0,0.0,0.1303,0.3467,0.1041,0.14,0.337,0.0978,0.0,0.0,0.0,0.0,0.0,0.0,0.0,0.0,0.0,0.0,0.0,0.0,0.0,0.0,0.0,0.0,0.0,0.0,0.0,0.0,0.0,0.0,0.0,0.0,0.0,0.0,0.0,0.0,0.0,0.0,0.1174,0.2799,0.4799,0.7509,1.004,1.2029,1.3572,1.2741,0.7829,0.7194,0.6287,0.385,0.4829,0.6968,1.0446,1.1971,1.3224,1.421,1.4299,1.4299,1.4299,1.4299,1.4299,1.4299,1.4299,1.4258,1.4163,1.4102,1.3994,1.3838,1.3756,1.3688,0.0,0.0,0.0,0.0,0.0,0.0,1.1677,1.2298,1.271,0.0,0.0,0.0,0.0,0.0,0.0,0.0,0.0,0.0,0.0,0.0,0.0,0.0,0.0,0.0,0.0,1.1742,1.1721,1.1843,0.9951,0.888,0.9204,0.9754,1.0995,1.2949,1.3327,1.2226,0.9634,0.7675,0.5493,0.2995,0.0971,0.0,0.0,0.0,0.1477,0.3821,0.1144,0.1512,0.3766,0.1078,0.0,0.0,0.0,0.0,0.0,0.0,0.0,0.0,0.0,0.0,0.0,0.0,0.0,0.0,0.0,0.0,0.0,0.0,0.0,0.0,0.0,0.0,0.0,0.0,0.0,0.0,0.0,0.0,0.0,0.0,0.0183,0.1829,0.6256,0.7459,0.9299,1.3632,1.4277,1.2568,0.7997,0.7171,0.5971,0.3495,0.3401,0.5454,0.9913,1.054,1.1699,1.4122,1.4299,1.4299,1.4299,1.4299,1.4299,1.4299,1.4299,1.4299,1.4299,1.4163,1.4027,1.3892,1.3871,1.379,0.0,0.0,0.0,0.0,0.0,0.0,0.849,0.8645,0.8929,0.0,0.0,0.0,0.0,0.0,0.0,0.0,0.0,0.0,0.0,0.0,0.0,0.0,0.0,0.0,0.0,1.1993,1.1986,1.2013,1.0323,0.8653,0.7148,0.9021,1.0301,1.0732,1.2612,1.1515,0.7421,0.7063,0.4744,0.0618,0.0177,0.0,0.0,0.0,0.2354,0.6141,0.1867,0.2426,0.6064,0.1815,0.0,0.0,0.0,0.0,0.0,0.0,0.0,0.0,0.0,0.0,0.0,0.0,0.0,0.0,0.0,0.0,0.0,0.0,0.0,0.0,0.0,0.0,0.0,0.0,0.0,0.0,0.0,0.0,0.0,0.0,0.1576,0.3225,0.4152,0.7646,1.0581,1.1506,1.1598,1.0638,0.7725,0.5631,0.3441,0.0988,0.2419,0.474,0.7591,0.9557,1.1699,1.4122,1.4299,1.4299,1.4299,1.4299,1.4299,1.4299,1.4299,1.4299,1.4299,1.4272,1.4238,1.4211,1.4082,1.3946,0.0,0.0,0.0,0.8499,0.0,0.0,0.0,0.8309,0.8296,0.0,0.0,0.0,0.0,0.0,0.0,0.0,0.0,0.0,0.0,0.0,0.0,0.0,0.0,0.0,0.0,1.2108,1.1258,0.9192,0.8275,0.6993,0.5011,0.61,0.7263,0.8384,0.9502,0.8543,0.5065,0.5063,0.3417,0.0,0.0,0.0,0.0,0.0,0.193,0.5198,0.1525,0.1993,0.5087,0.1457,0.0,0.0,0.0,0.0,0.0,0.0,0.0,0.0,0.0,0.0,0.0,0.0,0.0,0.0,0.0,0.0,0.0,0.0,0.0,0.0,0.0,0.0,0.0,0.0,0.0939,0.1876,0.1876,0.1876,0.1879,0.1888,0.1883,0.2252,0.3468,0.6827,0.9254,0.9254,1.0375,0.9763,0.6052,0.4489,0.2734,0.027,0.215,0.4572,0.7021,0.9406,1.1727,1.4222,1.434,1.4299,1.4299,1.4299,1.4299,1.4299,1.4299,1.4299,1.4299,1.4299,1.4299,1.4299,1.4224,1.4102,0.0,0.0,0.0,0.0,0.0,0.8615,0.0,0.0,0.0,0.93,0.0,0.0,0.0,0.0,0.0,0.0,0.0,0.0,0.0,0.0,0.0,0.0,0.0,0.0,0.0,1.202,1.0323,0.6424,0.6106,0.5067,0.2797,0.3108,0.4238,0.6032,0.6518,0.5665,0.3424,0.3402,0.227,0.0,0.0,0.0,0.0,0.0,0.1327,0.3461,0.1085,0.1368,0.3375,0.1003,0.0,0.0,0.0,0.0,0.0,0.0,0.0,0.0,0.0,0.0,0.0,0.0,0.0,0.0,0.0,0.0,0.0,0.0,0.0,0.0,0.0,0.0,0.0095,0.0572,0.2285,0.3898,0.4466,0.4183,0.3803,0.3803,0.1715,0.0668,0.276,0.5605,0.7595,0.7595,0.9393,0.9146,0.5101,0.3699,0.2294,0.018,0.2157,0.4682,0.7168,0.9451,1.1771,1.4323,1.438,1.4299,1.4299,1.4299,1.4299,1.4299,1.4299,1.4299,1.4299,1.4299,1.4299,1.4299,1.4299,1.4217,0.0,0.0,0.0,0.0,0.8314,0.0,0.0,0.0,0.8248,0.8072,0.0,0.0,0.0,0.0,0.0,0.0,0.0,0.0,0.0,0.0,0.0,0.0,0.0,0.0,0.0,0.0,1.0075,0.672,0.5698,0.3851,0.0566,0.2319,0.3521,0.3776,0.579,0.5771,0.3299,0.3503,0.2366,0.0,0.0,0.0,0.0,0.0,0.1338,0.3443,0.1092,0.1373,0.3409,0.1006,0.0,0.0,0.0,0.0,0.0,0.0,0.0,0.0,0.0,0.0,0.0,0.0,0.0,0.0,0.0,0.0,0.0,0.0,0.0,0.0,0.0,0.0,0.0572,0.2854,0.3613,0.4371,0.6645,0.5415,0.3803,0.3803,0.1715,0.0095,0.0382,0.4373,0.7595,0.7595,0.788,0.7848,0.72,0.325,0.0276,0.0,0.2272,0.4719,0.7171,0.9509,1.195,1.433,1.438,1.4299,1.4299,1.4299,1.4299,1.4299,1.4299,1.4299,1.4299,1.4299,1.4299,1.4299,1.4299,1.4217,0.0,0.0,0.0,0.0,0.0,0.0,0.0,0.0,0.8357,0.0,0.0,0.0,0.0,0.0,0.0,0.0,0.0,0.0,0.0,0.0,0.0,0.0,0.0,0.0,0.0,0.0,0.0,0.0,0.0,0.3721,0.0164,0.0923,0.1444,0.1444,0.2349,0.2367,0.1389,0.1483,0.096,0.0,0.0,0.0,0.0,0.0,0.0542,0.1458,0.0459,0.0549,0.1453,0.0456,0.0,0.0,0.0,0.0,0.0,0.0,0.0,0.0,0.0,0.0,0.0,0.0,0.0,0.0,0.0,0.0,0.0,0.0,0.0,0.0,0.0,0.1144,0.2475,0.3518,0.6079,0.8542,0.9582,0.7785,0.5984,0.5984,0.276,0.0,0.0,0.4185,0.7122,0.5605,0.6645,0.7096,0.5621,0.2243,0.0,0.0,0.3577,0.6318,0.7323,1.0826,1.3418,1.4419,1.438,1.4299,1.4299,1.4299,1.4299,1.4299,1.4299,1.4299,1.4299,1.4299,1.4299,1.4299,1.4299,1.4265,1.0426,0.0,0.0,0.0,0.0,0.0,0.0,0.0,0.0,0.0,0.0,0.0,0.0,0.0,0.0,0.0,0.0,0.0,0.0,0.0,0.0,0.0,0.0,0.0,0.0,0.0,0.0,0.0,0.5735,0.3834,0.0988,0.0339,0.0,0.0,0.0,0.0,0.0,0.0,0.0,0.0,0.0,0.0,0.0,0.0,0.0,0.0,0.0,0.0,0.0,0.0,0.0,0.0,0.0,0.0,0.0,0.0,0.0,0.0,0.0,0.0,0.0,0.0,0.0,0.0,0.0,0.0,0.0,0.0,0.0,0.0,0.0,0.1905,0.3993,0.4656,0.8164,1.1579,1.2334,0.987,0.7595,0.7595,0.3521,0.0191,0.0954,0.4658,0.6932,0.513,0.6456,0.6914,0.508,0.1974,0.0281,0.093,0.4896,0.7643,0.8377,1.2125,1.4496,1.4455,1.4353,1.4299,1.4299,1.4299,1.4299,1.4299,1.4299,1.4299,1.4299,1.4299,1.4299,1.4299,1.4299,1.4299,0.0,0.0,0.0,0.7807,0.0,0.0,0.0,0.0,0.896,0.0,0.0,0.0,0.0,0.0,0.0,0.0,0.0,0.0,0.0,0.0,0.0,0.0,0.0,0.0,0.0,0.0,0.0,0.8656,0.5771,0.3732,0.3033,0.1109,0.0,0.0,0.0,0.0,0.0,0.0,0.0,0.0,0.0,0.0,0.0,0.0,0.0,0.0,0.0,0.0,0.0,0.0,0.0,0.0,0.0,0.0,0.0,0.0,0.0,0.0,0.0,0.0,0.0,0.0,0.0,0.0,0.0,0.0,0.0,0.0,0.0,0.0,0.0,0.1905,0.4466,0.6932,0.9488,1.2051,1.4516,1.1097,0.7595,0.7595,0.3521,0.0763,0.3234,0.5889,0.7595,0.7501,0.7592,0.7592,0.7497,0.3113,0.0939,0.3371,0.5932,0.8377,1.0866,1.3222,1.4455,1.4319,1.4299,1.4299,1.4299,1.4299,1.4299,1.4299,1.4299,1.4299,1.4299,1.4299,1.4299,1.4299,1.4299,1.4299,0.0,0.0,0.675,0.5968,0.0,0.0,0.0,0.0,0.0,0.0,0.0,0.0,0.0,0.0,0.0,0.0,0.0,0.0,0.0,0.0,0.0,0.0,0.0,0.0,0.0,0.0,0.0,0.8646,0.6279,0.4448,0.0,0.1212,0.0,0.0,0.0,0.0,0.0,0.0,0.0,0.0,0.0,0.0,0.0,0.0,0.0,0.0,0.0,0.0,0.0,0.0,0.0,0.0,0.0,0.0,0.0,0.0,0.0,0.0,0.0,0.0,0.0,0.0,0.0,0.0,0.0,0.0,0.0,0.0,0.0,0.0,0.0,0.3141,0.655,0.7406,1.0814,1.3664,1.2904,1.0054,0.7122,0.5415,0.2368,0.0283,0.1133,0.4681,0.8039,0.9848,1.0153,0.9466,0.7809,0.4625,0.2834,0.3749,0.597,0.8347,1.0774,1.3059,1.4353,1.4306,1.4299,1.4299,1.4299,1.4299,1.4299,1.4299,1.4299,1.4299,1.4299,1.4299,1.4299,1.4299,1.4299,1.4299,0.9376,0.7661,0.0,0.5149,0.352,0.0,0.4133,0.0,0.0,0.0,0.0,0.0,0.0,0.0,0.0,0.0,0.0,0.0,0.0,0.0,0.0,0.0,0.0,0.0,0.0,0.0,0.9838,0.9809,0.674,0.4768,0.0,0.0,0.0,0.0,0.0,0.0,0.0,0.0,0.0,0.0,0.0,0.0,0.0,0.0,0.0,0.0,0.0,0.0,0.0,0.0,0.0,0.0,0.0,0.0,0.0,0.0,0.0,0.0,0.0,0.0,0.0,0.0,0.0,0.0,0.0,0.0,0.0,0.0,0.0,0.0,0.0,0.3805,0.7589,0.7561,1.1449,1.4503,1.1903,0.9372,0.6828,0.4257,0.1696,0.0282,0.1215,0.4724,0.7962,0.9795,1.0761,1.0451,0.7953,0.5381,0.4166,0.5059,0.6453,0.8736,1.1914,1.3439,1.4319,1.4373,1.4373,1.4401,1.4455,1.4407,1.4373,1.4373,1.4326,1.4299,1.4299,1.4299,1.4299,1.4299,1.4299,1.4299]}]]